<?xml version="1.0" encoding="utf-8"?>
<gpx xmlns:xsi="http://www.w3.org/2001/XMLSchema-instance" xmlns:xsd="http://www.w3.org/2001/XMLSchema" version="1.1" creator="Shapelink.com" xmlns="http://www.topografix.com/GPX/1/1" xmlns:gpxtpx="http://www.garmin.com/xmlschemas/TrackPointExtension/v1">
  <metadata>
    <name>Gåing 4.54 km, 2014-06-27</name>
    <desc></desc>
    <author><name>Mikael Blom</name></author> 
    <time>2014-06-27T08:40:27Z</time>
  </metadata>
  <trk>
    <name>Gåing 4.54 km, 2014-06-27</name>
    <trkseg>
      <trkpt lat="59.9787971" lon="17.7398517">
        <ele>43.3966</ele>
        <time>2014-06-27T08:40:27Z</time>
      </trkpt>
      <trkpt lat="59.978791" lon="17.7398327">
        <ele>42.4354</ele>
        <time>2014-06-27T08:40:28Z</time>
      </trkpt>
      <trkpt lat="59.97879" lon="17.7398038">
        <ele>41.9547</ele>
        <time>2014-06-27T08:40:29Z</time>
      </trkpt>
      <trkpt lat="59.9787894" lon="17.7397725">
        <ele>41.9547</ele>
        <time>2014-06-27T08:40:30Z</time>
      </trkpt>
      <trkpt lat="59.9787883" lon="17.7397381">
        <ele>41.474</ele>
        <time>2014-06-27T08:40:31Z</time>
      </trkpt>
      <trkpt lat="59.978792" lon="17.739696">
        <ele>40.9934</ele>
        <time>2014-06-27T08:40:32Z</time>
      </trkpt>
      <trkpt lat="59.9787966" lon="17.7396594">
        <ele>40.5128</ele>
        <time>2014-06-27T08:40:33Z</time>
      </trkpt>
      <trkpt lat="59.9788043" lon="17.7396387">
        <ele>39.0707</ele>
        <time>2014-06-27T08:40:34Z</time>
      </trkpt>
      <trkpt lat="59.9788138" lon="17.7396144">
        <ele>38.1094</ele>
        <time>2014-06-27T08:40:35Z</time>
      </trkpt>
      <trkpt lat="59.9788199" lon="17.7395859">
        <ele>37.6287</ele>
        <time>2014-06-27T08:40:36Z</time>
      </trkpt>
      <trkpt lat="59.9788215" lon="17.7395577">
        <ele>37.1481</ele>
        <time>2014-06-27T08:40:37Z</time>
      </trkpt>
      <trkpt lat="59.9788258" lon="17.7395361">
        <ele>36.6675</ele>
        <time>2014-06-27T08:40:38Z</time>
      </trkpt>
      <trkpt lat="59.9788408" lon="17.7395231">
        <ele>37.6287</ele>
        <time>2014-06-27T08:40:39Z</time>
      </trkpt>
      <trkpt lat="59.9788535" lon="17.7395096">
        <ele>38.1094</ele>
        <time>2014-06-27T08:40:40Z</time>
      </trkpt>
      <trkpt lat="59.978861" lon="17.7394876">
        <ele>38.1094</ele>
        <time>2014-06-27T08:40:41Z</time>
      </trkpt>
      <trkpt lat="59.9788677" lon="17.7394635">
        <ele>38.1094</ele>
        <time>2014-06-27T08:40:42Z</time>
      </trkpt>
      <trkpt lat="59.9788727" lon="17.7394387">
        <ele>38.1094</ele>
        <time>2014-06-27T08:40:43Z</time>
      </trkpt>
      <trkpt lat="59.9788769" lon="17.7394121">
        <ele>38.5901</ele>
        <time>2014-06-27T08:40:44Z</time>
      </trkpt>
      <trkpt lat="59.9788799" lon="17.7393901">
        <ele>39.0707</ele>
        <time>2014-06-27T08:40:45Z</time>
      </trkpt>
      <trkpt lat="59.9788867" lon="17.7393704">
        <ele>39.5513</ele>
        <time>2014-06-27T08:40:46Z</time>
      </trkpt>
      <trkpt lat="59.9788913" lon="17.7393508">
        <ele>40.0321</ele>
        <time>2014-06-27T08:40:47Z</time>
      </trkpt>
      <trkpt lat="59.978898" lon="17.7393318">
        <ele>40.0321</ele>
        <time>2014-06-27T08:40:48Z</time>
      </trkpt>
      <trkpt lat="59.9789067" lon="17.7393119">
        <ele>40.5128</ele>
        <time>2014-06-27T08:40:49Z</time>
      </trkpt>
      <trkpt lat="59.9789162" lon="17.7392906">
        <ele>40.9934</ele>
        <time>2014-06-27T08:40:50Z</time>
      </trkpt>
      <trkpt lat="59.9789248" lon="17.7392697">
        <ele>40.5128</ele>
        <time>2014-06-27T08:40:51Z</time>
      </trkpt>
      <trkpt lat="59.9789341" lon="17.7392515">
        <ele>40.0321</ele>
        <time>2014-06-27T08:40:52Z</time>
      </trkpt>
      <trkpt lat="59.9789454" lon="17.7392387">
        <ele>39.5513</ele>
        <time>2014-06-27T08:40:53Z</time>
      </trkpt>
      <trkpt lat="59.9789593" lon="17.7392264">
        <ele>39.0707</ele>
        <time>2014-06-27T08:40:54Z</time>
      </trkpt>
      <trkpt lat="59.9789717" lon="17.7392143">
        <ele>38.5901</ele>
        <time>2014-06-27T08:40:55Z</time>
      </trkpt>
      <trkpt lat="59.9789857" lon="17.7392086">
        <ele>38.1094</ele>
        <time>2014-06-27T08:40:56Z</time>
      </trkpt>
      <trkpt lat="59.9789983" lon="17.7392062">
        <ele>37.6287</ele>
        <time>2014-06-27T08:40:57Z</time>
      </trkpt>
      <trkpt lat="59.9790142" lon="17.7392025">
        <ele>37.6287</ele>
        <time>2014-06-27T08:40:58Z</time>
      </trkpt>
      <trkpt lat="59.9790312" lon="17.739198">
        <ele>37.6287</ele>
        <time>2014-06-27T08:40:59Z</time>
      </trkpt>
      <trkpt lat="59.9790469" lon="17.7391911">
        <ele>37.1481</ele>
        <time>2014-06-27T08:41:00Z</time>
      </trkpt>
      <trkpt lat="59.9790645" lon="17.7391801">
        <ele>37.6287</ele>
        <time>2014-06-27T08:41:01Z</time>
      </trkpt>
      <trkpt lat="59.9790811" lon="17.7391692">
        <ele>37.6287</ele>
        <time>2014-06-27T08:41:02Z</time>
      </trkpt>
      <trkpt lat="59.9790966" lon="17.7391596">
        <ele>37.6287</ele>
        <time>2014-06-27T08:41:03Z</time>
      </trkpt>
      <trkpt lat="59.9791132" lon="17.7391508">
        <ele>37.6287</ele>
        <time>2014-06-27T08:41:04Z</time>
      </trkpt>
      <trkpt lat="59.9791294" lon="17.7391481">
        <ele>38.1094</ele>
        <time>2014-06-27T08:41:05Z</time>
      </trkpt>
      <trkpt lat="59.9791464" lon="17.7391472">
        <ele>38.1094</ele>
        <time>2014-06-27T08:41:06Z</time>
      </trkpt>
      <trkpt lat="59.9791631" lon="17.739145">
        <ele>38.1094</ele>
        <time>2014-06-27T08:41:07Z</time>
      </trkpt>
      <trkpt lat="59.9791775" lon="17.7391418">
        <ele>38.1094</ele>
        <time>2014-06-27T08:41:08Z</time>
      </trkpt>
      <trkpt lat="59.9791935" lon="17.739136">
        <ele>38.1094</ele>
        <time>2014-06-27T08:41:09Z</time>
      </trkpt>
      <trkpt lat="59.979208" lon="17.7391312">
        <ele>37.6287</ele>
        <time>2014-06-27T08:41:10Z</time>
      </trkpt>
      <trkpt lat="59.9792211" lon="17.7391259">
        <ele>37.1481</ele>
        <time>2014-06-27T08:41:11Z</time>
      </trkpt>
      <trkpt lat="59.9792356" lon="17.7391208">
        <ele>37.1481</ele>
        <time>2014-06-27T08:41:12Z</time>
      </trkpt>
      <trkpt lat="59.9792482" lon="17.7391145">
        <ele>36.6675</ele>
        <time>2014-06-27T08:41:13Z</time>
      </trkpt>
      <trkpt lat="59.9792609" lon="17.7391057">
        <ele>36.6675</ele>
        <time>2014-06-27T08:41:14Z</time>
      </trkpt>
      <trkpt lat="59.9792755" lon="17.7390974">
        <ele>36.6675</ele>
        <time>2014-06-27T08:41:15Z</time>
      </trkpt>
      <trkpt lat="59.9792883" lon="17.7390911">
        <ele>36.1868</ele>
        <time>2014-06-27T08:41:16Z</time>
      </trkpt>
      <trkpt lat="59.9793012" lon="17.7390849">
        <ele>36.1868</ele>
        <time>2014-06-27T08:41:17Z</time>
      </trkpt>
      <trkpt lat="59.9793264" lon="17.7390807">
        <ele>37.6287</ele>
        <time>2014-06-27T08:41:18Z</time>
      </trkpt>
      <trkpt lat="59.9793392" lon="17.739078">
        <ele>38.1094</ele>
        <time>2014-06-27T08:41:19Z</time>
      </trkpt>
      <trkpt lat="59.9793469" lon="17.7390679">
        <ele>38.1094</ele>
        <time>2014-06-27T08:41:20Z</time>
      </trkpt>
      <trkpt lat="59.9793556" lon="17.7390522">
        <ele>38.1094</ele>
        <time>2014-06-27T08:41:21Z</time>
      </trkpt>
      <trkpt lat="59.9793664" lon="17.7390376">
        <ele>39.0707</ele>
        <time>2014-06-27T08:41:22Z</time>
      </trkpt>
      <trkpt lat="59.979378" lon="17.7390226">
        <ele>39.5513</ele>
        <time>2014-06-27T08:41:23Z</time>
      </trkpt>
      <trkpt lat="59.9793918" lon="17.7390068">
        <ele>40.5128</ele>
        <time>2014-06-27T08:41:24Z</time>
      </trkpt>
      <trkpt lat="59.9794068" lon="17.7389933">
        <ele>41.474</ele>
        <time>2014-06-27T08:41:25Z</time>
      </trkpt>
      <trkpt lat="59.9794199" lon="17.7389807">
        <ele>42.4354</ele>
        <time>2014-06-27T08:41:26Z</time>
      </trkpt>
      <trkpt lat="59.9794353" lon="17.7389708">
        <ele>42.916</ele>
        <time>2014-06-27T08:41:27Z</time>
      </trkpt>
      <trkpt lat="59.9794468" lon="17.7389573">
        <ele>43.3966</ele>
        <time>2014-06-27T08:41:28Z</time>
      </trkpt>
      <trkpt lat="59.9794565" lon="17.7389441">
        <ele>43.8773</ele>
        <time>2014-06-27T08:41:29Z</time>
      </trkpt>
      <trkpt lat="59.9794665" lon="17.7389397">
        <ele>44.8386</ele>
        <time>2014-06-27T08:41:30Z</time>
      </trkpt>
      <trkpt lat="59.9794733" lon="17.7389333">
        <ele>44.358</ele>
        <time>2014-06-27T08:41:31Z</time>
      </trkpt>
      <trkpt lat="59.9794847" lon="17.7389259">
        <ele>44.8386</ele>
        <time>2014-06-27T08:41:32Z</time>
      </trkpt>
      <trkpt lat="59.9794918" lon="17.7389136">
        <ele>44.8386</ele>
        <time>2014-06-27T08:41:33Z</time>
      </trkpt>
      <trkpt lat="59.9794985" lon="17.7389026">
        <ele>45.3192</ele>
        <time>2014-06-27T08:41:34Z</time>
      </trkpt>
      <trkpt lat="59.9795002" lon="17.7388957">
        <ele>44.8386</ele>
        <time>2014-06-27T08:41:35Z</time>
      </trkpt>
      <trkpt lat="59.9794953" lon="17.7388858">
        <ele>43.3966</ele>
        <time>2014-06-27T08:41:36Z</time>
      </trkpt>
      <trkpt lat="59.979492" lon="17.7388849">
        <ele>42.916</ele>
        <time>2014-06-27T08:41:37Z</time>
      </trkpt>
      <trkpt lat="59.9794898" lon="17.738886">
        <ele>42.4354</ele>
        <time>2014-06-27T08:41:38Z</time>
      </trkpt>
      <trkpt lat="59.9795945" lon="17.7387711">
        <ele>41.9547</ele>
        <time>2014-06-27T08:42:19Z</time>
      </trkpt>
      <trkpt lat="59.9796129" lon="17.7387739">
        <ele>41.9547</ele>
        <time>2014-06-27T08:42:20Z</time>
      </trkpt>
      <trkpt lat="59.9796288" lon="17.7387786">
        <ele>41.9547</ele>
        <time>2014-06-27T08:42:21Z</time>
      </trkpt>
      <trkpt lat="59.9796457" lon="17.7387761">
        <ele>41.474</ele>
        <time>2014-06-27T08:42:22Z</time>
      </trkpt>
      <trkpt lat="59.9796652" lon="17.7387742">
        <ele>41.9547</ele>
        <time>2014-06-27T08:42:23Z</time>
      </trkpt>
      <trkpt lat="59.9796758" lon="17.7387721">
        <ele>42.4354</ele>
        <time>2014-06-27T08:42:24Z</time>
      </trkpt>
      <trkpt lat="59.9796834" lon="17.7387713">
        <ele>41.474</ele>
        <time>2014-06-27T08:42:25Z</time>
      </trkpt>
      <trkpt lat="59.9796929" lon="17.738768">
        <ele>40.5128</ele>
        <time>2014-06-27T08:42:26Z</time>
      </trkpt>
      <trkpt lat="59.9797046" lon="17.7387668">
        <ele>40.0321</ele>
        <time>2014-06-27T08:42:27Z</time>
      </trkpt>
      <trkpt lat="59.9797182" lon="17.7387628">
        <ele>39.5513</ele>
        <time>2014-06-27T08:42:28Z</time>
      </trkpt>
      <trkpt lat="59.9797263" lon="17.7387644">
        <ele>38.1094</ele>
        <time>2014-06-27T08:42:29Z</time>
      </trkpt>
      <trkpt lat="59.979738" lon="17.7387577">
        <ele>38.1094</ele>
        <time>2014-06-27T08:42:30Z</time>
      </trkpt>
      <trkpt lat="59.9797488" lon="17.7387484">
        <ele>37.1481</ele>
        <time>2014-06-27T08:42:31Z</time>
      </trkpt>
      <trkpt lat="59.9797618" lon="17.7387413">
        <ele>37.1481</ele>
        <time>2014-06-27T08:42:32Z</time>
      </trkpt>
      <trkpt lat="59.9797799" lon="17.738737">
        <ele>37.6287</ele>
        <time>2014-06-27T08:42:33Z</time>
      </trkpt>
      <trkpt lat="59.979787" lon="17.7387332">
        <ele>37.1481</ele>
        <time>2014-06-27T08:42:34Z</time>
      </trkpt>
      <trkpt lat="59.9798082" lon="17.7387343">
        <ele>37.6287</ele>
        <time>2014-06-27T08:42:35Z</time>
      </trkpt>
      <trkpt lat="59.9798384" lon="17.7387265">
        <ele>39.5513</ele>
        <time>2014-06-27T08:42:36Z</time>
      </trkpt>
      <trkpt lat="59.9798582" lon="17.7387245">
        <ele>40.0321</ele>
        <time>2014-06-27T08:42:37Z</time>
      </trkpt>
      <trkpt lat="59.9798752" lon="17.7387235">
        <ele>40.9934</ele>
        <time>2014-06-27T08:42:38Z</time>
      </trkpt>
      <trkpt lat="59.9798997" lon="17.7387238">
        <ele>41.9547</ele>
        <time>2014-06-27T08:42:39Z</time>
      </trkpt>
      <trkpt lat="59.9799326" lon="17.7387211">
        <ele>43.8773</ele>
        <time>2014-06-27T08:42:40Z</time>
      </trkpt>
      <trkpt lat="59.9799574" lon="17.7387166">
        <ele>44.358</ele>
        <time>2014-06-27T08:42:41Z</time>
      </trkpt>
      <trkpt lat="59.9799823" lon="17.7387128">
        <ele>45.7999</ele>
        <time>2014-06-27T08:42:42Z</time>
      </trkpt>
      <trkpt lat="59.9799967" lon="17.7387102">
        <ele>44.8386</ele>
        <time>2014-06-27T08:42:43Z</time>
      </trkpt>
      <trkpt lat="59.9800069" lon="17.7387109">
        <ele>45.3192</ele>
        <time>2014-06-27T08:42:44Z</time>
      </trkpt>
      <trkpt lat="59.9800175" lon="17.7387089">
        <ele>45.3192</ele>
        <time>2014-06-27T08:42:45Z</time>
      </trkpt>
      <trkpt lat="59.9800259" lon="17.7387084">
        <ele>44.8386</ele>
        <time>2014-06-27T08:42:46Z</time>
      </trkpt>
      <trkpt lat="59.9800451" lon="17.7387121">
        <ele>44.8386</ele>
        <time>2014-06-27T08:42:47Z</time>
      </trkpt>
      <trkpt lat="59.9800736" lon="17.7387162">
        <ele>46.7612</ele>
        <time>2014-06-27T08:42:48Z</time>
      </trkpt>
      <trkpt lat="59.9800798" lon="17.7387261">
        <ele>45.7999</ele>
        <time>2014-06-27T08:42:49Z</time>
      </trkpt>
      <trkpt lat="59.9801011" lon="17.7387382">
        <ele>46.7612</ele>
        <time>2014-06-27T08:42:50Z</time>
      </trkpt>
      <trkpt lat="59.9801203" lon="17.7387488">
        <ele>46.2806</ele>
        <time>2014-06-27T08:42:51Z</time>
      </trkpt>
      <trkpt lat="59.9801364" lon="17.7387591">
        <ele>46.7612</ele>
        <time>2014-06-27T08:42:52Z</time>
      </trkpt>
      <trkpt lat="59.9801491" lon="17.7387642">
        <ele>46.2806</ele>
        <time>2014-06-27T08:42:53Z</time>
      </trkpt>
      <trkpt lat="59.980168" lon="17.7387613">
        <ele>46.2806</ele>
        <time>2014-06-27T08:42:54Z</time>
      </trkpt>
      <trkpt lat="59.9801773" lon="17.7387644">
        <ele>45.3192</ele>
        <time>2014-06-27T08:42:55Z</time>
      </trkpt>
      <trkpt lat="59.9801928" lon="17.7387597">
        <ele>45.3192</ele>
        <time>2014-06-27T08:42:56Z</time>
      </trkpt>
      <trkpt lat="59.9802066" lon="17.7387611">
        <ele>44.8386</ele>
        <time>2014-06-27T08:42:57Z</time>
      </trkpt>
      <trkpt lat="59.9802222" lon="17.7387638">
        <ele>44.358</ele>
        <time>2014-06-27T08:42:58Z</time>
      </trkpt>
      <trkpt lat="59.9802352" lon="17.7387648">
        <ele>43.8773</ele>
        <time>2014-06-27T08:42:59Z</time>
      </trkpt>
      <trkpt lat="59.9802508" lon="17.7387722">
        <ele>43.3966</ele>
        <time>2014-06-27T08:43:00Z</time>
      </trkpt>
      <trkpt lat="59.9802689" lon="17.7387724">
        <ele>42.4354</ele>
        <time>2014-06-27T08:43:01Z</time>
      </trkpt>
      <trkpt lat="59.9802848" lon="17.7387648">
        <ele>40.9934</ele>
        <time>2014-06-27T08:43:02Z</time>
      </trkpt>
      <trkpt lat="59.9803062" lon="17.7387665">
        <ele>41.9547</ele>
        <time>2014-06-27T08:43:03Z</time>
      </trkpt>
      <trkpt lat="59.9803193" lon="17.7387577">
        <ele>41.9547</ele>
        <time>2014-06-27T08:43:04Z</time>
      </trkpt>
      <trkpt lat="59.9803324" lon="17.7387508">
        <ele>41.474</ele>
        <time>2014-06-27T08:43:05Z</time>
      </trkpt>
      <trkpt lat="59.9803438" lon="17.7387608">
        <ele>42.4354</ele>
        <time>2014-06-27T08:43:06Z</time>
      </trkpt>
      <trkpt lat="59.9803575" lon="17.7387657">
        <ele>42.916</ele>
        <time>2014-06-27T08:43:07Z</time>
      </trkpt>
      <trkpt lat="59.9803782" lon="17.7387656">
        <ele>43.3966</ele>
        <time>2014-06-27T08:43:08Z</time>
      </trkpt>
      <trkpt lat="59.9803938" lon="17.7387571">
        <ele>43.3966</ele>
        <time>2014-06-27T08:43:09Z</time>
      </trkpt>
      <trkpt lat="59.9804113" lon="17.7387482">
        <ele>43.8773</ele>
        <time>2014-06-27T08:43:10Z</time>
      </trkpt>
      <trkpt lat="59.9804192" lon="17.738747">
        <ele>42.916</ele>
        <time>2014-06-27T08:43:11Z</time>
      </trkpt>
      <trkpt lat="59.9804342" lon="17.7387476">
        <ele>42.916</ele>
        <time>2014-06-27T08:43:12Z</time>
      </trkpt>
      <trkpt lat="59.9804511" lon="17.7387418">
        <ele>42.916</ele>
        <time>2014-06-27T08:43:13Z</time>
      </trkpt>
      <trkpt lat="59.9804679" lon="17.7387378">
        <ele>42.4354</ele>
        <time>2014-06-27T08:43:14Z</time>
      </trkpt>
      <trkpt lat="59.980487" lon="17.7387322">
        <ele>42.4354</ele>
        <time>2014-06-27T08:43:15Z</time>
      </trkpt>
      <trkpt lat="59.9805086" lon="17.7387203">
        <ele>42.4354</ele>
        <time>2014-06-27T08:43:16Z</time>
      </trkpt>
      <trkpt lat="59.9805279" lon="17.7387151">
        <ele>42.4354</ele>
        <time>2014-06-27T08:43:17Z</time>
      </trkpt>
      <trkpt lat="59.9805492" lon="17.7387123">
        <ele>42.916</ele>
        <time>2014-06-27T08:43:18Z</time>
      </trkpt>
      <trkpt lat="59.9805686" lon="17.7387085">
        <ele>42.916</ele>
        <time>2014-06-27T08:43:19Z</time>
      </trkpt>
      <trkpt lat="59.9805835" lon="17.7387041">
        <ele>42.916</ele>
        <time>2014-06-27T08:43:20Z</time>
      </trkpt>
      <trkpt lat="59.9806072" lon="17.7386974">
        <ele>43.8773</ele>
        <time>2014-06-27T08:43:21Z</time>
      </trkpt>
      <trkpt lat="59.98063" lon="17.7386932">
        <ele>44.358</ele>
        <time>2014-06-27T08:43:22Z</time>
      </trkpt>
      <trkpt lat="59.9806554" lon="17.7386886">
        <ele>44.358</ele>
        <time>2014-06-27T08:43:23Z</time>
      </trkpt>
      <trkpt lat="59.9806844" lon="17.7386844">
        <ele>45.3192</ele>
        <time>2014-06-27T08:43:24Z</time>
      </trkpt>
      <trkpt lat="59.9807003" lon="17.738689">
        <ele>45.7999</ele>
        <time>2014-06-27T08:43:25Z</time>
      </trkpt>
      <trkpt lat="59.9807189" lon="17.7386752">
        <ele>45.7999</ele>
        <time>2014-06-27T08:43:26Z</time>
      </trkpt>
      <trkpt lat="59.9807303" lon="17.7386793">
        <ele>46.7612</ele>
        <time>2014-06-27T08:43:27Z</time>
      </trkpt>
      <trkpt lat="59.9807401" lon="17.7386805">
        <ele>46.7612</ele>
        <time>2014-06-27T08:43:28Z</time>
      </trkpt>
      <trkpt lat="59.9807496" lon="17.7386771">
        <ele>46.2806</ele>
        <time>2014-06-27T08:43:29Z</time>
      </trkpt>
      <trkpt lat="59.9807611" lon="17.7386672">
        <ele>44.8386</ele>
        <time>2014-06-27T08:43:30Z</time>
      </trkpt>
      <trkpt lat="59.9807802" lon="17.7386576">
        <ele>45.7999</ele>
        <time>2014-06-27T08:43:31Z</time>
      </trkpt>
      <trkpt lat="59.9807988" lon="17.7386538">
        <ele>46.7612</ele>
        <time>2014-06-27T08:43:32Z</time>
      </trkpt>
      <trkpt lat="59.9808201" lon="17.7386512">
        <ele>47.2418</ele>
        <time>2014-06-27T08:43:33Z</time>
      </trkpt>
      <trkpt lat="59.9808321" lon="17.7386498">
        <ele>47.2418</ele>
        <time>2014-06-27T08:43:34Z</time>
      </trkpt>
      <trkpt lat="59.9808422" lon="17.7386458">
        <ele>46.7612</ele>
        <time>2014-06-27T08:43:35Z</time>
      </trkpt>
      <trkpt lat="59.9808608" lon="17.738638">
        <ele>46.7612</ele>
        <time>2014-06-27T08:43:36Z</time>
      </trkpt>
      <trkpt lat="59.9808759" lon="17.7386279">
        <ele>46.7612</ele>
        <time>2014-06-27T08:43:37Z</time>
      </trkpt>
      <trkpt lat="59.9808906" lon="17.738615">
        <ele>46.2806</ele>
        <time>2014-06-27T08:43:38Z</time>
      </trkpt>
      <trkpt lat="59.9809165" lon="17.7386067">
        <ele>47.2418</ele>
        <time>2014-06-27T08:43:39Z</time>
      </trkpt>
      <trkpt lat="59.9809334" lon="17.7386037">
        <ele>47.2418</ele>
        <time>2014-06-27T08:43:40Z</time>
      </trkpt>
      <trkpt lat="59.980953" lon="17.7386">
        <ele>47.7225</ele>
        <time>2014-06-27T08:43:41Z</time>
      </trkpt>
      <trkpt lat="59.9809688" lon="17.7385932">
        <ele>47.7225</ele>
        <time>2014-06-27T08:43:42Z</time>
      </trkpt>
      <trkpt lat="59.9809952" lon="17.7385914">
        <ele>49.6453</ele>
        <time>2014-06-27T08:43:43Z</time>
      </trkpt>
      <trkpt lat="59.9810081" lon="17.7385914">
        <ele>50.126</ele>
        <time>2014-06-27T08:43:44Z</time>
      </trkpt>
      <trkpt lat="59.9810179" lon="17.7385891">
        <ele>49.1646</ele>
        <time>2014-06-27T08:43:45Z</time>
      </trkpt>
      <trkpt lat="59.9810341" lon="17.7385815">
        <ele>49.1646</ele>
        <time>2014-06-27T08:43:46Z</time>
      </trkpt>
      <trkpt lat="59.981052" lon="17.7385741">
        <ele>48.684</ele>
        <time>2014-06-27T08:43:47Z</time>
      </trkpt>
      <trkpt lat="59.981065" lon="17.7385696">
        <ele>47.7225</ele>
        <time>2014-06-27T08:43:48Z</time>
      </trkpt>
      <trkpt lat="59.9810765" lon="17.7385634">
        <ele>47.2418</ele>
        <time>2014-06-27T08:43:49Z</time>
      </trkpt>
      <trkpt lat="59.9810923" lon="17.738559">
        <ele>47.2418</ele>
        <time>2014-06-27T08:43:50Z</time>
      </trkpt>
      <trkpt lat="59.9811008" lon="17.7385579">
        <ele>45.7999</ele>
        <time>2014-06-27T08:43:51Z</time>
      </trkpt>
      <trkpt lat="59.9811195" lon="17.7385576">
        <ele>46.7612</ele>
        <time>2014-06-27T08:43:52Z</time>
      </trkpt>
      <trkpt lat="59.9811353" lon="17.7385524">
        <ele>46.2806</ele>
        <time>2014-06-27T08:43:53Z</time>
      </trkpt>
      <trkpt lat="59.9811479" lon="17.7385524">
        <ele>45.7999</ele>
        <time>2014-06-27T08:43:54Z</time>
      </trkpt>
      <trkpt lat="59.9811651" lon="17.73855">
        <ele>45.3192</ele>
        <time>2014-06-27T08:43:55Z</time>
      </trkpt>
      <trkpt lat="59.9811764" lon="17.7385514">
        <ele>45.3192</ele>
        <time>2014-06-27T08:43:56Z</time>
      </trkpt>
      <trkpt lat="59.9811911" lon="17.7385403">
        <ele>45.3192</ele>
        <time>2014-06-27T08:43:57Z</time>
      </trkpt>
      <trkpt lat="59.9812047" lon="17.7385292">
        <ele>44.8386</ele>
        <time>2014-06-27T08:43:58Z</time>
      </trkpt>
      <trkpt lat="59.9812198" lon="17.7385167">
        <ele>44.8386</ele>
        <time>2014-06-27T08:43:59Z</time>
      </trkpt>
      <trkpt lat="59.9812365" lon="17.7385058">
        <ele>44.8386</ele>
        <time>2014-06-27T08:44:00Z</time>
      </trkpt>
      <trkpt lat="59.9812522" lon="17.7385079">
        <ele>44.8386</ele>
        <time>2014-06-27T08:44:01Z</time>
      </trkpt>
      <trkpt lat="59.9812666" lon="17.7385079">
        <ele>44.358</ele>
        <time>2014-06-27T08:44:02Z</time>
      </trkpt>
      <trkpt lat="59.9812779" lon="17.7385079">
        <ele>44.358</ele>
        <time>2014-06-27T08:44:03Z</time>
      </trkpt>
      <trkpt lat="59.9812892" lon="17.7385032">
        <ele>43.8773</ele>
        <time>2014-06-27T08:44:04Z</time>
      </trkpt>
      <trkpt lat="59.981303" lon="17.7385035">
        <ele>43.8773</ele>
        <time>2014-06-27T08:44:05Z</time>
      </trkpt>
      <trkpt lat="59.9813282" lon="17.7385016">
        <ele>45.3192</ele>
        <time>2014-06-27T08:44:06Z</time>
      </trkpt>
      <trkpt lat="59.9813464" lon="17.7385023">
        <ele>45.7999</ele>
        <time>2014-06-27T08:44:07Z</time>
      </trkpt>
      <trkpt lat="59.9813672" lon="17.7384868">
        <ele>46.2806</ele>
        <time>2014-06-27T08:44:08Z</time>
      </trkpt>
      <trkpt lat="59.9813841" lon="17.7384818">
        <ele>47.2418</ele>
        <time>2014-06-27T08:44:09Z</time>
      </trkpt>
      <trkpt lat="59.9814044" lon="17.7384819">
        <ele>48.2034</ele>
        <time>2014-06-27T08:44:10Z</time>
      </trkpt>
      <trkpt lat="59.9814242" lon="17.7384789">
        <ele>49.6453</ele>
        <time>2014-06-27T08:44:11Z</time>
      </trkpt>
      <trkpt lat="59.9814464" lon="17.7384763">
        <ele>51.0872</ele>
        <time>2014-06-27T08:44:12Z</time>
      </trkpt>
      <trkpt lat="59.9814667" lon="17.7384737">
        <ele>52.0486</ele>
        <time>2014-06-27T08:44:13Z</time>
      </trkpt>
      <trkpt lat="59.9814819" lon="17.7384699">
        <ele>52.5292</ele>
        <time>2014-06-27T08:44:14Z</time>
      </trkpt>
      <trkpt lat="59.9814991" lon="17.738475">
        <ele>53.4905</ele>
        <time>2014-06-27T08:44:15Z</time>
      </trkpt>
      <trkpt lat="59.9815126" lon="17.738475">
        <ele>53.0098</ele>
        <time>2014-06-27T08:44:16Z</time>
      </trkpt>
      <trkpt lat="59.9815303" lon="17.738472">
        <ele>53.0098</ele>
        <time>2014-06-27T08:44:17Z</time>
      </trkpt>
      <trkpt lat="59.9815407" lon="17.7384654">
        <ele>53.0098</ele>
        <time>2014-06-27T08:44:18Z</time>
      </trkpt>
      <trkpt lat="59.9815489" lon="17.7384576">
        <ele>52.0486</ele>
        <time>2014-06-27T08:44:19Z</time>
      </trkpt>
      <trkpt lat="59.9815577" lon="17.7384554">
        <ele>51.5679</ele>
        <time>2014-06-27T08:44:20Z</time>
      </trkpt>
      <trkpt lat="59.9815702" lon="17.7384499">
        <ele>51.0872</ele>
        <time>2014-06-27T08:44:21Z</time>
      </trkpt>
      <trkpt lat="59.9815817" lon="17.7384398">
        <ele>50.6066</ele>
        <time>2014-06-27T08:44:22Z</time>
      </trkpt>
      <trkpt lat="59.9815961" lon="17.7384307">
        <ele>50.126</ele>
        <time>2014-06-27T08:44:23Z</time>
      </trkpt>
      <trkpt lat="59.9816109" lon="17.7384239">
        <ele>49.6453</ele>
        <time>2014-06-27T08:44:24Z</time>
      </trkpt>
      <trkpt lat="59.9816288" lon="17.7384058">
        <ele>48.684</ele>
        <time>2014-06-27T08:44:25Z</time>
      </trkpt>
      <trkpt lat="59.981644" lon="17.7383922">
        <ele>48.2034</ele>
        <time>2014-06-27T08:44:26Z</time>
      </trkpt>
      <trkpt lat="59.9816648" lon="17.738385">
        <ele>48.684</ele>
        <time>2014-06-27T08:44:27Z</time>
      </trkpt>
      <trkpt lat="59.98168" lon="17.7383711">
        <ele>49.1646</ele>
        <time>2014-06-27T08:44:28Z</time>
      </trkpt>
      <trkpt lat="59.9816943" lon="17.7383602">
        <ele>49.6453</ele>
        <time>2014-06-27T08:44:29Z</time>
      </trkpt>
      <trkpt lat="59.9817111" lon="17.738353">
        <ele>50.126</ele>
        <time>2014-06-27T08:44:30Z</time>
      </trkpt>
      <trkpt lat="59.9817313" lon="17.7383459">
        <ele>50.6066</ele>
        <time>2014-06-27T08:44:31Z</time>
      </trkpt>
      <trkpt lat="59.9817512" lon="17.7383383">
        <ele>51.0872</ele>
        <time>2014-06-27T08:44:32Z</time>
      </trkpt>
      <trkpt lat="59.9817649" lon="17.7383287">
        <ele>51.0872</ele>
        <time>2014-06-27T08:44:33Z</time>
      </trkpt>
      <trkpt lat="59.9817782" lon="17.7383244">
        <ele>51.0872</ele>
        <time>2014-06-27T08:44:34Z</time>
      </trkpt>
      <trkpt lat="59.9817915" lon="17.7383217">
        <ele>50.6066</ele>
        <time>2014-06-27T08:44:35Z</time>
      </trkpt>
      <trkpt lat="59.9818119" lon="17.7383151">
        <ele>51.0872</ele>
        <time>2014-06-27T08:44:36Z</time>
      </trkpt>
      <trkpt lat="59.9818316" lon="17.7383085">
        <ele>52.0486</ele>
        <time>2014-06-27T08:44:37Z</time>
      </trkpt>
      <trkpt lat="59.9818431" lon="17.7383012">
        <ele>52.0486</ele>
        <time>2014-06-27T08:44:38Z</time>
      </trkpt>
      <trkpt lat="59.9818552" lon="17.7382955">
        <ele>52.5292</ele>
        <time>2014-06-27T08:44:39Z</time>
      </trkpt>
      <trkpt lat="59.9818711" lon="17.7382912">
        <ele>53.0098</ele>
        <time>2014-06-27T08:44:40Z</time>
      </trkpt>
      <trkpt lat="59.9818856" lon="17.7382846">
        <ele>53.0098</ele>
        <time>2014-06-27T08:44:41Z</time>
      </trkpt>
      <trkpt lat="59.9818994" lon="17.7382806">
        <ele>53.4905</ele>
        <time>2014-06-27T08:44:42Z</time>
      </trkpt>
      <trkpt lat="59.9819188" lon="17.7382674">
        <ele>53.4905</ele>
        <time>2014-06-27T08:44:43Z</time>
      </trkpt>
      <trkpt lat="59.9819353" lon="17.7382564">
        <ele>53.9712</ele>
        <time>2014-06-27T08:44:44Z</time>
      </trkpt>
      <trkpt lat="59.9819473" lon="17.7382431">
        <ele>53.4905</ele>
        <time>2014-06-27T08:44:45Z</time>
      </trkpt>
      <trkpt lat="59.981959" lon="17.7382364">
        <ele>53.4905</ele>
        <time>2014-06-27T08:44:46Z</time>
      </trkpt>
      <trkpt lat="59.9819741" lon="17.7382286">
        <ele>53.9712</ele>
        <time>2014-06-27T08:44:47Z</time>
      </trkpt>
      <trkpt lat="59.9819887" lon="17.7382192">
        <ele>53.9712</ele>
        <time>2014-06-27T08:44:48Z</time>
      </trkpt>
      <trkpt lat="59.9820037" lon="17.7382029">
        <ele>53.9712</ele>
        <time>2014-06-27T08:44:49Z</time>
      </trkpt>
      <trkpt lat="59.9820207" lon="17.7381934">
        <ele>54.4518</ele>
        <time>2014-06-27T08:44:50Z</time>
      </trkpt>
      <trkpt lat="59.9820382" lon="17.7381794">
        <ele>54.4518</ele>
        <time>2014-06-27T08:44:51Z</time>
      </trkpt>
      <trkpt lat="59.9820529" lon="17.738165">
        <ele>54.4518</ele>
        <time>2014-06-27T08:44:52Z</time>
      </trkpt>
      <trkpt lat="59.982068" lon="17.7381536">
        <ele>54.4518</ele>
        <time>2014-06-27T08:44:53Z</time>
      </trkpt>
      <trkpt lat="59.982082" lon="17.7381432">
        <ele>54.4518</ele>
        <time>2014-06-27T08:44:54Z</time>
      </trkpt>
      <trkpt lat="59.9820959" lon="17.7381335">
        <ele>53.9712</ele>
        <time>2014-06-27T08:44:55Z</time>
      </trkpt>
      <trkpt lat="59.9821149" lon="17.7381086">
        <ele>53.0098</ele>
        <time>2014-06-27T08:44:56Z</time>
      </trkpt>
      <trkpt lat="59.9821337" lon="17.73811">
        <ele>53.9712</ele>
        <time>2014-06-27T08:44:57Z</time>
      </trkpt>
      <trkpt lat="59.9821487" lon="17.7381034">
        <ele>53.4905</ele>
        <time>2014-06-27T08:44:58Z</time>
      </trkpt>
      <trkpt lat="59.9821652" lon="17.7381042">
        <ele>53.0098</ele>
        <time>2014-06-27T08:44:59Z</time>
      </trkpt>
      <trkpt lat="59.9821844" lon="17.738105">
        <ele>53.0098</ele>
        <time>2014-06-27T08:45:00Z</time>
      </trkpt>
      <trkpt lat="59.9822068" lon="17.7381011">
        <ele>53.0098</ele>
        <time>2014-06-27T08:45:01Z</time>
      </trkpt>
      <trkpt lat="59.9822259" lon="17.738095">
        <ele>53.0098</ele>
        <time>2014-06-27T08:45:02Z</time>
      </trkpt>
      <trkpt lat="59.9822462" lon="17.7380862">
        <ele>52.5292</ele>
        <time>2014-06-27T08:45:03Z</time>
      </trkpt>
      <trkpt lat="59.9822719" lon="17.7380843">
        <ele>53.9712</ele>
        <time>2014-06-27T08:45:04Z</time>
      </trkpt>
      <trkpt lat="59.9822937" lon="17.7380748">
        <ele>53.9712</ele>
        <time>2014-06-27T08:45:05Z</time>
      </trkpt>
      <trkpt lat="59.9823113" lon="17.7380705">
        <ele>54.4518</ele>
        <time>2014-06-27T08:45:06Z</time>
      </trkpt>
      <trkpt lat="59.9823202" lon="17.738066">
        <ele>53.9712</ele>
        <time>2014-06-27T08:45:07Z</time>
      </trkpt>
      <trkpt lat="59.9823294" lon="17.7380613">
        <ele>53.4905</ele>
        <time>2014-06-27T08:45:08Z</time>
      </trkpt>
      <trkpt lat="59.982344" lon="17.7380602">
        <ele>53.4905</ele>
        <time>2014-06-27T08:45:09Z</time>
      </trkpt>
      <trkpt lat="59.9823587" lon="17.7380535">
        <ele>53.4905</ele>
        <time>2014-06-27T08:45:10Z</time>
      </trkpt>
      <trkpt lat="59.9823767" lon="17.7380463">
        <ele>52.5292</ele>
        <time>2014-06-27T08:45:11Z</time>
      </trkpt>
      <trkpt lat="59.9824015" lon="17.7380381">
        <ele>53.0098</ele>
        <time>2014-06-27T08:45:12Z</time>
      </trkpt>
      <trkpt lat="59.9824316" lon="17.7380292">
        <ele>54.4518</ele>
        <time>2014-06-27T08:45:13Z</time>
      </trkpt>
      <trkpt lat="59.982455" lon="17.7380215">
        <ele>54.4518</ele>
        <time>2014-06-27T08:45:14Z</time>
      </trkpt>
      <trkpt lat="59.9824735" lon="17.7380157">
        <ele>53.9712</ele>
        <time>2014-06-27T08:45:15Z</time>
      </trkpt>
      <trkpt lat="59.982487" lon="17.7380131">
        <ele>53.9712</ele>
        <time>2014-06-27T08:45:16Z</time>
      </trkpt>
      <trkpt lat="59.9825008" lon="17.7380146">
        <ele>53.4905</ele>
        <time>2014-06-27T08:45:17Z</time>
      </trkpt>
      <trkpt lat="59.9825135" lon="17.7380303">
        <ele>53.9712</ele>
        <time>2014-06-27T08:45:18Z</time>
      </trkpt>
      <trkpt lat="59.9825211" lon="17.7380343">
        <ele>53.9712</ele>
        <time>2014-06-27T08:45:19Z</time>
      </trkpt>
      <trkpt lat="59.9825316" lon="17.7380375">
        <ele>53.9712</ele>
        <time>2014-06-27T08:45:20Z</time>
      </trkpt>
      <trkpt lat="59.9825475" lon="17.7380379">
        <ele>53.4905</ele>
        <time>2014-06-27T08:45:21Z</time>
      </trkpt>
      <trkpt lat="59.982555" lon="17.7380453">
        <ele>53.0098</ele>
        <time>2014-06-27T08:45:22Z</time>
      </trkpt>
      <trkpt lat="59.9825725" lon="17.7380518">
        <ele>53.0098</ele>
        <time>2014-06-27T08:45:23Z</time>
      </trkpt>
      <trkpt lat="59.9825858" lon="17.7380516">
        <ele>52.5292</ele>
        <time>2014-06-27T08:45:24Z</time>
      </trkpt>
      <trkpt lat="59.9826047" lon="17.7380489">
        <ele>51.5679</ele>
        <time>2014-06-27T08:45:25Z</time>
      </trkpt>
      <trkpt lat="59.9826253" lon="17.7380487">
        <ele>51.0872</ele>
        <time>2014-06-27T08:45:26Z</time>
      </trkpt>
      <trkpt lat="59.9826459" lon="17.7380467">
        <ele>51.0872</ele>
        <time>2014-06-27T08:45:27Z</time>
      </trkpt>
      <trkpt lat="59.9826622" lon="17.7380422">
        <ele>50.6066</ele>
        <time>2014-06-27T08:45:28Z</time>
      </trkpt>
      <trkpt lat="59.982679" lon="17.7380349">
        <ele>50.126</ele>
        <time>2014-06-27T08:45:29Z</time>
      </trkpt>
      <trkpt lat="59.9826973" lon="17.7380242">
        <ele>49.1646</ele>
        <time>2014-06-27T08:45:30Z</time>
      </trkpt>
      <trkpt lat="59.9827145" lon="17.7380215">
        <ele>47.7225</ele>
        <time>2014-06-27T08:45:31Z</time>
      </trkpt>
      <trkpt lat="59.9827329" lon="17.7380214">
        <ele>47.2418</ele>
        <time>2014-06-27T08:45:32Z</time>
      </trkpt>
      <trkpt lat="59.9827531" lon="17.738021">
        <ele>46.7612</ele>
        <time>2014-06-27T08:45:33Z</time>
      </trkpt>
      <trkpt lat="59.9827769" lon="17.7380349">
        <ele>48.2034</ele>
        <time>2014-06-27T08:45:34Z</time>
      </trkpt>
      <trkpt lat="59.9827994" lon="17.7380571">
        <ele>50.126</ele>
        <time>2014-06-27T08:45:35Z</time>
      </trkpt>
      <trkpt lat="59.982822" lon="17.7380741">
        <ele>51.0872</ele>
        <time>2014-06-27T08:45:36Z</time>
      </trkpt>
      <trkpt lat="59.9828381" lon="17.7380933">
        <ele>51.5679</ele>
        <time>2014-06-27T08:45:37Z</time>
      </trkpt>
      <trkpt lat="59.9828613" lon="17.7381007">
        <ele>53.4905</ele>
        <time>2014-06-27T08:45:38Z</time>
      </trkpt>
      <trkpt lat="59.9828816" lon="17.7381116">
        <ele>54.4518</ele>
        <time>2014-06-27T08:45:39Z</time>
      </trkpt>
      <trkpt lat="59.9828969" lon="17.7381216">
        <ele>53.4905</ele>
        <time>2014-06-27T08:45:40Z</time>
      </trkpt>
      <trkpt lat="59.9829158" lon="17.7381374">
        <ele>54.4518</ele>
        <time>2014-06-27T08:45:41Z</time>
      </trkpt>
      <trkpt lat="59.9829274" lon="17.7381371">
        <ele>54.9324</ele>
        <time>2014-06-27T08:45:42Z</time>
      </trkpt>
      <trkpt lat="59.9829399" lon="17.7381414">
        <ele>55.8938</ele>
        <time>2014-06-27T08:45:43Z</time>
      </trkpt>
      <trkpt lat="59.9829532" lon="17.738152">
        <ele>55.8938</ele>
        <time>2014-06-27T08:45:44Z</time>
      </trkpt>
      <trkpt lat="59.9829687" lon="17.7381609">
        <ele>55.8938</ele>
        <time>2014-06-27T08:45:45Z</time>
      </trkpt>
      <trkpt lat="59.9829901" lon="17.7381617">
        <ele>55.8938</ele>
        <time>2014-06-27T08:45:46Z</time>
      </trkpt>
      <trkpt lat="59.9830014" lon="17.7381635">
        <ele>54.9324</ele>
        <time>2014-06-27T08:45:47Z</time>
      </trkpt>
      <trkpt lat="59.9830149" lon="17.7381707">
        <ele>55.4131</ele>
        <time>2014-06-27T08:45:48Z</time>
      </trkpt>
      <trkpt lat="59.9830273" lon="17.738173">
        <ele>55.8938</ele>
        <time>2014-06-27T08:45:49Z</time>
      </trkpt>
      <trkpt lat="59.9830469" lon="17.7381623">
        <ele>55.4131</ele>
        <time>2014-06-27T08:45:50Z</time>
      </trkpt>
      <trkpt lat="59.9830656" lon="17.738155">
        <ele>55.4131</ele>
        <time>2014-06-27T08:45:51Z</time>
      </trkpt>
      <trkpt lat="59.983075" lon="17.738149">
        <ele>54.9324</ele>
        <time>2014-06-27T08:45:52Z</time>
      </trkpt>
      <trkpt lat="59.9830849" lon="17.7381472">
        <ele>54.4518</ele>
        <time>2014-06-27T08:45:53Z</time>
      </trkpt>
      <trkpt lat="59.9831022" lon="17.7381463">
        <ele>54.9324</ele>
        <time>2014-06-27T08:45:54Z</time>
      </trkpt>
      <trkpt lat="59.9831122" lon="17.7381374">
        <ele>53.9712</ele>
        <time>2014-06-27T08:45:55Z</time>
      </trkpt>
      <trkpt lat="59.983118" lon="17.7381409">
        <ele>53.4905</ele>
        <time>2014-06-27T08:45:56Z</time>
      </trkpt>
      <trkpt lat="59.9831305" lon="17.7381404">
        <ele>53.0098</ele>
        <time>2014-06-27T08:45:57Z</time>
      </trkpt>
      <trkpt lat="59.9831454" lon="17.7381449">
        <ele>52.5292</ele>
        <time>2014-06-27T08:45:58Z</time>
      </trkpt>
      <trkpt lat="59.9831651" lon="17.7381427">
        <ele>53.4905</ele>
        <time>2014-06-27T08:45:59Z</time>
      </trkpt>
      <trkpt lat="59.9831786" lon="17.7381426">
        <ele>53.4905</ele>
        <time>2014-06-27T08:46:00Z</time>
      </trkpt>
      <trkpt lat="59.9832009" lon="17.7381396">
        <ele>54.4518</ele>
        <time>2014-06-27T08:46:01Z</time>
      </trkpt>
      <trkpt lat="59.9832216" lon="17.7381318">
        <ele>54.9324</ele>
        <time>2014-06-27T08:46:02Z</time>
      </trkpt>
      <trkpt lat="59.983237" lon="17.7381303">
        <ele>54.4518</ele>
        <time>2014-06-27T08:46:03Z</time>
      </trkpt>
      <trkpt lat="59.9832516" lon="17.73813">
        <ele>53.9712</ele>
        <time>2014-06-27T08:46:04Z</time>
      </trkpt>
      <trkpt lat="59.9832815" lon="17.7381228">
        <ele>54.9324</ele>
        <time>2014-06-27T08:46:05Z</time>
      </trkpt>
      <trkpt lat="59.9832966" lon="17.7381102">
        <ele>54.9324</ele>
        <time>2014-06-27T08:46:06Z</time>
      </trkpt>
      <trkpt lat="59.9833094" lon="17.7381013">
        <ele>54.4518</ele>
        <time>2014-06-27T08:46:07Z</time>
      </trkpt>
      <trkpt lat="59.983326" lon="17.738095">
        <ele>53.9712</ele>
        <time>2014-06-27T08:46:08Z</time>
      </trkpt>
      <trkpt lat="59.9833434" lon="17.7380887">
        <ele>53.9712</ele>
        <time>2014-06-27T08:46:09Z</time>
      </trkpt>
      <trkpt lat="59.9833595" lon="17.7380815">
        <ele>53.9712</ele>
        <time>2014-06-27T08:46:10Z</time>
      </trkpt>
      <trkpt lat="59.9833737" lon="17.7380769">
        <ele>53.4905</ele>
        <time>2014-06-27T08:46:11Z</time>
      </trkpt>
      <trkpt lat="59.9833828" lon="17.7380747">
        <ele>53.0098</ele>
        <time>2014-06-27T08:46:12Z</time>
      </trkpt>
      <trkpt lat="59.9833961" lon="17.738068">
        <ele>52.5292</ele>
        <time>2014-06-27T08:46:13Z</time>
      </trkpt>
      <trkpt lat="59.9834138" lon="17.7380672">
        <ele>53.4905</ele>
        <time>2014-06-27T08:46:14Z</time>
      </trkpt>
      <trkpt lat="59.9834318" lon="17.7380676">
        <ele>53.9712</ele>
        <time>2014-06-27T08:46:15Z</time>
      </trkpt>
      <trkpt lat="59.9834527" lon="17.7380672">
        <ele>54.4518</ele>
        <time>2014-06-27T08:46:16Z</time>
      </trkpt>
      <trkpt lat="59.9834651" lon="17.7380694">
        <ele>53.9712</ele>
        <time>2014-06-27T08:46:17Z</time>
      </trkpt>
      <trkpt lat="59.9834721" lon="17.7380821">
        <ele>53.9712</ele>
        <time>2014-06-27T08:46:18Z</time>
      </trkpt>
      <trkpt lat="59.9834801" lon="17.7380839">
        <ele>53.0098</ele>
        <time>2014-06-27T08:46:19Z</time>
      </trkpt>
      <trkpt lat="59.9834938" lon="17.7380799">
        <ele>52.5292</ele>
        <time>2014-06-27T08:46:20Z</time>
      </trkpt>
      <trkpt lat="59.9835101" lon="17.7380712">
        <ele>52.0486</ele>
        <time>2014-06-27T08:46:21Z</time>
      </trkpt>
      <trkpt lat="59.9835236" lon="17.7380614">
        <ele>51.5679</ele>
        <time>2014-06-27T08:46:22Z</time>
      </trkpt>
      <trkpt lat="59.9835311" lon="17.7380523">
        <ele>50.126</ele>
        <time>2014-06-27T08:46:23Z</time>
      </trkpt>
      <trkpt lat="59.9835382" lon="17.7380504">
        <ele>49.1646</ele>
        <time>2014-06-27T08:46:24Z</time>
      </trkpt>
      <trkpt lat="59.9835608" lon="17.7380562">
        <ele>50.6066</ele>
        <time>2014-06-27T08:46:25Z</time>
      </trkpt>
      <trkpt lat="59.983581" lon="17.7380622">
        <ele>52.5292</ele>
        <time>2014-06-27T08:46:26Z</time>
      </trkpt>
      <trkpt lat="59.9835914" lon="17.7380624">
        <ele>53.0098</ele>
        <time>2014-06-27T08:46:27Z</time>
      </trkpt>
      <trkpt lat="59.983625" lon="17.7380587">
        <ele>54.9324</ele>
        <time>2014-06-27T08:46:28Z</time>
      </trkpt>
      <trkpt lat="59.9836542" lon="17.7380552">
        <ele>56.8551</ele>
        <time>2014-06-27T08:46:29Z</time>
      </trkpt>
      <trkpt lat="59.9836759" lon="17.7380549">
        <ele>57.8165</ele>
        <time>2014-06-27T08:46:30Z</time>
      </trkpt>
      <trkpt lat="59.9837" lon="17.7380552">
        <ele>59.7391</ele>
        <time>2014-06-27T08:46:31Z</time>
      </trkpt>
      <trkpt lat="59.9837348" lon="17.7380534">
        <ele>61.6617</ele>
        <time>2014-06-27T08:46:32Z</time>
      </trkpt>
      <trkpt lat="59.9837572" lon="17.7380437">
        <ele>61.181</ele>
        <time>2014-06-27T08:46:33Z</time>
      </trkpt>
      <trkpt lat="59.98377" lon="17.7380461">
        <ele>61.181</ele>
        <time>2014-06-27T08:46:34Z</time>
      </trkpt>
      <trkpt lat="59.9837837" lon="17.7380431">
        <ele>60.7003</ele>
        <time>2014-06-27T08:46:35Z</time>
      </trkpt>
      <trkpt lat="59.9837981" lon="17.7380423">
        <ele>60.2197</ele>
        <time>2014-06-27T08:46:36Z</time>
      </trkpt>
      <trkpt lat="59.9838179" lon="17.7380356">
        <ele>60.2197</ele>
        <time>2014-06-27T08:46:37Z</time>
      </trkpt>
      <trkpt lat="59.9838383" lon="17.738028">
        <ele>60.2197</ele>
        <time>2014-06-27T08:46:38Z</time>
      </trkpt>
      <trkpt lat="59.9838542" lon="17.7380173">
        <ele>59.2584</ele>
        <time>2014-06-27T08:46:39Z</time>
      </trkpt>
      <trkpt lat="59.9838727" lon="17.7380018">
        <ele>58.7777</ele>
        <time>2014-06-27T08:46:40Z</time>
      </trkpt>
      <trkpt lat="59.9838887" lon="17.7379904">
        <ele>58.7777</ele>
        <time>2014-06-27T08:46:41Z</time>
      </trkpt>
      <trkpt lat="59.9839023" lon="17.7379856">
        <ele>58.7777</ele>
        <time>2014-06-27T08:46:42Z</time>
      </trkpt>
      <trkpt lat="59.983915" lon="17.7379899">
        <ele>58.7777</ele>
        <time>2014-06-27T08:46:43Z</time>
      </trkpt>
      <trkpt lat="59.9839312" lon="17.7379812">
        <ele>58.2971</ele>
        <time>2014-06-27T08:46:44Z</time>
      </trkpt>
      <trkpt lat="59.9839442" lon="17.7379701">
        <ele>56.8551</ele>
        <time>2014-06-27T08:46:45Z</time>
      </trkpt>
      <trkpt lat="59.9839566" lon="17.7379648">
        <ele>54.4518</ele>
        <time>2014-06-27T08:46:46Z</time>
      </trkpt>
      <trkpt lat="59.9839701" lon="17.7379659">
        <ele>53.4905</ele>
        <time>2014-06-27T08:46:47Z</time>
      </trkpt>
      <trkpt lat="59.9839832" lon="17.7379641">
        <ele>53.0098</ele>
        <time>2014-06-27T08:46:48Z</time>
      </trkpt>
      <trkpt lat="59.9839943" lon="17.7379522">
        <ele>51.5679</ele>
        <time>2014-06-27T08:46:49Z</time>
      </trkpt>
      <trkpt lat="59.9840037" lon="17.7379468">
        <ele>50.6066</ele>
        <time>2014-06-27T08:46:50Z</time>
      </trkpt>
      <trkpt lat="59.9840152" lon="17.7379417">
        <ele>49.1646</ele>
        <time>2014-06-27T08:46:51Z</time>
      </trkpt>
      <trkpt lat="59.9840296" lon="17.7379427">
        <ele>48.2034</ele>
        <time>2014-06-27T08:46:52Z</time>
      </trkpt>
      <trkpt lat="59.9840411" lon="17.7379442">
        <ele>46.7612</ele>
        <time>2014-06-27T08:46:53Z</time>
      </trkpt>
      <trkpt lat="59.9840531" lon="17.7379469">
        <ele>45.3192</ele>
        <time>2014-06-27T08:46:54Z</time>
      </trkpt>
      <trkpt lat="59.9840659" lon="17.7379415">
        <ele>43.3966</ele>
        <time>2014-06-27T08:46:55Z</time>
      </trkpt>
      <trkpt lat="59.9840805" lon="17.7379365">
        <ele>41.9547</ele>
        <time>2014-06-27T08:46:56Z</time>
      </trkpt>
      <trkpt lat="59.9840944" lon="17.737941">
        <ele>41.9547</ele>
        <time>2014-06-27T08:46:57Z</time>
      </trkpt>
      <trkpt lat="59.9841127" lon="17.7379386">
        <ele>42.4354</ele>
        <time>2014-06-27T08:46:58Z</time>
      </trkpt>
      <trkpt lat="59.9841249" lon="17.7379433">
        <ele>41.9547</ele>
        <time>2014-06-27T08:46:59Z</time>
      </trkpt>
      <trkpt lat="59.9841427" lon="17.73794">
        <ele>41.9547</ele>
        <time>2014-06-27T08:47:00Z</time>
      </trkpt>
      <trkpt lat="59.9841591" lon="17.7379369">
        <ele>41.474</ele>
        <time>2014-06-27T08:47:01Z</time>
      </trkpt>
      <trkpt lat="59.9841707" lon="17.7379365">
        <ele>40.0321</ele>
        <time>2014-06-27T08:47:02Z</time>
      </trkpt>
      <trkpt lat="59.9841862" lon="17.7379408">
        <ele>40.0321</ele>
        <time>2014-06-27T08:47:03Z</time>
      </trkpt>
      <trkpt lat="59.9842066" lon="17.7379428">
        <ele>40.5128</ele>
        <time>2014-06-27T08:47:04Z</time>
      </trkpt>
      <trkpt lat="59.984227" lon="17.7379459">
        <ele>41.474</ele>
        <time>2014-06-27T08:47:05Z</time>
      </trkpt>
      <trkpt lat="59.9842817" lon="17.7379462">
        <ele>46.7612</ele>
        <time>2014-06-27T08:47:06Z</time>
      </trkpt>
      <trkpt lat="59.9842962" lon="17.7379433">
        <ele>47.2418</ele>
        <time>2014-06-27T08:47:07Z</time>
      </trkpt>
      <trkpt lat="59.9843092" lon="17.7379438">
        <ele>47.7225</ele>
        <time>2014-06-27T08:47:08Z</time>
      </trkpt>
      <trkpt lat="59.9843297" lon="17.7379215">
        <ele>47.7225</ele>
        <time>2014-06-27T08:47:09Z</time>
      </trkpt>
      <trkpt lat="59.9843451" lon="17.737925">
        <ele>47.2418</ele>
        <time>2014-06-27T08:47:10Z</time>
      </trkpt>
      <trkpt lat="59.9843548" lon="17.7379373">
        <ele>45.7999</ele>
        <time>2014-06-27T08:47:11Z</time>
      </trkpt>
      <trkpt lat="59.9843638" lon="17.7379488">
        <ele>44.8386</ele>
        <time>2014-06-27T08:47:12Z</time>
      </trkpt>
      <trkpt lat="59.9843797" lon="17.7379546">
        <ele>45.3192</ele>
        <time>2014-06-27T08:47:13Z</time>
      </trkpt>
      <trkpt lat="59.9843918" lon="17.7379706">
        <ele>45.7999</ele>
        <time>2014-06-27T08:47:14Z</time>
      </trkpt>
      <trkpt lat="59.984405" lon="17.7379765">
        <ele>44.8386</ele>
        <time>2014-06-27T08:47:15Z</time>
      </trkpt>
      <trkpt lat="59.9844192" lon="17.7379868">
        <ele>44.358</ele>
        <time>2014-06-27T08:47:16Z</time>
      </trkpt>
      <trkpt lat="59.9844347" lon="17.7379869">
        <ele>43.3966</ele>
        <time>2014-06-27T08:47:17Z</time>
      </trkpt>
      <trkpt lat="59.984446" lon="17.7379903">
        <ele>41.9547</ele>
        <time>2014-06-27T08:47:18Z</time>
      </trkpt>
      <trkpt lat="59.984458" lon="17.7379913">
        <ele>40.9934</ele>
        <time>2014-06-27T08:47:19Z</time>
      </trkpt>
      <trkpt lat="59.9844668" lon="17.7379976">
        <ele>40.0321</ele>
        <time>2014-06-27T08:47:20Z</time>
      </trkpt>
      <trkpt lat="59.9844777" lon="17.7380079">
        <ele>38.5901</ele>
        <time>2014-06-27T08:47:21Z</time>
      </trkpt>
      <trkpt lat="59.9844911" lon="17.7380146">
        <ele>38.1094</ele>
        <time>2014-06-27T08:47:22Z</time>
      </trkpt>
      <trkpt lat="59.984503" lon="17.73802">
        <ele>37.1481</ele>
        <time>2014-06-27T08:47:23Z</time>
      </trkpt>
      <trkpt lat="59.9845176" lon="17.7380235">
        <ele>36.6675</ele>
        <time>2014-06-27T08:47:24Z</time>
      </trkpt>
      <trkpt lat="59.984531" lon="17.7380273">
        <ele>36.1868</ele>
        <time>2014-06-27T08:47:25Z</time>
      </trkpt>
      <trkpt lat="59.9845451" lon="17.7380387">
        <ele>36.1868</ele>
        <time>2014-06-27T08:47:26Z</time>
      </trkpt>
      <trkpt lat="59.9845607" lon="17.7380463">
        <ele>36.1868</ele>
        <time>2014-06-27T08:47:27Z</time>
      </trkpt>
      <trkpt lat="59.9845772" lon="17.7380561">
        <ele>36.1868</ele>
        <time>2014-06-27T08:47:28Z</time>
      </trkpt>
      <trkpt lat="59.9845925" lon="17.7380628">
        <ele>36.6675</ele>
        <time>2014-06-27T08:47:29Z</time>
      </trkpt>
      <trkpt lat="59.9846066" lon="17.7380707">
        <ele>37.1481</ele>
        <time>2014-06-27T08:47:30Z</time>
      </trkpt>
      <trkpt lat="59.9846156" lon="17.7380788">
        <ele>36.6675</ele>
        <time>2014-06-27T08:47:31Z</time>
      </trkpt>
      <trkpt lat="59.9846267" lon="17.7380811">
        <ele>36.6675</ele>
        <time>2014-06-27T08:47:32Z</time>
      </trkpt>
      <trkpt lat="59.9846367" lon="17.7380883">
        <ele>36.1868</ele>
        <time>2014-06-27T08:47:33Z</time>
      </trkpt>
      <trkpt lat="59.9846516" lon="17.738095">
        <ele>36.6675</ele>
        <time>2014-06-27T08:47:34Z</time>
      </trkpt>
      <trkpt lat="59.9846671" lon="17.7380998">
        <ele>36.6675</ele>
        <time>2014-06-27T08:47:35Z</time>
      </trkpt>
      <trkpt lat="59.984686" lon="17.7381034">
        <ele>37.6287</ele>
        <time>2014-06-27T08:47:36Z</time>
      </trkpt>
      <trkpt lat="59.9847046" lon="17.738111">
        <ele>38.5901</ele>
        <time>2014-06-27T08:47:37Z</time>
      </trkpt>
      <trkpt lat="59.9847227" lon="17.7381145">
        <ele>38.5901</ele>
        <time>2014-06-27T08:47:38Z</time>
      </trkpt>
      <trkpt lat="59.9847415" lon="17.7381251">
        <ele>39.5513</ele>
        <time>2014-06-27T08:47:39Z</time>
      </trkpt>
      <trkpt lat="59.9847694" lon="17.7381214">
        <ele>40.9934</ele>
        <time>2014-06-27T08:47:40Z</time>
      </trkpt>
      <trkpt lat="59.9847834" lon="17.7381166">
        <ele>40.0321</ele>
        <time>2014-06-27T08:47:41Z</time>
      </trkpt>
      <trkpt lat="59.9848019" lon="17.7381193">
        <ele>39.5513</ele>
        <time>2014-06-27T08:47:42Z</time>
      </trkpt>
      <trkpt lat="59.9848212" lon="17.7381264">
        <ele>39.5513</ele>
        <time>2014-06-27T08:47:43Z</time>
      </trkpt>
      <trkpt lat="59.9848393" lon="17.7381363">
        <ele>39.0707</ele>
        <time>2014-06-27T08:47:44Z</time>
      </trkpt>
      <trkpt lat="59.9848531" lon="17.7381436">
        <ele>39.0707</ele>
        <time>2014-06-27T08:47:45Z</time>
      </trkpt>
      <trkpt lat="59.9848684" lon="17.738151">
        <ele>39.0707</ele>
        <time>2014-06-27T08:47:46Z</time>
      </trkpt>
      <trkpt lat="59.9848869" lon="17.7381583">
        <ele>39.5513</ele>
        <time>2014-06-27T08:47:47Z</time>
      </trkpt>
      <trkpt lat="59.9849067" lon="17.7381681">
        <ele>40.0321</ele>
        <time>2014-06-27T08:47:48Z</time>
      </trkpt>
      <trkpt lat="59.9849242" lon="17.7381676">
        <ele>40.5128</ele>
        <time>2014-06-27T08:47:49Z</time>
      </trkpt>
      <trkpt lat="59.984945" lon="17.7381646">
        <ele>40.9934</ele>
        <time>2014-06-27T08:47:50Z</time>
      </trkpt>
      <trkpt lat="59.984965" lon="17.7381695">
        <ele>41.474</ele>
        <time>2014-06-27T08:47:51Z</time>
      </trkpt>
      <trkpt lat="59.9849853" lon="17.7381664">
        <ele>41.9547</ele>
        <time>2014-06-27T08:47:52Z</time>
      </trkpt>
      <trkpt lat="59.9850175" lon="17.7381547">
        <ele>44.358</ele>
        <time>2014-06-27T08:47:53Z</time>
      </trkpt>
      <trkpt lat="59.9850367" lon="17.7381537">
        <ele>44.8386</ele>
        <time>2014-06-27T08:47:54Z</time>
      </trkpt>
      <trkpt lat="59.9850553" lon="17.7381545">
        <ele>45.3192</ele>
        <time>2014-06-27T08:47:55Z</time>
      </trkpt>
      <trkpt lat="59.9850714" lon="17.7381592">
        <ele>45.3192</ele>
        <time>2014-06-27T08:47:56Z</time>
      </trkpt>
      <trkpt lat="59.9850867" lon="17.7381624">
        <ele>45.3192</ele>
        <time>2014-06-27T08:47:57Z</time>
      </trkpt>
      <trkpt lat="59.9851014" lon="17.738166">
        <ele>45.3192</ele>
        <time>2014-06-27T08:47:58Z</time>
      </trkpt>
      <trkpt lat="59.9851217" lon="17.7381713">
        <ele>46.2806</ele>
        <time>2014-06-27T08:47:59Z</time>
      </trkpt>
      <trkpt lat="59.9851392" lon="17.7381743">
        <ele>46.7612</ele>
        <time>2014-06-27T08:48:00Z</time>
      </trkpt>
      <trkpt lat="59.9851578" lon="17.7381794">
        <ele>46.7612</ele>
        <time>2014-06-27T08:48:01Z</time>
      </trkpt>
      <trkpt lat="59.9851815" lon="17.7381831">
        <ele>47.2418</ele>
        <time>2014-06-27T08:48:02Z</time>
      </trkpt>
      <trkpt lat="59.9852035" lon="17.7381856">
        <ele>47.2418</ele>
        <time>2014-06-27T08:48:03Z</time>
      </trkpt>
      <trkpt lat="59.9852226" lon="17.7381844">
        <ele>46.7612</ele>
        <time>2014-06-27T08:48:04Z</time>
      </trkpt>
      <trkpt lat="59.985239" lon="17.7381878">
        <ele>47.2418</ele>
        <time>2014-06-27T08:48:05Z</time>
      </trkpt>
      <trkpt lat="59.9852496" lon="17.7381948">
        <ele>47.2418</ele>
        <time>2014-06-27T08:48:06Z</time>
      </trkpt>
      <trkpt lat="59.98526" lon="17.7381971">
        <ele>46.7612</ele>
        <time>2014-06-27T08:48:07Z</time>
      </trkpt>
      <trkpt lat="59.9852761" lon="17.7381991">
        <ele>46.7612</ele>
        <time>2014-06-27T08:48:08Z</time>
      </trkpt>
      <trkpt lat="59.9853017" lon="17.7382013">
        <ele>47.2418</ele>
        <time>2014-06-27T08:48:09Z</time>
      </trkpt>
      <trkpt lat="59.9853266" lon="17.7382064">
        <ele>47.7225</ele>
        <time>2014-06-27T08:48:10Z</time>
      </trkpt>
      <trkpt lat="59.9853491" lon="17.7382126">
        <ele>48.684</ele>
        <time>2014-06-27T08:48:11Z</time>
      </trkpt>
      <trkpt lat="59.9853766" lon="17.7382161">
        <ele>49.6453</ele>
        <time>2014-06-27T08:48:12Z</time>
      </trkpt>
      <trkpt lat="59.9853945" lon="17.7382173">
        <ele>49.6453</ele>
        <time>2014-06-27T08:48:13Z</time>
      </trkpt>
      <trkpt lat="59.9854137" lon="17.7382083">
        <ele>49.6453</ele>
        <time>2014-06-27T08:48:14Z</time>
      </trkpt>
      <trkpt lat="59.9854328" lon="17.7381935">
        <ele>49.6453</ele>
        <time>2014-06-27T08:48:15Z</time>
      </trkpt>
      <trkpt lat="59.9854343" lon="17.7381753">
        <ele>47.7225</ele>
        <time>2014-06-27T08:48:16Z</time>
      </trkpt>
      <trkpt lat="59.9854562" lon="17.7381524">
        <ele>48.684</ele>
        <time>2014-06-27T08:48:17Z</time>
      </trkpt>
      <trkpt lat="59.9854773" lon="17.7381282">
        <ele>50.126</ele>
        <time>2014-06-27T08:48:18Z</time>
      </trkpt>
      <trkpt lat="59.9854929" lon="17.7381007">
        <ele>51.0872</ele>
        <time>2014-06-27T08:48:19Z</time>
      </trkpt>
      <trkpt lat="59.9855025" lon="17.7380726">
        <ele>51.5679</ele>
        <time>2014-06-27T08:48:20Z</time>
      </trkpt>
      <trkpt lat="59.9855038" lon="17.7380396">
        <ele>50.6066</ele>
        <time>2014-06-27T08:48:21Z</time>
      </trkpt>
      <trkpt lat="59.985513" lon="17.7380166">
        <ele>51.5679</ele>
        <time>2014-06-27T08:48:22Z</time>
      </trkpt>
      <trkpt lat="59.9855082" lon="17.7379952">
        <ele>50.6066</ele>
        <time>2014-06-27T08:48:23Z</time>
      </trkpt>
      <trkpt lat="59.9855105" lon="17.7379672">
        <ele>50.6066</ele>
        <time>2014-06-27T08:48:24Z</time>
      </trkpt>
      <trkpt lat="59.9855101" lon="17.7379286">
        <ele>50.126</ele>
        <time>2014-06-27T08:48:25Z</time>
      </trkpt>
      <trkpt lat="59.9855081" lon="17.7378949">
        <ele>49.6453</ele>
        <time>2014-06-27T08:48:26Z</time>
      </trkpt>
      <trkpt lat="59.985507" lon="17.7378628">
        <ele>49.1646</ele>
        <time>2014-06-27T08:48:27Z</time>
      </trkpt>
      <trkpt lat="59.9855081" lon="17.7378327">
        <ele>48.2034</ele>
        <time>2014-06-27T08:48:28Z</time>
      </trkpt>
      <trkpt lat="59.9855073" lon="17.7378027">
        <ele>48.2034</ele>
        <time>2014-06-27T08:48:29Z</time>
      </trkpt>
      <trkpt lat="59.9855087" lon="17.7377644">
        <ele>47.2418</ele>
        <time>2014-06-27T08:48:30Z</time>
      </trkpt>
      <trkpt lat="59.985509" lon="17.7377317">
        <ele>47.2418</ele>
        <time>2014-06-27T08:48:31Z</time>
      </trkpt>
      <trkpt lat="59.9855112" lon="17.7377002">
        <ele>46.7612</ele>
        <time>2014-06-27T08:48:32Z</time>
      </trkpt>
      <trkpt lat="59.9855167" lon="17.7376677">
        <ele>45.7999</ele>
        <time>2014-06-27T08:48:33Z</time>
      </trkpt>
      <trkpt lat="59.9855229" lon="17.737634">
        <ele>45.7999</ele>
        <time>2014-06-27T08:48:34Z</time>
      </trkpt>
      <trkpt lat="59.9855296" lon="17.7376001">
        <ele>44.358</ele>
        <time>2014-06-27T08:48:35Z</time>
      </trkpt>
      <trkpt lat="59.9855355" lon="17.7375685">
        <ele>44.358</ele>
        <time>2014-06-27T08:48:36Z</time>
      </trkpt>
      <trkpt lat="59.985548" lon="17.7375388">
        <ele>45.3192</ele>
        <time>2014-06-27T08:48:37Z</time>
      </trkpt>
      <trkpt lat="59.9855618" lon="17.7375092">
        <ele>45.7999</ele>
        <time>2014-06-27T08:48:38Z</time>
      </trkpt>
      <trkpt lat="59.9855743" lon="17.737477">
        <ele>46.2806</ele>
        <time>2014-06-27T08:48:39Z</time>
      </trkpt>
      <trkpt lat="59.9855878" lon="17.7374453">
        <ele>46.7612</ele>
        <time>2014-06-27T08:48:40Z</time>
      </trkpt>
      <trkpt lat="59.9855998" lon="17.7374145">
        <ele>46.2806</ele>
        <time>2014-06-27T08:48:41Z</time>
      </trkpt>
      <trkpt lat="59.9856091" lon="17.7373853">
        <ele>46.2806</ele>
        <time>2014-06-27T08:48:42Z</time>
      </trkpt>
      <trkpt lat="59.985619" lon="17.7373595">
        <ele>45.7999</ele>
        <time>2014-06-27T08:48:43Z</time>
      </trkpt>
      <trkpt lat="59.9856299" lon="17.7373387">
        <ele>46.2806</ele>
        <time>2014-06-27T08:48:44Z</time>
      </trkpt>
      <trkpt lat="59.9856432" lon="17.7373245">
        <ele>46.7612</ele>
        <time>2014-06-27T08:48:45Z</time>
      </trkpt>
      <trkpt lat="59.9856535" lon="17.7373087">
        <ele>46.7612</ele>
        <time>2014-06-27T08:48:46Z</time>
      </trkpt>
      <trkpt lat="59.9856628" lon="17.7372885">
        <ele>47.2418</ele>
        <time>2014-06-27T08:48:47Z</time>
      </trkpt>
      <trkpt lat="59.9856781" lon="17.7372629">
        <ele>48.2034</ele>
        <time>2014-06-27T08:48:48Z</time>
      </trkpt>
      <trkpt lat="59.9856919" lon="17.7372311">
        <ele>48.684</ele>
        <time>2014-06-27T08:48:49Z</time>
      </trkpt>
      <trkpt lat="59.9857095" lon="17.7372108">
        <ele>50.126</ele>
        <time>2014-06-27T08:48:50Z</time>
      </trkpt>
      <trkpt lat="59.9857203" lon="17.7371973">
        <ele>48.2034</ele>
        <time>2014-06-27T08:48:51Z</time>
      </trkpt>
      <trkpt lat="59.9857366" lon="17.7371761">
        <ele>48.684</ele>
        <time>2014-06-27T08:48:52Z</time>
      </trkpt>
      <trkpt lat="59.9857561" lon="17.7371496">
        <ele>49.1646</ele>
        <time>2014-06-27T08:48:53Z</time>
      </trkpt>
      <trkpt lat="59.9857767" lon="17.7371228">
        <ele>49.6453</ele>
        <time>2014-06-27T08:48:54Z</time>
      </trkpt>
      <trkpt lat="59.9857845" lon="17.7370885">
        <ele>48.684</ele>
        <time>2014-06-27T08:48:55Z</time>
      </trkpt>
      <trkpt lat="59.9857935" lon="17.7370606">
        <ele>48.684</ele>
        <time>2014-06-27T08:48:56Z</time>
      </trkpt>
      <trkpt lat="59.9858048" lon="17.7370347">
        <ele>48.2034</ele>
        <time>2014-06-27T08:48:57Z</time>
      </trkpt>
      <trkpt lat="59.9858198" lon="17.7370182">
        <ele>47.7225</ele>
        <time>2014-06-27T08:48:58Z</time>
      </trkpt>
      <trkpt lat="59.9858334" lon="17.7370024">
        <ele>48.2034</ele>
        <time>2014-06-27T08:48:59Z</time>
      </trkpt>
      <trkpt lat="59.985849" lon="17.7369895">
        <ele>48.2034</ele>
        <time>2014-06-27T08:49:00Z</time>
      </trkpt>
      <trkpt lat="59.9858628" lon="17.7369689">
        <ele>48.2034</ele>
        <time>2014-06-27T08:49:01Z</time>
      </trkpt>
      <trkpt lat="59.9858795" lon="17.7369523">
        <ele>47.7225</ele>
        <time>2014-06-27T08:49:02Z</time>
      </trkpt>
      <trkpt lat="59.9858939" lon="17.7369254">
        <ele>47.7225</ele>
        <time>2014-06-27T08:49:03Z</time>
      </trkpt>
      <trkpt lat="59.9859055" lon="17.736912">
        <ele>47.7225</ele>
        <time>2014-06-27T08:49:04Z</time>
      </trkpt>
      <trkpt lat="59.9859193" lon="17.7368845">
        <ele>47.2418</ele>
        <time>2014-06-27T08:49:05Z</time>
      </trkpt>
      <trkpt lat="59.9859278" lon="17.7368464">
        <ele>46.2806</ele>
        <time>2014-06-27T08:49:06Z</time>
      </trkpt>
      <trkpt lat="59.9859334" lon="17.7368247">
        <ele>44.8386</ele>
        <time>2014-06-27T08:49:07Z</time>
      </trkpt>
      <trkpt lat="59.9859436" lon="17.736801">
        <ele>44.8386</ele>
        <time>2014-06-27T08:49:08Z</time>
      </trkpt>
      <trkpt lat="59.985952" lon="17.7367835">
        <ele>45.3192</ele>
        <time>2014-06-27T08:49:09Z</time>
      </trkpt>
      <trkpt lat="59.9859635" lon="17.7367682">
        <ele>45.7999</ele>
        <time>2014-06-27T08:49:10Z</time>
      </trkpt>
      <trkpt lat="59.9859765" lon="17.7367516">
        <ele>46.2806</ele>
        <time>2014-06-27T08:49:11Z</time>
      </trkpt>
      <trkpt lat="59.9859934" lon="17.7367289">
        <ele>46.7612</ele>
        <time>2014-06-27T08:49:12Z</time>
      </trkpt>
      <trkpt lat="59.9860085" lon="17.7367062">
        <ele>46.7612</ele>
        <time>2014-06-27T08:49:13Z</time>
      </trkpt>
      <trkpt lat="59.9860245" lon="17.7366836">
        <ele>47.2418</ele>
        <time>2014-06-27T08:49:14Z</time>
      </trkpt>
      <trkpt lat="59.9860371" lon="17.7366643">
        <ele>46.7612</ele>
        <time>2014-06-27T08:49:15Z</time>
      </trkpt>
      <trkpt lat="59.9860494" lon="17.7366436">
        <ele>45.7999</ele>
        <time>2014-06-27T08:49:16Z</time>
      </trkpt>
      <trkpt lat="59.986068" lon="17.7366245">
        <ele>46.2806</ele>
        <time>2014-06-27T08:49:17Z</time>
      </trkpt>
      <trkpt lat="59.9860795" lon="17.7365934">
        <ele>45.7999</ele>
        <time>2014-06-27T08:49:18Z</time>
      </trkpt>
      <trkpt lat="59.9860913" lon="17.7365616">
        <ele>45.7999</ele>
        <time>2014-06-27T08:49:19Z</time>
      </trkpt>
      <trkpt lat="59.9861043" lon="17.7365346">
        <ele>45.7999</ele>
        <time>2014-06-27T08:49:20Z</time>
      </trkpt>
      <trkpt lat="59.9861178" lon="17.7365092">
        <ele>45.7999</ele>
        <time>2014-06-27T08:49:21Z</time>
      </trkpt>
      <trkpt lat="59.9861321" lon="17.7364802">
        <ele>45.3192</ele>
        <time>2014-06-27T08:49:22Z</time>
      </trkpt>
      <trkpt lat="59.9861466" lon="17.7364653">
        <ele>45.3192</ele>
        <time>2014-06-27T08:49:23Z</time>
      </trkpt>
      <trkpt lat="59.9861586" lon="17.7364503">
        <ele>45.7999</ele>
        <time>2014-06-27T08:49:24Z</time>
      </trkpt>
      <trkpt lat="59.9861697" lon="17.736432">
        <ele>45.7999</ele>
        <time>2014-06-27T08:49:25Z</time>
      </trkpt>
      <trkpt lat="59.9861836" lon="17.736413">
        <ele>45.7999</ele>
        <time>2014-06-27T08:49:26Z</time>
      </trkpt>
      <trkpt lat="59.9861975" lon="17.7363856">
        <ele>45.3192</ele>
        <time>2014-06-27T08:49:27Z</time>
      </trkpt>
      <trkpt lat="59.9862125" lon="17.7363581">
        <ele>45.3192</ele>
        <time>2014-06-27T08:49:28Z</time>
      </trkpt>
      <trkpt lat="59.9862256" lon="17.7363375">
        <ele>45.7999</ele>
        <time>2014-06-27T08:49:29Z</time>
      </trkpt>
      <trkpt lat="59.9862372" lon="17.7363156">
        <ele>45.7999</ele>
        <time>2014-06-27T08:49:30Z</time>
      </trkpt>
      <trkpt lat="59.9862524" lon="17.736283">
        <ele>46.2806</ele>
        <time>2014-06-27T08:49:31Z</time>
      </trkpt>
      <trkpt lat="59.9862626" lon="17.7362668">
        <ele>46.2806</ele>
        <time>2014-06-27T08:49:32Z</time>
      </trkpt>
      <trkpt lat="59.9862785" lon="17.7362477">
        <ele>46.7612</ele>
        <time>2014-06-27T08:49:33Z</time>
      </trkpt>
      <trkpt lat="59.9862908" lon="17.7362281">
        <ele>46.2806</ele>
        <time>2014-06-27T08:49:34Z</time>
      </trkpt>
      <trkpt lat="59.9863036" lon="17.7362115">
        <ele>46.7612</ele>
        <time>2014-06-27T08:49:35Z</time>
      </trkpt>
      <trkpt lat="59.9863284" lon="17.7361687">
        <ele>46.2806</ele>
        <time>2014-06-27T08:49:36Z</time>
      </trkpt>
      <trkpt lat="59.9863409" lon="17.7361468">
        <ele>46.2806</ele>
        <time>2014-06-27T08:49:37Z</time>
      </trkpt>
      <trkpt lat="59.9863543" lon="17.7361179">
        <ele>46.7612</ele>
        <time>2014-06-27T08:49:38Z</time>
      </trkpt>
      <trkpt lat="59.9863678" lon="17.7360934">
        <ele>47.2418</ele>
        <time>2014-06-27T08:49:39Z</time>
      </trkpt>
      <trkpt lat="59.9863788" lon="17.7360655">
        <ele>46.7612</ele>
        <time>2014-06-27T08:49:40Z</time>
      </trkpt>
      <trkpt lat="59.9863914" lon="17.7360422">
        <ele>46.7612</ele>
        <time>2014-06-27T08:49:41Z</time>
      </trkpt>
      <trkpt lat="59.9864048" lon="17.736012">
        <ele>47.2418</ele>
        <time>2014-06-27T08:49:42Z</time>
      </trkpt>
      <trkpt lat="59.9864157" lon="17.7359832">
        <ele>47.2418</ele>
        <time>2014-06-27T08:49:43Z</time>
      </trkpt>
      <trkpt lat="59.9864269" lon="17.7359629">
        <ele>47.2418</ele>
        <time>2014-06-27T08:49:44Z</time>
      </trkpt>
      <trkpt lat="59.9864375" lon="17.7359383">
        <ele>47.7225</ele>
        <time>2014-06-27T08:49:45Z</time>
      </trkpt>
      <trkpt lat="59.9864497" lon="17.7359192">
        <ele>47.7225</ele>
        <time>2014-06-27T08:49:46Z</time>
      </trkpt>
      <trkpt lat="59.9864618" lon="17.735896">
        <ele>47.7225</ele>
        <time>2014-06-27T08:49:47Z</time>
      </trkpt>
      <trkpt lat="59.9864743" lon="17.7358718">
        <ele>48.2034</ele>
        <time>2014-06-27T08:49:48Z</time>
      </trkpt>
      <trkpt lat="59.9864848" lon="17.7358495">
        <ele>48.2034</ele>
        <time>2014-06-27T08:49:49Z</time>
      </trkpt>
      <trkpt lat="59.9864928" lon="17.7358257">
        <ele>47.7225</ele>
        <time>2014-06-27T08:49:50Z</time>
      </trkpt>
      <trkpt lat="59.9865005" lon="17.7358008">
        <ele>47.2418</ele>
        <time>2014-06-27T08:49:51Z</time>
      </trkpt>
      <trkpt lat="59.9865064" lon="17.7357718">
        <ele>46.7612</ele>
        <time>2014-06-27T08:49:52Z</time>
      </trkpt>
      <trkpt lat="59.9865128" lon="17.7357433">
        <ele>46.7612</ele>
        <time>2014-06-27T08:49:53Z</time>
      </trkpt>
      <trkpt lat="59.9865193" lon="17.7357149">
        <ele>46.2806</ele>
        <time>2014-06-27T08:49:54Z</time>
      </trkpt>
      <trkpt lat="59.986526" lon="17.7356847">
        <ele>46.2806</ele>
        <time>2014-06-27T08:49:55Z</time>
      </trkpt>
      <trkpt lat="59.9865347" lon="17.7356557">
        <ele>46.2806</ele>
        <time>2014-06-27T08:49:56Z</time>
      </trkpt>
      <trkpt lat="59.9865432" lon="17.7356219">
        <ele>46.7612</ele>
        <time>2014-06-27T08:49:57Z</time>
      </trkpt>
      <trkpt lat="59.9865508" lon="17.7355892">
        <ele>47.2418</ele>
        <time>2014-06-27T08:49:58Z</time>
      </trkpt>
      <trkpt lat="59.9865594" lon="17.7355577">
        <ele>47.7225</ele>
        <time>2014-06-27T08:49:59Z</time>
      </trkpt>
      <trkpt lat="59.9865668" lon="17.7355241">
        <ele>47.7225</ele>
        <time>2014-06-27T08:50:00Z</time>
      </trkpt>
      <trkpt lat="59.9865752" lon="17.735495">
        <ele>47.7225</ele>
        <time>2014-06-27T08:50:01Z</time>
      </trkpt>
      <trkpt lat="59.9865819" lon="17.7354641">
        <ele>47.7225</ele>
        <time>2014-06-27T08:50:02Z</time>
      </trkpt>
      <trkpt lat="59.9865866" lon="17.7354286">
        <ele>48.2034</ele>
        <time>2014-06-27T08:50:03Z</time>
      </trkpt>
      <trkpt lat="59.9865905" lon="17.7353921">
        <ele>48.2034</ele>
        <time>2014-06-27T08:50:04Z</time>
      </trkpt>
      <trkpt lat="59.9865959" lon="17.7353594">
        <ele>48.684</ele>
        <time>2014-06-27T08:50:05Z</time>
      </trkpt>
      <trkpt lat="59.9865975" lon="17.7353293">
        <ele>48.2034</ele>
        <time>2014-06-27T08:50:06Z</time>
      </trkpt>
      <trkpt lat="59.9866006" lon="17.7353033">
        <ele>48.2034</ele>
        <time>2014-06-27T08:50:07Z</time>
      </trkpt>
      <trkpt lat="59.9866062" lon="17.7352748">
        <ele>47.7225</ele>
        <time>2014-06-27T08:50:08Z</time>
      </trkpt>
      <trkpt lat="59.9866114" lon="17.7352416">
        <ele>47.2418</ele>
        <time>2014-06-27T08:50:09Z</time>
      </trkpt>
      <trkpt lat="59.9866171" lon="17.7352134">
        <ele>47.2418</ele>
        <time>2014-06-27T08:50:10Z</time>
      </trkpt>
      <trkpt lat="59.9866233" lon="17.7351786">
        <ele>46.7612</ele>
        <time>2014-06-27T08:50:11Z</time>
      </trkpt>
      <trkpt lat="59.9866311" lon="17.735148">
        <ele>47.7225</ele>
        <time>2014-06-27T08:50:12Z</time>
      </trkpt>
      <trkpt lat="59.9866423" lon="17.735116">
        <ele>47.7225</ele>
        <time>2014-06-27T08:50:13Z</time>
      </trkpt>
      <trkpt lat="59.9866504" lon="17.735085">
        <ele>47.2418</ele>
        <time>2014-06-27T08:50:14Z</time>
      </trkpt>
      <trkpt lat="59.9866571" lon="17.7350582">
        <ele>47.2418</ele>
        <time>2014-06-27T08:50:15Z</time>
      </trkpt>
      <trkpt lat="59.9866592" lon="17.7350296">
        <ele>46.2806</ele>
        <time>2014-06-27T08:50:16Z</time>
      </trkpt>
      <trkpt lat="59.9866632" lon="17.735001">
        <ele>45.7999</ele>
        <time>2014-06-27T08:50:17Z</time>
      </trkpt>
      <trkpt lat="59.9866669" lon="17.7349648">
        <ele>45.3192</ele>
        <time>2014-06-27T08:50:18Z</time>
      </trkpt>
      <trkpt lat="59.9866718" lon="17.7349293">
        <ele>45.3192</ele>
        <time>2014-06-27T08:50:19Z</time>
      </trkpt>
      <trkpt lat="59.986675" lon="17.7348921">
        <ele>44.8386</ele>
        <time>2014-06-27T08:50:20Z</time>
      </trkpt>
      <trkpt lat="59.9866757" lon="17.7348616">
        <ele>45.3192</ele>
        <time>2014-06-27T08:50:21Z</time>
      </trkpt>
      <trkpt lat="59.9866782" lon="17.7348315">
        <ele>45.3192</ele>
        <time>2014-06-27T08:50:22Z</time>
      </trkpt>
      <trkpt lat="59.986683" lon="17.7347956">
        <ele>45.3192</ele>
        <time>2014-06-27T08:50:23Z</time>
      </trkpt>
      <trkpt lat="59.9866881" lon="17.73476">
        <ele>44.8386</ele>
        <time>2014-06-27T08:50:24Z</time>
      </trkpt>
      <trkpt lat="59.9866978" lon="17.7347291">
        <ele>45.7999</ele>
        <time>2014-06-27T08:50:25Z</time>
      </trkpt>
      <trkpt lat="59.9867083" lon="17.7346998">
        <ele>46.7612</ele>
        <time>2014-06-27T08:50:26Z</time>
      </trkpt>
      <trkpt lat="59.9867181" lon="17.7346666">
        <ele>47.2418</ele>
        <time>2014-06-27T08:50:27Z</time>
      </trkpt>
      <trkpt lat="59.9867293" lon="17.7346238">
        <ele>48.2034</ele>
        <time>2014-06-27T08:50:28Z</time>
      </trkpt>
      <trkpt lat="59.9867389" lon="17.7345766">
        <ele>48.684</ele>
        <time>2014-06-27T08:50:29Z</time>
      </trkpt>
      <trkpt lat="59.9867461" lon="17.7345374">
        <ele>49.6453</ele>
        <time>2014-06-27T08:50:30Z</time>
      </trkpt>
      <trkpt lat="59.9867513" lon="17.7345035">
        <ele>49.6453</ele>
        <time>2014-06-27T08:50:31Z</time>
      </trkpt>
      <trkpt lat="59.9867578" lon="17.7344675">
        <ele>49.6453</ele>
        <time>2014-06-27T08:50:32Z</time>
      </trkpt>
      <trkpt lat="59.9867651" lon="17.7344335">
        <ele>48.684</ele>
        <time>2014-06-27T08:50:33Z</time>
      </trkpt>
      <trkpt lat="59.9867705" lon="17.7344053">
        <ele>48.684</ele>
        <time>2014-06-27T08:50:34Z</time>
      </trkpt>
      <trkpt lat="59.9867797" lon="17.7343768">
        <ele>48.684</ele>
        <time>2014-06-27T08:50:35Z</time>
      </trkpt>
      <trkpt lat="59.9867911" lon="17.7343503">
        <ele>48.684</ele>
        <time>2014-06-27T08:50:36Z</time>
      </trkpt>
      <trkpt lat="59.9868" lon="17.7343178">
        <ele>47.7225</ele>
        <time>2014-06-27T08:50:37Z</time>
      </trkpt>
      <trkpt lat="59.9868091" lon="17.7342855">
        <ele>47.7225</ele>
        <time>2014-06-27T08:50:38Z</time>
      </trkpt>
      <trkpt lat="59.9868193" lon="17.734254">
        <ele>48.684</ele>
        <time>2014-06-27T08:50:39Z</time>
      </trkpt>
      <trkpt lat="59.9868212" lon="17.7342297">
        <ele>47.7225</ele>
        <time>2014-06-27T08:50:40Z</time>
      </trkpt>
      <trkpt lat="59.9868278" lon="17.7342032">
        <ele>46.2806</ele>
        <time>2014-06-27T08:50:41Z</time>
      </trkpt>
      <trkpt lat="59.9868415" lon="17.7341659">
        <ele>45.7999</ele>
        <time>2014-06-27T08:50:42Z</time>
      </trkpt>
      <trkpt lat="59.9868534" lon="17.734126">
        <ele>45.7999</ele>
        <time>2014-06-27T08:50:43Z</time>
      </trkpt>
      <trkpt lat="59.986868" lon="17.7340901">
        <ele>47.2418</ele>
        <time>2014-06-27T08:50:44Z</time>
      </trkpt>
      <trkpt lat="59.9868772" lon="17.7340528">
        <ele>47.2418</ele>
        <time>2014-06-27T08:50:45Z</time>
      </trkpt>
      <trkpt lat="59.9868865" lon="17.7340228">
        <ele>46.7612</ele>
        <time>2014-06-27T08:50:46Z</time>
      </trkpt>
      <trkpt lat="59.9868906" lon="17.7339902">
        <ele>47.2418</ele>
        <time>2014-06-27T08:50:47Z</time>
      </trkpt>
      <trkpt lat="59.9868948" lon="17.7339653">
        <ele>47.7225</ele>
        <time>2014-06-27T08:50:48Z</time>
      </trkpt>
      <trkpt lat="59.9868963" lon="17.7339375">
        <ele>47.7225</ele>
        <time>2014-06-27T08:50:49Z</time>
      </trkpt>
      <trkpt lat="59.9869045" lon="17.7339028">
        <ele>47.2418</ele>
        <time>2014-06-27T08:50:50Z</time>
      </trkpt>
      <trkpt lat="59.9869146" lon="17.7338716">
        <ele>47.7225</ele>
        <time>2014-06-27T08:50:51Z</time>
      </trkpt>
      <trkpt lat="59.9869169" lon="17.7338364">
        <ele>47.7225</ele>
        <time>2014-06-27T08:50:52Z</time>
      </trkpt>
      <trkpt lat="59.9869186" lon="17.7337992">
        <ele>47.2418</ele>
        <time>2014-06-27T08:50:53Z</time>
      </trkpt>
      <trkpt lat="59.9869298" lon="17.7337698">
        <ele>48.2034</ele>
        <time>2014-06-27T08:50:54Z</time>
      </trkpt>
      <trkpt lat="59.9869394" lon="17.7337396">
        <ele>48.684</ele>
        <time>2014-06-27T08:50:55Z</time>
      </trkpt>
      <trkpt lat="59.9869436" lon="17.7337089">
        <ele>48.2034</ele>
        <time>2014-06-27T08:50:56Z</time>
      </trkpt>
      <trkpt lat="59.9869495" lon="17.73368">
        <ele>47.2418</ele>
        <time>2014-06-27T08:50:57Z</time>
      </trkpt>
      <trkpt lat="59.9869707" lon="17.7336513">
        <ele>48.684</ele>
        <time>2014-06-27T08:50:58Z</time>
      </trkpt>
      <trkpt lat="59.9869834" lon="17.7336137">
        <ele>48.2034</ele>
        <time>2014-06-27T08:50:59Z</time>
      </trkpt>
      <trkpt lat="59.9869932" lon="17.7335845">
        <ele>47.7225</ele>
        <time>2014-06-27T08:51:00Z</time>
      </trkpt>
      <trkpt lat="59.9870015" lon="17.7335597">
        <ele>47.7225</ele>
        <time>2014-06-27T08:51:01Z</time>
      </trkpt>
      <trkpt lat="59.9870102" lon="17.7335376">
        <ele>48.2034</ele>
        <time>2014-06-27T08:51:02Z</time>
      </trkpt>
      <trkpt lat="59.9870189" lon="17.7335131">
        <ele>48.2034</ele>
        <time>2014-06-27T08:51:03Z</time>
      </trkpt>
      <trkpt lat="59.9870238" lon="17.7334802">
        <ele>47.7225</ele>
        <time>2014-06-27T08:51:04Z</time>
      </trkpt>
      <trkpt lat="59.9870313" lon="17.7334505">
        <ele>47.7225</ele>
        <time>2014-06-27T08:51:05Z</time>
      </trkpt>
      <trkpt lat="59.9870383" lon="17.7334205">
        <ele>47.2418</ele>
        <time>2014-06-27T08:51:06Z</time>
      </trkpt>
      <trkpt lat="59.9870486" lon="17.7333859">
        <ele>47.2418</ele>
        <time>2014-06-27T08:51:07Z</time>
      </trkpt>
      <trkpt lat="59.9870548" lon="17.7333579">
        <ele>47.7225</ele>
        <time>2014-06-27T08:51:08Z</time>
      </trkpt>
      <trkpt lat="59.9870604" lon="17.7333293">
        <ele>47.2418</ele>
        <time>2014-06-27T08:51:09Z</time>
      </trkpt>
      <trkpt lat="59.9870646" lon="17.7332966">
        <ele>46.2806</ele>
        <time>2014-06-27T08:51:10Z</time>
      </trkpt>
      <trkpt lat="59.9870735" lon="17.7332629">
        <ele>45.7999</ele>
        <time>2014-06-27T08:51:11Z</time>
      </trkpt>
      <trkpt lat="59.9870829" lon="17.7332335">
        <ele>45.7999</ele>
        <time>2014-06-27T08:51:12Z</time>
      </trkpt>
      <trkpt lat="59.9870947" lon="17.733206">
        <ele>45.7999</ele>
        <time>2014-06-27T08:51:13Z</time>
      </trkpt>
      <trkpt lat="59.9871076" lon="17.7331719">
        <ele>46.2806</ele>
        <time>2014-06-27T08:51:14Z</time>
      </trkpt>
      <trkpt lat="59.9871171" lon="17.7331411">
        <ele>46.2806</ele>
        <time>2014-06-27T08:51:15Z</time>
      </trkpt>
      <trkpt lat="59.9871247" lon="17.7331124">
        <ele>46.2806</ele>
        <time>2014-06-27T08:51:16Z</time>
      </trkpt>
      <trkpt lat="59.9871313" lon="17.733082">
        <ele>46.2806</ele>
        <time>2014-06-27T08:51:17Z</time>
      </trkpt>
      <trkpt lat="59.9871388" lon="17.7330522">
        <ele>46.2806</ele>
        <time>2014-06-27T08:51:18Z</time>
      </trkpt>
      <trkpt lat="59.9871471" lon="17.733019">
        <ele>46.2806</ele>
        <time>2014-06-27T08:51:19Z</time>
      </trkpt>
      <trkpt lat="59.9871527" lon="17.7329843">
        <ele>45.3192</ele>
        <time>2014-06-27T08:51:20Z</time>
      </trkpt>
      <trkpt lat="59.9871559" lon="17.7329544">
        <ele>44.8386</ele>
        <time>2014-06-27T08:51:21Z</time>
      </trkpt>
      <trkpt lat="59.9871611" lon="17.7329246">
        <ele>44.358</ele>
        <time>2014-06-27T08:51:22Z</time>
      </trkpt>
      <trkpt lat="59.9871693" lon="17.7328921">
        <ele>44.8386</ele>
        <time>2014-06-27T08:51:23Z</time>
      </trkpt>
      <trkpt lat="59.9871775" lon="17.7328574">
        <ele>44.358</ele>
        <time>2014-06-27T08:51:24Z</time>
      </trkpt>
      <trkpt lat="59.9871885" lon="17.7328237">
        <ele>44.8386</ele>
        <time>2014-06-27T08:51:25Z</time>
      </trkpt>
      <trkpt lat="59.9871992" lon="17.7327912">
        <ele>44.358</ele>
        <time>2014-06-27T08:51:26Z</time>
      </trkpt>
      <trkpt lat="59.987208" lon="17.7327596">
        <ele>44.8386</ele>
        <time>2014-06-27T08:51:27Z</time>
      </trkpt>
      <trkpt lat="59.9872159" lon="17.7327265">
        <ele>44.358</ele>
        <time>2014-06-27T08:51:28Z</time>
      </trkpt>
      <trkpt lat="59.9872232" lon="17.7326969">
        <ele>44.358</ele>
        <time>2014-06-27T08:51:29Z</time>
      </trkpt>
      <trkpt lat="59.9872279" lon="17.7326654">
        <ele>44.358</ele>
        <time>2014-06-27T08:51:30Z</time>
      </trkpt>
      <trkpt lat="59.9872334" lon="17.7326309">
        <ele>44.358</ele>
        <time>2014-06-27T08:51:31Z</time>
      </trkpt>
      <trkpt lat="59.9872388" lon="17.732601">
        <ele>44.358</ele>
        <time>2014-06-27T08:51:32Z</time>
      </trkpt>
      <trkpt lat="59.9872434" lon="17.7325706">
        <ele>44.358</ele>
        <time>2014-06-27T08:51:33Z</time>
      </trkpt>
      <trkpt lat="59.9872484" lon="17.7325424">
        <ele>43.8773</ele>
        <time>2014-06-27T08:51:34Z</time>
      </trkpt>
      <trkpt lat="59.9872544" lon="17.7325155">
        <ele>44.358</ele>
        <time>2014-06-27T08:51:35Z</time>
      </trkpt>
      <trkpt lat="59.9872618" lon="17.7324848">
        <ele>44.8386</ele>
        <time>2014-06-27T08:51:36Z</time>
      </trkpt>
      <trkpt lat="59.9872677" lon="17.7324502">
        <ele>44.358</ele>
        <time>2014-06-27T08:51:37Z</time>
      </trkpt>
      <trkpt lat="59.9872745" lon="17.7324171">
        <ele>44.358</ele>
        <time>2014-06-27T08:51:38Z</time>
      </trkpt>
      <trkpt lat="59.9872821" lon="17.7323867">
        <ele>44.358</ele>
        <time>2014-06-27T08:51:39Z</time>
      </trkpt>
      <trkpt lat="59.9872894" lon="17.7323548">
        <ele>44.358</ele>
        <time>2014-06-27T08:51:40Z</time>
      </trkpt>
      <trkpt lat="59.9872962" lon="17.7323244">
        <ele>44.358</ele>
        <time>2014-06-27T08:51:41Z</time>
      </trkpt>
      <trkpt lat="59.9873" lon="17.7322988">
        <ele>43.8773</ele>
        <time>2014-06-27T08:51:42Z</time>
      </trkpt>
      <trkpt lat="59.9873051" lon="17.732269">
        <ele>43.8773</ele>
        <time>2014-06-27T08:51:43Z</time>
      </trkpt>
      <trkpt lat="59.9873123" lon="17.7322435">
        <ele>43.8773</ele>
        <time>2014-06-27T08:51:44Z</time>
      </trkpt>
      <trkpt lat="59.987319" lon="17.7322151">
        <ele>43.3966</ele>
        <time>2014-06-27T08:51:45Z</time>
      </trkpt>
      <trkpt lat="59.987334" lon="17.7321854">
        <ele>43.3966</ele>
        <time>2014-06-27T08:51:46Z</time>
      </trkpt>
      <trkpt lat="59.987346" lon="17.7321541">
        <ele>43.3966</ele>
        <time>2014-06-27T08:51:47Z</time>
      </trkpt>
      <trkpt lat="59.9873587" lon="17.7321277">
        <ele>43.3966</ele>
        <time>2014-06-27T08:51:48Z</time>
      </trkpt>
      <trkpt lat="59.9873746" lon="17.7321031">
        <ele>43.8773</ele>
        <time>2014-06-27T08:51:49Z</time>
      </trkpt>
      <trkpt lat="59.9873899" lon="17.7320768">
        <ele>44.358</ele>
        <time>2014-06-27T08:51:50Z</time>
      </trkpt>
      <trkpt lat="59.9874004" lon="17.732054">
        <ele>43.8773</ele>
        <time>2014-06-27T08:51:51Z</time>
      </trkpt>
      <trkpt lat="59.9874053" lon="17.7320351">
        <ele>43.3966</ele>
        <time>2014-06-27T08:51:52Z</time>
      </trkpt>
      <trkpt lat="59.9874174" lon="17.7320175">
        <ele>43.3966</ele>
        <time>2014-06-27T08:51:53Z</time>
      </trkpt>
      <trkpt lat="59.9874255" lon="17.7319891">
        <ele>42.916</ele>
        <time>2014-06-27T08:51:54Z</time>
      </trkpt>
      <trkpt lat="59.9874346" lon="17.7319654">
        <ele>42.916</ele>
        <time>2014-06-27T08:51:55Z</time>
      </trkpt>
      <trkpt lat="59.9874453" lon="17.7319431">
        <ele>43.8773</ele>
        <time>2014-06-27T08:51:56Z</time>
      </trkpt>
      <trkpt lat="59.9874553" lon="17.7319173">
        <ele>43.8773</ele>
        <time>2014-06-27T08:51:57Z</time>
      </trkpt>
      <trkpt lat="59.9874733" lon="17.7318889">
        <ele>44.358</ele>
        <time>2014-06-27T08:51:58Z</time>
      </trkpt>
      <trkpt lat="59.9874806" lon="17.7318571">
        <ele>43.8773</ele>
        <time>2014-06-27T08:51:59Z</time>
      </trkpt>
      <trkpt lat="59.9874887" lon="17.7318277">
        <ele>43.3966</ele>
        <time>2014-06-27T08:52:00Z</time>
      </trkpt>
      <trkpt lat="59.9875017" lon="17.7318002">
        <ele>43.3966</ele>
        <time>2014-06-27T08:52:01Z</time>
      </trkpt>
      <trkpt lat="59.9875142" lon="17.7317777">
        <ele>42.916</ele>
        <time>2014-06-27T08:52:02Z</time>
      </trkpt>
      <trkpt lat="59.9875245" lon="17.7317525">
        <ele>42.4354</ele>
        <time>2014-06-27T08:52:03Z</time>
      </trkpt>
      <trkpt lat="59.987536" lon="17.7317326">
        <ele>42.4354</ele>
        <time>2014-06-27T08:52:04Z</time>
      </trkpt>
      <trkpt lat="59.9875464" lon="17.7317171">
        <ele>41.9547</ele>
        <time>2014-06-27T08:52:05Z</time>
      </trkpt>
      <trkpt lat="59.9875609" lon="17.7316931">
        <ele>41.474</ele>
        <time>2014-06-27T08:52:06Z</time>
      </trkpt>
      <trkpt lat="59.9875756" lon="17.7316737">
        <ele>41.9547</ele>
        <time>2014-06-27T08:52:07Z</time>
      </trkpt>
      <trkpt lat="59.9875873" lon="17.731651">
        <ele>41.474</ele>
        <time>2014-06-27T08:52:08Z</time>
      </trkpt>
      <trkpt lat="59.9875955" lon="17.7316277">
        <ele>41.474</ele>
        <time>2014-06-27T08:52:09Z</time>
      </trkpt>
      <trkpt lat="59.9876055" lon="17.7316068">
        <ele>40.9934</ele>
        <time>2014-06-27T08:52:10Z</time>
      </trkpt>
      <trkpt lat="59.9876182" lon="17.7315836">
        <ele>40.5128</ele>
        <time>2014-06-27T08:52:11Z</time>
      </trkpt>
      <trkpt lat="59.9876345" lon="17.7315669">
        <ele>40.9934</ele>
        <time>2014-06-27T08:52:12Z</time>
      </trkpt>
      <trkpt lat="59.9876485" lon="17.73154">
        <ele>40.9934</ele>
        <time>2014-06-27T08:52:13Z</time>
      </trkpt>
      <trkpt lat="59.9876587" lon="17.7315167">
        <ele>40.5128</ele>
        <time>2014-06-27T08:52:14Z</time>
      </trkpt>
      <trkpt lat="59.9876734" lon="17.7314975">
        <ele>40.5128</ele>
        <time>2014-06-27T08:52:15Z</time>
      </trkpt>
      <trkpt lat="59.9876888" lon="17.7314801">
        <ele>40.5128</ele>
        <time>2014-06-27T08:52:16Z</time>
      </trkpt>
      <trkpt lat="59.9877065" lon="17.7314636">
        <ele>40.9934</ele>
        <time>2014-06-27T08:52:17Z</time>
      </trkpt>
      <trkpt lat="59.9877219" lon="17.7314441">
        <ele>41.474</ele>
        <time>2014-06-27T08:52:18Z</time>
      </trkpt>
      <trkpt lat="59.9877348" lon="17.7314172">
        <ele>41.474</ele>
        <time>2014-06-27T08:52:19Z</time>
      </trkpt>
      <trkpt lat="59.9877439" lon="17.7313903">
        <ele>41.474</ele>
        <time>2014-06-27T08:52:20Z</time>
      </trkpt>
      <trkpt lat="59.9877563" lon="17.73135">
        <ele>41.474</ele>
        <time>2014-06-27T08:52:21Z</time>
      </trkpt>
      <trkpt lat="59.9877661" lon="17.7313133">
        <ele>40.9934</ele>
        <time>2014-06-27T08:52:22Z</time>
      </trkpt>
      <trkpt lat="59.9877793" lon="17.7312851">
        <ele>40.9934</ele>
        <time>2014-06-27T08:52:23Z</time>
      </trkpt>
      <trkpt lat="59.9877934" lon="17.7312605">
        <ele>40.9934</ele>
        <time>2014-06-27T08:52:24Z</time>
      </trkpt>
      <trkpt lat="59.9878105" lon="17.7312355">
        <ele>41.474</ele>
        <time>2014-06-27T08:52:25Z</time>
      </trkpt>
      <trkpt lat="59.9878205" lon="17.7312044">
        <ele>41.474</ele>
        <time>2014-06-27T08:52:26Z</time>
      </trkpt>
      <trkpt lat="59.9878294" lon="17.7311846">
        <ele>41.474</ele>
        <time>2014-06-27T08:52:27Z</time>
      </trkpt>
      <trkpt lat="59.9878427" lon="17.7311668">
        <ele>41.9547</ele>
        <time>2014-06-27T08:52:28Z</time>
      </trkpt>
      <trkpt lat="59.9878582" lon="17.731147">
        <ele>42.4354</ele>
        <time>2014-06-27T08:52:29Z</time>
      </trkpt>
      <trkpt lat="59.9878728" lon="17.7311262">
        <ele>42.916</ele>
        <time>2014-06-27T08:52:30Z</time>
      </trkpt>
      <trkpt lat="59.9878845" lon="17.731106">
        <ele>43.3966</ele>
        <time>2014-06-27T08:52:31Z</time>
      </trkpt>
      <trkpt lat="59.9878941" lon="17.7310905">
        <ele>43.3966</ele>
        <time>2014-06-27T08:52:32Z</time>
      </trkpt>
      <trkpt lat="59.9878987" lon="17.7310694">
        <ele>42.916</ele>
        <time>2014-06-27T08:52:33Z</time>
      </trkpt>
      <trkpt lat="59.9879105" lon="17.7310461">
        <ele>43.3966</ele>
        <time>2014-06-27T08:52:34Z</time>
      </trkpt>
      <trkpt lat="59.9879229" lon="17.7310215">
        <ele>42.916</ele>
        <time>2014-06-27T08:52:35Z</time>
      </trkpt>
      <trkpt lat="59.9879361" lon="17.7309967">
        <ele>42.916</ele>
        <time>2014-06-27T08:52:36Z</time>
      </trkpt>
      <trkpt lat="59.98795" lon="17.7309771">
        <ele>42.916</ele>
        <time>2014-06-27T08:52:37Z</time>
      </trkpt>
      <trkpt lat="59.9879601" lon="17.7309569">
        <ele>42.916</ele>
        <time>2014-06-27T08:52:38Z</time>
      </trkpt>
      <trkpt lat="59.9879679" lon="17.7309336">
        <ele>42.916</ele>
        <time>2014-06-27T08:52:39Z</time>
      </trkpt>
      <trkpt lat="59.9879779" lon="17.7309159">
        <ele>43.3966</ele>
        <time>2014-06-27T08:52:40Z</time>
      </trkpt>
      <trkpt lat="59.9879879" lon="17.7308999">
        <ele>43.8773</ele>
        <time>2014-06-27T08:52:41Z</time>
      </trkpt>
      <trkpt lat="59.9880032" lon="17.7308771">
        <ele>44.8386</ele>
        <time>2014-06-27T08:52:42Z</time>
      </trkpt>
      <trkpt lat="59.9880173" lon="17.7308527">
        <ele>45.3192</ele>
        <time>2014-06-27T08:52:43Z</time>
      </trkpt>
      <trkpt lat="59.9880265" lon="17.7308283">
        <ele>45.3192</ele>
        <time>2014-06-27T08:52:44Z</time>
      </trkpt>
      <trkpt lat="59.9880392" lon="17.7308113">
        <ele>45.7999</ele>
        <time>2014-06-27T08:52:45Z</time>
      </trkpt>
      <trkpt lat="59.9880541" lon="17.7307895">
        <ele>46.2806</ele>
        <time>2014-06-27T08:52:46Z</time>
      </trkpt>
      <trkpt lat="59.9880588" lon="17.7307689">
        <ele>45.3192</ele>
        <time>2014-06-27T08:52:47Z</time>
      </trkpt>
      <trkpt lat="59.9880669" lon="17.7307542">
        <ele>44.8386</ele>
        <time>2014-06-27T08:52:48Z</time>
      </trkpt>
      <trkpt lat="59.9880764" lon="17.7307341">
        <ele>44.8386</ele>
        <time>2014-06-27T08:52:49Z</time>
      </trkpt>
      <trkpt lat="59.9880898" lon="17.7307075">
        <ele>45.3192</ele>
        <time>2014-06-27T08:52:50Z</time>
      </trkpt>
      <trkpt lat="59.9881044" lon="17.7306752">
        <ele>44.8386</ele>
        <time>2014-06-27T08:52:51Z</time>
      </trkpt>
      <trkpt lat="59.9881132" lon="17.7306422">
        <ele>43.3966</ele>
        <time>2014-06-27T08:52:52Z</time>
      </trkpt>
      <trkpt lat="59.9881312" lon="17.7306166">
        <ele>43.8773</ele>
        <time>2014-06-27T08:52:53Z</time>
      </trkpt>
      <trkpt lat="59.9881425" lon="17.7305899">
        <ele>43.8773</ele>
        <time>2014-06-27T08:52:54Z</time>
      </trkpt>
      <trkpt lat="59.9881544" lon="17.7305719">
        <ele>43.3966</ele>
        <time>2014-06-27T08:52:55Z</time>
      </trkpt>
      <trkpt lat="59.9881668" lon="17.730556">
        <ele>43.8773</ele>
        <time>2014-06-27T08:52:56Z</time>
      </trkpt>
      <trkpt lat="59.9881777" lon="17.7305269">
        <ele>43.3966</ele>
        <time>2014-06-27T08:52:57Z</time>
      </trkpt>
      <trkpt lat="59.9881913" lon="17.7305046">
        <ele>42.916</ele>
        <time>2014-06-27T08:52:58Z</time>
      </trkpt>
      <trkpt lat="59.9882063" lon="17.7304808">
        <ele>42.4354</ele>
        <time>2014-06-27T08:52:59Z</time>
      </trkpt>
      <trkpt lat="59.9882229" lon="17.7304595">
        <ele>42.4354</ele>
        <time>2014-06-27T08:53:00Z</time>
      </trkpt>
      <trkpt lat="59.9882308" lon="17.7304399">
        <ele>41.9547</ele>
        <time>2014-06-27T08:53:01Z</time>
      </trkpt>
      <trkpt lat="59.9882411" lon="17.7304192">
        <ele>41.474</ele>
        <time>2014-06-27T08:53:02Z</time>
      </trkpt>
      <trkpt lat="59.9882489" lon="17.7304078">
        <ele>40.9934</ele>
        <time>2014-06-27T08:53:03Z</time>
      </trkpt>
      <trkpt lat="59.9882595" lon="17.7303902">
        <ele>40.5128</ele>
        <time>2014-06-27T08:53:04Z</time>
      </trkpt>
      <trkpt lat="59.9882743" lon="17.7303591">
        <ele>40.0321</ele>
        <time>2014-06-27T08:53:05Z</time>
      </trkpt>
      <trkpt lat="59.9882862" lon="17.7303327">
        <ele>40.0321</ele>
        <time>2014-06-27T08:53:06Z</time>
      </trkpt>
      <trkpt lat="59.9883032" lon="17.7302996">
        <ele>40.0321</ele>
        <time>2014-06-27T08:53:07Z</time>
      </trkpt>
      <trkpt lat="59.9883229" lon="17.7302734">
        <ele>40.5128</ele>
        <time>2014-06-27T08:53:08Z</time>
      </trkpt>
      <trkpt lat="59.9883342" lon="17.7302559">
        <ele>40.5128</ele>
        <time>2014-06-27T08:53:09Z</time>
      </trkpt>
      <trkpt lat="59.9883467" lon="17.7302348">
        <ele>40.0321</ele>
        <time>2014-06-27T08:53:10Z</time>
      </trkpt>
      <trkpt lat="59.9883561" lon="17.7302053">
        <ele>40.0321</ele>
        <time>2014-06-27T08:53:11Z</time>
      </trkpt>
      <trkpt lat="59.9883649" lon="17.7301742">
        <ele>39.5513</ele>
        <time>2014-06-27T08:53:12Z</time>
      </trkpt>
      <trkpt lat="59.9883799" lon="17.7301581">
        <ele>39.5513</ele>
        <time>2014-06-27T08:53:13Z</time>
      </trkpt>
      <trkpt lat="59.9883909" lon="17.7301378">
        <ele>39.5513</ele>
        <time>2014-06-27T08:53:14Z</time>
      </trkpt>
      <trkpt lat="59.9884015" lon="17.7301196">
        <ele>39.0707</ele>
        <time>2014-06-27T08:53:15Z</time>
      </trkpt>
      <trkpt lat="59.9884134" lon="17.7300965">
        <ele>38.5901</ele>
        <time>2014-06-27T08:53:16Z</time>
      </trkpt>
      <trkpt lat="59.9884291" lon="17.7300729">
        <ele>37.6287</ele>
        <time>2014-06-27T08:53:17Z</time>
      </trkpt>
      <trkpt lat="59.988446" lon="17.7300525">
        <ele>37.1481</ele>
        <time>2014-06-27T08:53:18Z</time>
      </trkpt>
      <trkpt lat="59.9884618" lon="17.7300255">
        <ele>36.6675</ele>
        <time>2014-06-27T08:53:19Z</time>
      </trkpt>
      <trkpt lat="59.9884763" lon="17.7300075">
        <ele>35.7061</ele>
        <time>2014-06-27T08:53:20Z</time>
      </trkpt>
      <trkpt lat="59.9884908" lon="17.7299913">
        <ele>35.2255</ele>
        <time>2014-06-27T08:53:21Z</time>
      </trkpt>
      <trkpt lat="59.9885073" lon="17.7299737">
        <ele>34.7449</ele>
        <time>2014-06-27T08:53:22Z</time>
      </trkpt>
      <trkpt lat="59.9885199" lon="17.7299628">
        <ele>34.7449</ele>
        <time>2014-06-27T08:53:23Z</time>
      </trkpt>
      <trkpt lat="59.9885327" lon="17.7299488">
        <ele>34.7449</ele>
        <time>2014-06-27T08:53:24Z</time>
      </trkpt>
      <trkpt lat="59.9885426" lon="17.7299356">
        <ele>34.2642</ele>
        <time>2014-06-27T08:53:25Z</time>
      </trkpt>
      <trkpt lat="59.988553" lon="17.7299115">
        <ele>33.7834</ele>
        <time>2014-06-27T08:53:26Z</time>
      </trkpt>
      <trkpt lat="59.9885648" lon="17.7298961">
        <ele>33.7834</ele>
        <time>2014-06-27T08:53:27Z</time>
      </trkpt>
      <trkpt lat="59.9885819" lon="17.729883">
        <ele>33.7834</ele>
        <time>2014-06-27T08:53:28Z</time>
      </trkpt>
      <trkpt lat="59.9886" lon="17.7298732">
        <ele>33.7834</ele>
        <time>2014-06-27T08:53:29Z</time>
      </trkpt>
      <trkpt lat="59.9886181" lon="17.7298633">
        <ele>33.7834</ele>
        <time>2014-06-27T08:53:30Z</time>
      </trkpt>
      <trkpt lat="59.9886344" lon="17.7298576">
        <ele>34.7449</ele>
        <time>2014-06-27T08:53:31Z</time>
      </trkpt>
      <trkpt lat="59.9886501" lon="17.7298437">
        <ele>34.7449</ele>
        <time>2014-06-27T08:53:32Z</time>
      </trkpt>
      <trkpt lat="59.9886643" lon="17.7298249">
        <ele>34.7449</ele>
        <time>2014-06-27T08:53:33Z</time>
      </trkpt>
      <trkpt lat="59.9886793" lon="17.7298025">
        <ele>35.2255</ele>
        <time>2014-06-27T08:53:34Z</time>
      </trkpt>
      <trkpt lat="59.9886928" lon="17.7297702">
        <ele>34.7449</ele>
        <time>2014-06-27T08:53:35Z</time>
      </trkpt>
      <trkpt lat="59.9887089" lon="17.7297515">
        <ele>35.2255</ele>
        <time>2014-06-27T08:53:36Z</time>
      </trkpt>
      <trkpt lat="59.9887212" lon="17.7297301">
        <ele>35.2255</ele>
        <time>2014-06-27T08:53:37Z</time>
      </trkpt>
      <trkpt lat="59.9887347" lon="17.7297106">
        <ele>34.7449</ele>
        <time>2014-06-27T08:53:38Z</time>
      </trkpt>
      <trkpt lat="59.9887481" lon="17.7296915">
        <ele>34.7449</ele>
        <time>2014-06-27T08:53:39Z</time>
      </trkpt>
      <trkpt lat="59.9887683" lon="17.7296722">
        <ele>35.7061</ele>
        <time>2014-06-27T08:53:40Z</time>
      </trkpt>
      <trkpt lat="59.9887804" lon="17.7296541">
        <ele>35.7061</ele>
        <time>2014-06-27T08:53:41Z</time>
      </trkpt>
      <trkpt lat="59.9887954" lon="17.7296432">
        <ele>35.7061</ele>
        <time>2014-06-27T08:53:42Z</time>
      </trkpt>
      <trkpt lat="59.9888125" lon="17.7296282">
        <ele>35.7061</ele>
        <time>2014-06-27T08:53:43Z</time>
      </trkpt>
      <trkpt lat="59.9888286" lon="17.7296058">
        <ele>36.1868</ele>
        <time>2014-06-27T08:53:44Z</time>
      </trkpt>
      <trkpt lat="59.9888446" lon="17.7295814">
        <ele>36.6675</ele>
        <time>2014-06-27T08:53:45Z</time>
      </trkpt>
      <trkpt lat="59.9888564" lon="17.7295599">
        <ele>36.1868</ele>
        <time>2014-06-27T08:53:46Z</time>
      </trkpt>
      <trkpt lat="59.9888684" lon="17.7295334">
        <ele>36.6675</ele>
        <time>2014-06-27T08:53:47Z</time>
      </trkpt>
      <trkpt lat="59.988883" lon="17.7295101">
        <ele>36.6675</ele>
        <time>2014-06-27T08:53:48Z</time>
      </trkpt>
      <trkpt lat="59.9888933" lon="17.729493">
        <ele>36.1868</ele>
        <time>2014-06-27T08:53:49Z</time>
      </trkpt>
      <trkpt lat="59.9889035" lon="17.729476">
        <ele>35.7061</ele>
        <time>2014-06-27T08:53:50Z</time>
      </trkpt>
      <trkpt lat="59.9889145" lon="17.729468">
        <ele>35.7061</ele>
        <time>2014-06-27T08:53:51Z</time>
      </trkpt>
      <trkpt lat="59.9889279" lon="17.7294607">
        <ele>35.7061</ele>
        <time>2014-06-27T08:53:52Z</time>
      </trkpt>
      <trkpt lat="59.9889397" lon="17.7294426">
        <ele>35.2255</ele>
        <time>2014-06-27T08:53:53Z</time>
      </trkpt>
      <trkpt lat="59.9889545" lon="17.7294303">
        <ele>35.2255</ele>
        <time>2014-06-27T08:53:54Z</time>
      </trkpt>
      <trkpt lat="59.9889679" lon="17.7294127">
        <ele>34.7449</ele>
        <time>2014-06-27T08:53:55Z</time>
      </trkpt>
      <trkpt lat="59.988979" lon="17.7293914">
        <ele>34.7449</ele>
        <time>2014-06-27T08:53:56Z</time>
      </trkpt>
      <trkpt lat="59.9889921" lon="17.7293717">
        <ele>34.7449</ele>
        <time>2014-06-27T08:53:57Z</time>
      </trkpt>
      <trkpt lat="59.9890086" lon="17.7293565">
        <ele>35.2255</ele>
        <time>2014-06-27T08:53:58Z</time>
      </trkpt>
      <trkpt lat="59.9890281" lon="17.7293365">
        <ele>35.2255</ele>
        <time>2014-06-27T08:53:59Z</time>
      </trkpt>
      <trkpt lat="59.989045" lon="17.7293166">
        <ele>35.2255</ele>
        <time>2014-06-27T08:54:00Z</time>
      </trkpt>
      <trkpt lat="59.9890601" lon="17.7292946">
        <ele>35.7061</ele>
        <time>2014-06-27T08:54:01Z</time>
      </trkpt>
      <trkpt lat="59.9890705" lon="17.7292753">
        <ele>35.7061</ele>
        <time>2014-06-27T08:54:02Z</time>
      </trkpt>
      <trkpt lat="59.9890835" lon="17.7292573">
        <ele>36.1868</ele>
        <time>2014-06-27T08:54:03Z</time>
      </trkpt>
      <trkpt lat="59.9890948" lon="17.7292421">
        <ele>36.1868</ele>
        <time>2014-06-27T08:54:04Z</time>
      </trkpt>
      <trkpt lat="59.989107" lon="17.7292256">
        <ele>36.6675</ele>
        <time>2014-06-27T08:54:05Z</time>
      </trkpt>
      <trkpt lat="59.9891221" lon="17.729212">
        <ele>36.6675</ele>
        <time>2014-06-27T08:54:06Z</time>
      </trkpt>
      <trkpt lat="59.9891367" lon="17.7292018">
        <ele>36.6675</ele>
        <time>2014-06-27T08:54:07Z</time>
      </trkpt>
      <trkpt lat="59.9891493" lon="17.7291848">
        <ele>36.6675</ele>
        <time>2014-06-27T08:54:08Z</time>
      </trkpt>
      <trkpt lat="59.9891699" lon="17.7291671">
        <ele>37.6287</ele>
        <time>2014-06-27T08:54:09Z</time>
      </trkpt>
      <trkpt lat="59.9891854" lon="17.7291522">
        <ele>37.6287</ele>
        <time>2014-06-27T08:54:10Z</time>
      </trkpt>
      <trkpt lat="59.9892015" lon="17.7291366">
        <ele>38.1094</ele>
        <time>2014-06-27T08:54:11Z</time>
      </trkpt>
      <trkpt lat="59.9892189" lon="17.7291158">
        <ele>38.5901</ele>
        <time>2014-06-27T08:54:12Z</time>
      </trkpt>
      <trkpt lat="59.9892311" lon="17.7290931">
        <ele>39.0707</ele>
        <time>2014-06-27T08:54:13Z</time>
      </trkpt>
      <trkpt lat="59.9892435" lon="17.7290678">
        <ele>39.0707</ele>
        <time>2014-06-27T08:54:14Z</time>
      </trkpt>
      <trkpt lat="59.9892585" lon="17.7290495">
        <ele>39.5513</ele>
        <time>2014-06-27T08:54:15Z</time>
      </trkpt>
      <trkpt lat="59.989273" lon="17.7290318">
        <ele>39.5513</ele>
        <time>2014-06-27T08:54:16Z</time>
      </trkpt>
      <trkpt lat="59.9892862" lon="17.7290081">
        <ele>39.5513</ele>
        <time>2014-06-27T08:54:17Z</time>
      </trkpt>
      <trkpt lat="59.9892995" lon="17.7289905">
        <ele>40.0321</ele>
        <time>2014-06-27T08:54:18Z</time>
      </trkpt>
      <trkpt lat="59.9893197" lon="17.7289719">
        <ele>40.5128</ele>
        <time>2014-06-27T08:54:19Z</time>
      </trkpt>
      <trkpt lat="59.9893394" lon="17.7289541">
        <ele>40.9934</ele>
        <time>2014-06-27T08:54:20Z</time>
      </trkpt>
      <trkpt lat="59.9893652" lon="17.7289354">
        <ele>41.9547</ele>
        <time>2014-06-27T08:54:21Z</time>
      </trkpt>
      <trkpt lat="59.9893812" lon="17.7289152">
        <ele>42.4354</ele>
        <time>2014-06-27T08:54:22Z</time>
      </trkpt>
      <trkpt lat="59.9893953" lon="17.7288891">
        <ele>42.4354</ele>
        <time>2014-06-27T08:54:23Z</time>
      </trkpt>
      <trkpt lat="59.9894109" lon="17.7288604">
        <ele>41.9547</ele>
        <time>2014-06-27T08:54:24Z</time>
      </trkpt>
      <trkpt lat="59.9894233" lon="17.7288366">
        <ele>41.474</ele>
        <time>2014-06-27T08:54:25Z</time>
      </trkpt>
      <trkpt lat="59.9894357" lon="17.7288207">
        <ele>41.474</ele>
        <time>2014-06-27T08:54:26Z</time>
      </trkpt>
      <trkpt lat="59.9894485" lon="17.7288033">
        <ele>41.474</ele>
        <time>2014-06-27T08:54:27Z</time>
      </trkpt>
      <trkpt lat="59.9894589" lon="17.7287796">
        <ele>40.9934</ele>
        <time>2014-06-27T08:54:28Z</time>
      </trkpt>
      <trkpt lat="59.9894707" lon="17.7287501">
        <ele>40.9934</ele>
        <time>2014-06-27T08:54:29Z</time>
      </trkpt>
      <trkpt lat="59.9894813" lon="17.7287289">
        <ele>40.5128</ele>
        <time>2014-06-27T08:54:30Z</time>
      </trkpt>
      <trkpt lat="59.9894926" lon="17.728694">
        <ele>40.5128</ele>
        <time>2014-06-27T08:54:31Z</time>
      </trkpt>
      <trkpt lat="59.9895024" lon="17.7286713">
        <ele>40.0321</ele>
        <time>2014-06-27T08:54:32Z</time>
      </trkpt>
      <trkpt lat="59.9895092" lon="17.7286445">
        <ele>39.5513</ele>
        <time>2014-06-27T08:54:33Z</time>
      </trkpt>
      <trkpt lat="59.9895164" lon="17.7286275">
        <ele>39.0707</ele>
        <time>2014-06-27T08:54:34Z</time>
      </trkpt>
      <trkpt lat="59.9895198" lon="17.728592">
        <ele>38.1094</ele>
        <time>2014-06-27T08:54:35Z</time>
      </trkpt>
      <trkpt lat="59.9895251" lon="17.7285666">
        <ele>37.6287</ele>
        <time>2014-06-27T08:54:36Z</time>
      </trkpt>
      <trkpt lat="59.9895283" lon="17.7285346">
        <ele>37.1481</ele>
        <time>2014-06-27T08:54:37Z</time>
      </trkpt>
      <trkpt lat="59.9895304" lon="17.7285036">
        <ele>36.1868</ele>
        <time>2014-06-27T08:54:38Z</time>
      </trkpt>
      <trkpt lat="59.9895354" lon="17.7284743">
        <ele>35.7061</ele>
        <time>2014-06-27T08:54:39Z</time>
      </trkpt>
      <trkpt lat="59.9895392" lon="17.728447">
        <ele>35.2255</ele>
        <time>2014-06-27T08:54:40Z</time>
      </trkpt>
      <trkpt lat="59.9895417" lon="17.7284165">
        <ele>35.2255</ele>
        <time>2014-06-27T08:54:41Z</time>
      </trkpt>
      <trkpt lat="59.9895427" lon="17.7283821">
        <ele>34.7449</ele>
        <time>2014-06-27T08:54:42Z</time>
      </trkpt>
      <trkpt lat="59.9895439" lon="17.7283495">
        <ele>34.7449</ele>
        <time>2014-06-27T08:54:43Z</time>
      </trkpt>
      <trkpt lat="59.9895439" lon="17.728311">
        <ele>34.2642</ele>
        <time>2014-06-27T08:54:44Z</time>
      </trkpt>
      <trkpt lat="59.9895426" lon="17.7282763">
        <ele>33.7834</ele>
        <time>2014-06-27T08:54:45Z</time>
      </trkpt>
      <trkpt lat="59.9895433" lon="17.7282444">
        <ele>33.7834</ele>
        <time>2014-06-27T08:54:46Z</time>
      </trkpt>
      <trkpt lat="59.9895447" lon="17.7282182">
        <ele>33.3029</ele>
        <time>2014-06-27T08:54:47Z</time>
      </trkpt>
      <trkpt lat="59.9895445" lon="17.7281922">
        <ele>33.3029</ele>
        <time>2014-06-27T08:54:48Z</time>
      </trkpt>
      <trkpt lat="59.9895453" lon="17.7281612">
        <ele>33.3029</ele>
        <time>2014-06-27T08:54:49Z</time>
      </trkpt>
      <trkpt lat="59.9895468" lon="17.7281264">
        <ele>33.7834</ele>
        <time>2014-06-27T08:54:50Z</time>
      </trkpt>
      <trkpt lat="59.9895501" lon="17.7280933">
        <ele>34.2642</ele>
        <time>2014-06-27T08:54:51Z</time>
      </trkpt>
      <trkpt lat="59.9895518" lon="17.7280587">
        <ele>34.2642</ele>
        <time>2014-06-27T08:54:52Z</time>
      </trkpt>
      <trkpt lat="59.9895522" lon="17.7280239">
        <ele>33.7834</ele>
        <time>2014-06-27T08:54:53Z</time>
      </trkpt>
      <trkpt lat="59.9895518" lon="17.7279861">
        <ele>33.7834</ele>
        <time>2014-06-27T08:54:54Z</time>
      </trkpt>
      <trkpt lat="59.9895507" lon="17.727951">
        <ele>33.7834</ele>
        <time>2014-06-27T08:54:55Z</time>
      </trkpt>
      <trkpt lat="59.9895507" lon="17.7279182">
        <ele>33.7834</ele>
        <time>2014-06-27T08:54:56Z</time>
      </trkpt>
      <trkpt lat="59.9895528" lon="17.7278762">
        <ele>33.3029</ele>
        <time>2014-06-27T08:54:57Z</time>
      </trkpt>
      <trkpt lat="59.9895544" lon="17.7278359">
        <ele>33.3029</ele>
        <time>2014-06-27T08:54:58Z</time>
      </trkpt>
      <trkpt lat="59.9895547" lon="17.727802">
        <ele>33.3029</ele>
        <time>2014-06-27T08:54:59Z</time>
      </trkpt>
      <trkpt lat="59.9895557" lon="17.7277668">
        <ele>33.3029</ele>
        <time>2014-06-27T08:55:00Z</time>
      </trkpt>
      <trkpt lat="59.9895558" lon="17.7276965">
        <ele>33.3029</ele>
        <time>2014-06-27T08:55:02Z</time>
      </trkpt>
      <trkpt lat="59.9895569" lon="17.7276637">
        <ele>33.3029</ele>
        <time>2014-06-27T08:55:03Z</time>
      </trkpt>
      <trkpt lat="59.9895579" lon="17.7276266">
        <ele>33.3029</ele>
        <time>2014-06-27T08:55:04Z</time>
      </trkpt>
      <trkpt lat="59.9895587" lon="17.7275863">
        <ele>33.3029</ele>
        <time>2014-06-27T08:55:05Z</time>
      </trkpt>
      <trkpt lat="59.9895602" lon="17.7275483">
        <ele>33.3029</ele>
        <time>2014-06-27T08:55:06Z</time>
      </trkpt>
      <trkpt lat="59.9895624" lon="17.7275148">
        <ele>33.3029</ele>
        <time>2014-06-27T08:55:07Z</time>
      </trkpt>
      <trkpt lat="59.9895661" lon="17.7274783">
        <ele>33.3029</ele>
        <time>2014-06-27T08:55:08Z</time>
      </trkpt>
      <trkpt lat="59.9895693" lon="17.7274422">
        <ele>33.7834</ele>
        <time>2014-06-27T08:55:09Z</time>
      </trkpt>
      <trkpt lat="59.9895727" lon="17.7274078">
        <ele>33.3029</ele>
        <time>2014-06-27T08:55:10Z</time>
      </trkpt>
      <trkpt lat="59.9895756" lon="17.72737">
        <ele>33.3029</ele>
        <time>2014-06-27T08:55:11Z</time>
      </trkpt>
      <trkpt lat="59.9895799" lon="17.7273332">
        <ele>33.3029</ele>
        <time>2014-06-27T08:55:12Z</time>
      </trkpt>
      <trkpt lat="59.9895831" lon="17.7272961">
        <ele>33.3029</ele>
        <time>2014-06-27T08:55:13Z</time>
      </trkpt>
      <trkpt lat="59.9895843" lon="17.7272661">
        <ele>33.3029</ele>
        <time>2014-06-27T08:55:14Z</time>
      </trkpt>
      <trkpt lat="59.9895839" lon="17.7272401">
        <ele>33.3029</ele>
        <time>2014-06-27T08:55:15Z</time>
      </trkpt>
      <trkpt lat="59.9895827" lon="17.727213">
        <ele>33.7834</ele>
        <time>2014-06-27T08:55:16Z</time>
      </trkpt>
      <trkpt lat="59.9895812" lon="17.7271855">
        <ele>34.2642</ele>
        <time>2014-06-27T08:55:17Z</time>
      </trkpt>
      <trkpt lat="59.9895842" lon="17.7271516">
        <ele>34.2642</ele>
        <time>2014-06-27T08:55:18Z</time>
      </trkpt>
      <trkpt lat="59.9895887" lon="17.7271166">
        <ele>34.2642</ele>
        <time>2014-06-27T08:55:19Z</time>
      </trkpt>
      <trkpt lat="59.989593" lon="17.7270832">
        <ele>34.7449</ele>
        <time>2014-06-27T08:55:20Z</time>
      </trkpt>
      <trkpt lat="59.989596" lon="17.7270418">
        <ele>34.2642</ele>
        <time>2014-06-27T08:55:21Z</time>
      </trkpt>
      <trkpt lat="59.9895991" lon="17.7270049">
        <ele>34.2642</ele>
        <time>2014-06-27T08:55:22Z</time>
      </trkpt>
      <trkpt lat="59.9896014" lon="17.7269759">
        <ele>34.2642</ele>
        <time>2014-06-27T08:55:23Z</time>
      </trkpt>
      <trkpt lat="59.9896036" lon="17.7269412">
        <ele>34.2642</ele>
        <time>2014-06-27T08:55:24Z</time>
      </trkpt>
      <trkpt lat="59.9896076" lon="17.7269065">
        <ele>34.2642</ele>
        <time>2014-06-27T08:55:25Z</time>
      </trkpt>
      <trkpt lat="59.9896127" lon="17.726869">
        <ele>34.2642</ele>
        <time>2014-06-27T08:55:26Z</time>
      </trkpt>
      <trkpt lat="59.9896173" lon="17.7268345">
        <ele>34.2642</ele>
        <time>2014-06-27T08:55:27Z</time>
      </trkpt>
      <trkpt lat="59.9896232" lon="17.7267957">
        <ele>34.2642</ele>
        <time>2014-06-27T08:55:28Z</time>
      </trkpt>
      <trkpt lat="59.98963" lon="17.7267525">
        <ele>34.2642</ele>
        <time>2014-06-27T08:55:29Z</time>
      </trkpt>
      <trkpt lat="59.9896396" lon="17.7267164">
        <ele>34.7449</ele>
        <time>2014-06-27T08:55:30Z</time>
      </trkpt>
      <trkpt lat="59.9896464" lon="17.7266841">
        <ele>35.2255</ele>
        <time>2014-06-27T08:55:31Z</time>
      </trkpt>
      <trkpt lat="59.9896504" lon="17.7266516">
        <ele>35.2255</ele>
        <time>2014-06-27T08:55:32Z</time>
      </trkpt>
      <trkpt lat="59.9896542" lon="17.7266211">
        <ele>35.2255</ele>
        <time>2014-06-27T08:55:33Z</time>
      </trkpt>
      <trkpt lat="59.9896531" lon="17.7265976">
        <ele>35.2255</ele>
        <time>2014-06-27T08:55:34Z</time>
      </trkpt>
      <trkpt lat="59.9896593" lon="17.726573">
        <ele>35.7061</ele>
        <time>2014-06-27T08:55:35Z</time>
      </trkpt>
      <trkpt lat="59.9896584" lon="17.7265594">
        <ele>34.7449</ele>
        <time>2014-06-27T08:55:36Z</time>
      </trkpt>
      <trkpt lat="59.9896423" lon="17.7265553">
        <ele>33.7834</ele>
        <time>2014-06-27T08:55:37Z</time>
      </trkpt>
      <trkpt lat="59.9896148" lon="17.7265587">
        <ele>32.3416</ele>
        <time>2014-06-27T08:55:38Z</time>
      </trkpt>
      <trkpt lat="59.9895957" lon="17.7265622">
        <ele>32.3416</ele>
        <time>2014-06-27T08:55:39Z</time>
      </trkpt>
      <trkpt lat="59.989579" lon="17.7265736">
        <ele>31.8607</ele>
        <time>2014-06-27T08:55:40Z</time>
      </trkpt>
      <trkpt lat="59.98956" lon="17.7265806">
        <ele>30.8995</ele>
        <time>2014-06-27T08:55:41Z</time>
      </trkpt>
      <trkpt lat="59.9895434" lon="17.7265911">
        <ele>29.9381</ele>
        <time>2014-06-27T08:55:42Z</time>
      </trkpt>
      <trkpt lat="59.9895258" lon="17.726603">
        <ele>29.4575</ele>
        <time>2014-06-27T08:55:43Z</time>
      </trkpt>
      <trkpt lat="59.9895096" lon="17.7266159">
        <ele>28.4962</ele>
        <time>2014-06-27T08:55:44Z</time>
      </trkpt>
      <trkpt lat="59.9894931" lon="17.7266221">
        <ele>27.5349</ele>
        <time>2014-06-27T08:55:45Z</time>
      </trkpt>
      <trkpt lat="59.9894772" lon="17.7266097">
        <ele>26.5736</ele>
        <time>2014-06-27T08:55:46Z</time>
      </trkpt>
      <trkpt lat="59.9894553" lon="17.7266119">
        <ele>25.1317</ele>
        <time>2014-06-27T08:55:47Z</time>
      </trkpt>
      <trkpt lat="59.9894349" lon="17.7266159">
        <ele>24.1703</ele>
        <time>2014-06-27T08:55:48Z</time>
      </trkpt>
      <trkpt lat="59.9894154" lon="17.7266273">
        <ele>23.6896</ele>
        <time>2014-06-27T08:55:49Z</time>
      </trkpt>
      <trkpt lat="59.9893957" lon="17.726634">
        <ele>22.7283</ele>
        <time>2014-06-27T08:55:50Z</time>
      </trkpt>
      <trkpt lat="59.9893759" lon="17.726631">
        <ele>22.2476</ele>
        <time>2014-06-27T08:55:51Z</time>
      </trkpt>
      <trkpt lat="59.9893574" lon="17.726623">
        <ele>21.2864</ele>
        <time>2014-06-27T08:55:52Z</time>
      </trkpt>
      <trkpt lat="59.9893382" lon="17.7266207">
        <ele>21.2864</ele>
        <time>2014-06-27T08:55:53Z</time>
      </trkpt>
      <trkpt lat="59.98932" lon="17.7266238">
        <ele>20.325</ele>
        <time>2014-06-27T08:55:54Z</time>
      </trkpt>
      <trkpt lat="59.9892971" lon="17.7266257">
        <ele>20.325</ele>
        <time>2014-06-27T08:55:55Z</time>
      </trkpt>
      <trkpt lat="59.9892754" lon="17.7266253">
        <ele>19.8444</ele>
        <time>2014-06-27T08:55:56Z</time>
      </trkpt>
      <trkpt lat="59.9892548" lon="17.7266236">
        <ele>19.3638</ele>
        <time>2014-06-27T08:55:57Z</time>
      </trkpt>
      <trkpt lat="59.9892355" lon="17.7266227">
        <ele>18.8831</ele>
        <time>2014-06-27T08:55:58Z</time>
      </trkpt>
      <trkpt lat="59.9892163" lon="17.7266227">
        <ele>18.8831</ele>
        <time>2014-06-27T08:55:59Z</time>
      </trkpt>
      <trkpt lat="59.9891966" lon="17.7266207">
        <ele>18.8831</ele>
        <time>2014-06-27T08:56:00Z</time>
      </trkpt>
      <trkpt lat="59.9891782" lon="17.7266201">
        <ele>18.8831</ele>
        <time>2014-06-27T08:56:01Z</time>
      </trkpt>
      <trkpt lat="59.9891607" lon="17.7266215">
        <ele>18.4023</ele>
        <time>2014-06-27T08:56:02Z</time>
      </trkpt>
      <trkpt lat="59.9891404" lon="17.7266252">
        <ele>17.9218</ele>
        <time>2014-06-27T08:56:03Z</time>
      </trkpt>
      <trkpt lat="59.9891184" lon="17.7266323">
        <ele>17.9218</ele>
        <time>2014-06-27T08:56:04Z</time>
      </trkpt>
      <trkpt lat="59.9890998" lon="17.7266339">
        <ele>17.9218</ele>
        <time>2014-06-27T08:56:05Z</time>
      </trkpt>
      <trkpt lat="59.9890819" lon="17.7266299">
        <ele>17.9218</ele>
        <time>2014-06-27T08:56:06Z</time>
      </trkpt>
      <trkpt lat="59.9890653" lon="17.7266279">
        <ele>17.9218</ele>
        <time>2014-06-27T08:56:07Z</time>
      </trkpt>
      <trkpt lat="59.9890491" lon="17.726628">
        <ele>17.9218</ele>
        <time>2014-06-27T08:56:08Z</time>
      </trkpt>
      <trkpt lat="59.9890336" lon="17.7266282">
        <ele>17.9218</ele>
        <time>2014-06-27T08:56:09Z</time>
      </trkpt>
      <trkpt lat="59.9890171" lon="17.7266257">
        <ele>17.4412</ele>
        <time>2014-06-27T08:56:10Z</time>
      </trkpt>
      <trkpt lat="59.988999" lon="17.7266242">
        <ele>17.4412</ele>
        <time>2014-06-27T08:56:11Z</time>
      </trkpt>
      <trkpt lat="59.9889806" lon="17.7266267">
        <ele>17.4412</ele>
        <time>2014-06-27T08:56:12Z</time>
      </trkpt>
      <trkpt lat="59.9889627" lon="17.7266272">
        <ele>17.4412</ele>
        <time>2014-06-27T08:56:13Z</time>
      </trkpt>
      <trkpt lat="59.9889452" lon="17.7266228">
        <ele>17.9218</ele>
        <time>2014-06-27T08:56:14Z</time>
      </trkpt>
      <trkpt lat="59.9889276" lon="17.7266204">
        <ele>17.9218</ele>
        <time>2014-06-27T08:56:15Z</time>
      </trkpt>
      <trkpt lat="59.9889083" lon="17.726619">
        <ele>17.4412</ele>
        <time>2014-06-27T08:56:16Z</time>
      </trkpt>
      <trkpt lat="59.9888891" lon="17.7266196">
        <ele>17.4412</ele>
        <time>2014-06-27T08:56:17Z</time>
      </trkpt>
      <trkpt lat="59.9888698" lon="17.7266253">
        <ele>17.4412</ele>
        <time>2014-06-27T08:56:18Z</time>
      </trkpt>
      <trkpt lat="59.9888523" lon="17.7266298">
        <ele>17.4412</ele>
        <time>2014-06-27T08:56:19Z</time>
      </trkpt>
      <trkpt lat="59.9888348" lon="17.7266319">
        <ele>16.9604</ele>
        <time>2014-06-27T08:56:20Z</time>
      </trkpt>
      <trkpt lat="59.9888162" lon="17.7266315">
        <ele>16.4797</ele>
        <time>2014-06-27T08:56:21Z</time>
      </trkpt>
      <trkpt lat="59.9887962" lon="17.7266326">
        <ele>16.4797</ele>
        <time>2014-06-27T08:56:22Z</time>
      </trkpt>
      <trkpt lat="59.9887766" lon="17.7266318">
        <ele>16.4797</ele>
        <time>2014-06-27T08:56:23Z</time>
      </trkpt>
      <trkpt lat="59.9887584" lon="17.7266304">
        <ele>16.4797</ele>
        <time>2014-06-27T08:56:24Z</time>
      </trkpt>
      <trkpt lat="59.9887392" lon="17.726633">
        <ele>16.4797</ele>
        <time>2014-06-27T08:56:25Z</time>
      </trkpt>
      <trkpt lat="59.98872" lon="17.7266366">
        <ele>16.4797</ele>
        <time>2014-06-27T08:56:26Z</time>
      </trkpt>
      <trkpt lat="59.988703" lon="17.726637">
        <ele>15.999</ele>
        <time>2014-06-27T08:56:27Z</time>
      </trkpt>
      <trkpt lat="59.9886865" lon="17.7266432">
        <ele>16.4797</ele>
        <time>2014-06-27T08:56:28Z</time>
      </trkpt>
      <trkpt lat="59.9886716" lon="17.7266424">
        <ele>16.9604</ele>
        <time>2014-06-27T08:56:29Z</time>
      </trkpt>
      <trkpt lat="59.9886534" lon="17.7266403">
        <ele>16.4797</ele>
        <time>2014-06-27T08:56:30Z</time>
      </trkpt>
      <trkpt lat="59.988638" lon="17.7266382">
        <ele>16.4797</ele>
        <time>2014-06-27T08:56:31Z</time>
      </trkpt>
      <trkpt lat="59.9886206" lon="17.7266377">
        <ele>16.4797</ele>
        <time>2014-06-27T08:56:32Z</time>
      </trkpt>
      <trkpt lat="59.9886016" lon="17.7266359">
        <ele>16.4797</ele>
        <time>2014-06-27T08:56:33Z</time>
      </trkpt>
      <trkpt lat="59.9885825" lon="17.726633">
        <ele>16.4797</ele>
        <time>2014-06-27T08:56:34Z</time>
      </trkpt>
      <trkpt lat="59.9885641" lon="17.726633">
        <ele>16.9604</ele>
        <time>2014-06-27T08:56:35Z</time>
      </trkpt>
      <trkpt lat="59.9885452" lon="17.7266302">
        <ele>16.9604</ele>
        <time>2014-06-27T08:56:36Z</time>
      </trkpt>
      <trkpt lat="59.9885282" lon="17.7266268">
        <ele>17.4412</ele>
        <time>2014-06-27T08:56:37Z</time>
      </trkpt>
      <trkpt lat="59.9885139" lon="17.7266264">
        <ele>17.4412</ele>
        <time>2014-06-27T08:56:38Z</time>
      </trkpt>
      <trkpt lat="59.9884979" lon="17.7266274">
        <ele>17.4412</ele>
        <time>2014-06-27T08:56:39Z</time>
      </trkpt>
      <trkpt lat="59.9884828" lon="17.7266268">
        <ele>17.4412</ele>
        <time>2014-06-27T08:56:40Z</time>
      </trkpt>
      <trkpt lat="59.9884676" lon="17.7266308">
        <ele>17.4412</ele>
        <time>2014-06-27T08:56:41Z</time>
      </trkpt>
      <trkpt lat="59.9884519" lon="17.7266329">
        <ele>17.4412</ele>
        <time>2014-06-27T08:56:42Z</time>
      </trkpt>
      <trkpt lat="59.9884347" lon="17.7266319">
        <ele>17.9218</ele>
        <time>2014-06-27T08:56:43Z</time>
      </trkpt>
      <trkpt lat="59.9884161" lon="17.7266359">
        <ele>17.9218</ele>
        <time>2014-06-27T08:56:44Z</time>
      </trkpt>
      <trkpt lat="59.9883971" lon="17.7266377">
        <ele>17.4412</ele>
        <time>2014-06-27T08:56:45Z</time>
      </trkpt>
      <trkpt lat="59.9883782" lon="17.726639">
        <ele>17.4412</ele>
        <time>2014-06-27T08:56:46Z</time>
      </trkpt>
      <trkpt lat="59.9883601" lon="17.7266403">
        <ele>17.4412</ele>
        <time>2014-06-27T08:56:47Z</time>
      </trkpt>
      <trkpt lat="59.9883411" lon="17.7266413">
        <ele>17.4412</ele>
        <time>2014-06-27T08:56:48Z</time>
      </trkpt>
      <trkpt lat="59.9883223" lon="17.7266408">
        <ele>17.4412</ele>
        <time>2014-06-27T08:56:49Z</time>
      </trkpt>
      <trkpt lat="59.988303" lon="17.7266465">
        <ele>16.9604</ele>
        <time>2014-06-27T08:56:50Z</time>
      </trkpt>
      <trkpt lat="59.9882839" lon="17.7266487">
        <ele>16.4797</ele>
        <time>2014-06-27T08:56:51Z</time>
      </trkpt>
      <trkpt lat="59.988267" lon="17.7266501">
        <ele>16.4797</ele>
        <time>2014-06-27T08:56:52Z</time>
      </trkpt>
      <trkpt lat="59.988252" lon="17.7266466">
        <ele>16.9604</ele>
        <time>2014-06-27T08:56:53Z</time>
      </trkpt>
      <trkpt lat="59.9882359" lon="17.7266454">
        <ele>16.9604</ele>
        <time>2014-06-27T08:56:54Z</time>
      </trkpt>
      <trkpt lat="59.9882204" lon="17.7266433">
        <ele>17.4412</ele>
        <time>2014-06-27T08:56:55Z</time>
      </trkpt>
      <trkpt lat="59.9882053" lon="17.7266442">
        <ele>17.9218</ele>
        <time>2014-06-27T08:56:56Z</time>
      </trkpt>
      <trkpt lat="59.9881903" lon="17.7266453">
        <ele>17.9218</ele>
        <time>2014-06-27T08:56:57Z</time>
      </trkpt>
      <trkpt lat="59.9881718" lon="17.7266439">
        <ele>17.9218</ele>
        <time>2014-06-27T08:56:58Z</time>
      </trkpt>
      <trkpt lat="59.9881545" lon="17.7266423">
        <ele>17.4412</ele>
        <time>2014-06-27T08:56:59Z</time>
      </trkpt>
      <trkpt lat="59.9881369" lon="17.7266433">
        <ele>16.9604</ele>
        <time>2014-06-27T08:57:00Z</time>
      </trkpt>
      <trkpt lat="59.9881208" lon="17.7266448">
        <ele>16.9604</ele>
        <time>2014-06-27T08:57:01Z</time>
      </trkpt>
      <trkpt lat="59.9881059" lon="17.7266456">
        <ele>16.4797</ele>
        <time>2014-06-27T08:57:02Z</time>
      </trkpt>
      <trkpt lat="59.9880898" lon="17.7266485">
        <ele>15.999</ele>
        <time>2014-06-27T08:57:03Z</time>
      </trkpt>
      <trkpt lat="59.9880728" lon="17.7266461">
        <ele>15.999</ele>
        <time>2014-06-27T08:57:04Z</time>
      </trkpt>
      <trkpt lat="59.9880545" lon="17.7266433">
        <ele>15.999</ele>
        <time>2014-06-27T08:57:05Z</time>
      </trkpt>
      <trkpt lat="59.988036" lon="17.7266453">
        <ele>16.4797</ele>
        <time>2014-06-27T08:57:06Z</time>
      </trkpt>
      <trkpt lat="59.9880189" lon="17.7266444">
        <ele>15.999</ele>
        <time>2014-06-27T08:57:07Z</time>
      </trkpt>
      <trkpt lat="59.9880019" lon="17.7266437">
        <ele>16.4797</ele>
        <time>2014-06-27T08:57:08Z</time>
      </trkpt>
      <trkpt lat="59.9879862" lon="17.726646">
        <ele>16.4797</ele>
        <time>2014-06-27T08:57:09Z</time>
      </trkpt>
      <trkpt lat="59.9879697" lon="17.7266468">
        <ele>15.999</ele>
        <time>2014-06-27T08:57:10Z</time>
      </trkpt>
      <trkpt lat="59.9879493" lon="17.7266454">
        <ele>15.5184</ele>
        <time>2014-06-27T08:57:11Z</time>
      </trkpt>
      <trkpt lat="59.9879285" lon="17.726644">
        <ele>15.5184</ele>
        <time>2014-06-27T08:57:12Z</time>
      </trkpt>
      <trkpt lat="59.9879088" lon="17.726644">
        <ele>15.999</ele>
        <time>2014-06-27T08:57:13Z</time>
      </trkpt>
      <trkpt lat="59.9878909" lon="17.7266449">
        <ele>15.999</ele>
        <time>2014-06-27T08:57:14Z</time>
      </trkpt>
      <trkpt lat="59.9878712" lon="17.7266453">
        <ele>15.999</ele>
        <time>2014-06-27T08:57:15Z</time>
      </trkpt>
      <trkpt lat="59.9878537" lon="17.7266392">
        <ele>16.9604</ele>
        <time>2014-06-27T08:57:16Z</time>
      </trkpt>
      <trkpt lat="59.9878323" lon="17.7266382">
        <ele>17.4412</ele>
        <time>2014-06-27T08:57:17Z</time>
      </trkpt>
      <trkpt lat="59.9878127" lon="17.7266401">
        <ele>17.9218</ele>
        <time>2014-06-27T08:57:18Z</time>
      </trkpt>
      <trkpt lat="59.9877951" lon="17.7266413">
        <ele>17.4412</ele>
        <time>2014-06-27T08:57:19Z</time>
      </trkpt>
      <trkpt lat="59.9877785" lon="17.7266427">
        <ele>18.4023</ele>
        <time>2014-06-27T08:57:20Z</time>
      </trkpt>
      <trkpt lat="59.9877631" lon="17.7266387">
        <ele>18.4023</ele>
        <time>2014-06-27T08:57:21Z</time>
      </trkpt>
      <trkpt lat="59.9877454" lon="17.7266396">
        <ele>18.8831</ele>
        <time>2014-06-27T08:57:22Z</time>
      </trkpt>
      <trkpt lat="59.9877258" lon="17.7266383">
        <ele>18.8831</ele>
        <time>2014-06-27T08:57:23Z</time>
      </trkpt>
      <trkpt lat="59.9877059" lon="17.7266392">
        <ele>18.4023</ele>
        <time>2014-06-27T08:57:24Z</time>
      </trkpt>
      <trkpt lat="59.9876873" lon="17.7266382">
        <ele>18.4023</ele>
        <time>2014-06-27T08:57:25Z</time>
      </trkpt>
      <trkpt lat="59.9876703" lon="17.7266393">
        <ele>18.8831</ele>
        <time>2014-06-27T08:57:26Z</time>
      </trkpt>
      <trkpt lat="59.9876532" lon="17.7266439">
        <ele>18.8831</ele>
        <time>2014-06-27T08:57:27Z</time>
      </trkpt>
      <trkpt lat="59.9876366" lon="17.7266465">
        <ele>18.8831</ele>
        <time>2014-06-27T08:57:28Z</time>
      </trkpt>
      <trkpt lat="59.9876196" lon="17.7266468">
        <ele>18.4023</ele>
        <time>2014-06-27T08:57:29Z</time>
      </trkpt>
      <trkpt lat="59.9876023" lon="17.7266447">
        <ele>17.4412</ele>
        <time>2014-06-27T08:57:30Z</time>
      </trkpt>
      <trkpt lat="59.9875854" lon="17.7266447">
        <ele>17.4412</ele>
        <time>2014-06-27T08:57:31Z</time>
      </trkpt>
      <trkpt lat="59.9875695" lon="17.726646">
        <ele>17.4412</ele>
        <time>2014-06-27T08:57:32Z</time>
      </trkpt>
      <trkpt lat="59.9875542" lon="17.7266458">
        <ele>16.9604</ele>
        <time>2014-06-27T08:57:33Z</time>
      </trkpt>
      <trkpt lat="59.9875379" lon="17.7266463">
        <ele>16.9604</ele>
        <time>2014-06-27T08:57:34Z</time>
      </trkpt>
      <trkpt lat="59.9875212" lon="17.7266465">
        <ele>16.9604</ele>
        <time>2014-06-27T08:57:35Z</time>
      </trkpt>
      <trkpt lat="59.987506" lon="17.7266491">
        <ele>16.9604</ele>
        <time>2014-06-27T08:57:36Z</time>
      </trkpt>
      <trkpt lat="59.987491" lon="17.726652">
        <ele>16.4797</ele>
        <time>2014-06-27T08:57:37Z</time>
      </trkpt>
      <trkpt lat="59.9874739" lon="17.7266546">
        <ele>16.4797</ele>
        <time>2014-06-27T08:57:38Z</time>
      </trkpt>
      <trkpt lat="59.9874563" lon="17.7266588">
        <ele>16.4797</ele>
        <time>2014-06-27T08:57:39Z</time>
      </trkpt>
      <trkpt lat="59.9874403" lon="17.7266572">
        <ele>16.4797</ele>
        <time>2014-06-27T08:57:40Z</time>
      </trkpt>
      <trkpt lat="59.9874214" lon="17.7266572">
        <ele>16.9604</ele>
        <time>2014-06-27T08:57:41Z</time>
      </trkpt>
      <trkpt lat="59.987405" lon="17.7266532">
        <ele>17.4412</ele>
        <time>2014-06-27T08:57:42Z</time>
      </trkpt>
      <trkpt lat="59.987388" lon="17.7266506">
        <ele>16.9604</ele>
        <time>2014-06-27T08:57:43Z</time>
      </trkpt>
      <trkpt lat="59.9873715" lon="17.7266484">
        <ele>16.9604</ele>
        <time>2014-06-27T08:57:44Z</time>
      </trkpt>
      <trkpt lat="59.9873549" lon="17.7266468">
        <ele>16.9604</ele>
        <time>2014-06-27T08:57:45Z</time>
      </trkpt>
      <trkpt lat="59.9873402" lon="17.7266473">
        <ele>17.4412</ele>
        <time>2014-06-27T08:57:46Z</time>
      </trkpt>
      <trkpt lat="59.9873242" lon="17.7266518">
        <ele>17.4412</ele>
        <time>2014-06-27T08:57:47Z</time>
      </trkpt>
      <trkpt lat="59.9873085" lon="17.7266543">
        <ele>17.4412</ele>
        <time>2014-06-27T08:57:48Z</time>
      </trkpt>
      <trkpt lat="59.987295" lon="17.7266568">
        <ele>17.9218</ele>
        <time>2014-06-27T08:57:49Z</time>
      </trkpt>
      <trkpt lat="59.9872815" lon="17.7266598">
        <ele>17.4412</ele>
        <time>2014-06-27T08:57:50Z</time>
      </trkpt>
      <trkpt lat="59.9872681" lon="17.726662">
        <ele>17.4412</ele>
        <time>2014-06-27T08:57:51Z</time>
      </trkpt>
      <trkpt lat="59.9872532" lon="17.7266598">
        <ele>17.4412</ele>
        <time>2014-06-27T08:57:52Z</time>
      </trkpt>
      <trkpt lat="59.9872356" lon="17.7266608">
        <ele>17.4412</ele>
        <time>2014-06-27T08:57:53Z</time>
      </trkpt>
      <trkpt lat="59.9872197" lon="17.726661">
        <ele>17.9218</ele>
        <time>2014-06-27T08:57:54Z</time>
      </trkpt>
      <trkpt lat="59.987203" lon="17.7266584">
        <ele>17.4412</ele>
        <time>2014-06-27T08:57:55Z</time>
      </trkpt>
      <trkpt lat="59.9871831" lon="17.7266568">
        <ele>17.4412</ele>
        <time>2014-06-27T08:57:56Z</time>
      </trkpt>
      <trkpt lat="59.9871634" lon="17.7266561">
        <ele>17.4412</ele>
        <time>2014-06-27T08:57:57Z</time>
      </trkpt>
      <trkpt lat="59.9871469" lon="17.7266538">
        <ele>17.4412</ele>
        <time>2014-06-27T08:57:58Z</time>
      </trkpt>
      <trkpt lat="59.9871298" lon="17.7266522">
        <ele>16.9604</ele>
        <time>2014-06-27T08:57:59Z</time>
      </trkpt>
      <trkpt lat="59.9871119" lon="17.7266491">
        <ele>17.4412</ele>
        <time>2014-06-27T08:58:00Z</time>
      </trkpt>
      <trkpt lat="59.987091" lon="17.7266448">
        <ele>17.4412</ele>
        <time>2014-06-27T08:58:01Z</time>
      </trkpt>
      <trkpt lat="59.9870709" lon="17.726644">
        <ele>16.9604</ele>
        <time>2014-06-27T08:58:02Z</time>
      </trkpt>
      <trkpt lat="59.9870552" lon="17.7266428">
        <ele>16.9604</ele>
        <time>2014-06-27T08:58:03Z</time>
      </trkpt>
      <trkpt lat="59.9870373" lon="17.7266404">
        <ele>16.9604</ele>
        <time>2014-06-27T08:58:04Z</time>
      </trkpt>
      <trkpt lat="59.987017" lon="17.7266386">
        <ele>17.4412</ele>
        <time>2014-06-27T08:58:05Z</time>
      </trkpt>
      <trkpt lat="59.9869957" lon="17.7266385">
        <ele>17.4412</ele>
        <time>2014-06-27T08:58:06Z</time>
      </trkpt>
      <trkpt lat="59.9869769" lon="17.7266424">
        <ele>18.4023</ele>
        <time>2014-06-27T08:58:07Z</time>
      </trkpt>
      <trkpt lat="59.9869612" lon="17.7266448">
        <ele>18.8831</ele>
        <time>2014-06-27T08:58:08Z</time>
      </trkpt>
      <trkpt lat="59.9869445" lon="17.7266408">
        <ele>18.8831</ele>
        <time>2014-06-27T08:58:09Z</time>
      </trkpt>
      <trkpt lat="59.9869243" lon="17.7266413">
        <ele>19.3638</ele>
        <time>2014-06-27T08:58:10Z</time>
      </trkpt>
      <trkpt lat="59.9869061" lon="17.7266388">
        <ele>19.3638</ele>
        <time>2014-06-27T08:58:11Z</time>
      </trkpt>
      <trkpt lat="59.9868899" lon="17.726635">
        <ele>19.3638</ele>
        <time>2014-06-27T08:58:12Z</time>
      </trkpt>
      <trkpt lat="59.9868715" lon="17.7266324">
        <ele>19.3638</ele>
        <time>2014-06-27T08:58:13Z</time>
      </trkpt>
      <trkpt lat="59.9868495" lon="17.726633">
        <ele>18.8831</ele>
        <time>2014-06-27T08:58:14Z</time>
      </trkpt>
      <trkpt lat="59.9868301" lon="17.726632">
        <ele>18.8831</ele>
        <time>2014-06-27T08:58:15Z</time>
      </trkpt>
      <trkpt lat="59.9868113" lon="17.7266365">
        <ele>18.8831</ele>
        <time>2014-06-27T08:58:16Z</time>
      </trkpt>
      <trkpt lat="59.9867937" lon="17.7266377">
        <ele>18.8831</ele>
        <time>2014-06-27T08:58:17Z</time>
      </trkpt>
      <trkpt lat="59.9867762" lon="17.7266373">
        <ele>18.4023</ele>
        <time>2014-06-27T08:58:18Z</time>
      </trkpt>
      <trkpt lat="59.986757" lon="17.7266372">
        <ele>18.4023</ele>
        <time>2014-06-27T08:58:19Z</time>
      </trkpt>
      <trkpt lat="59.9867386" lon="17.7266361">
        <ele>17.9218</ele>
        <time>2014-06-27T08:58:20Z</time>
      </trkpt>
      <trkpt lat="59.9867207" lon="17.726639">
        <ele>17.9218</ele>
        <time>2014-06-27T08:58:21Z</time>
      </trkpt>
      <trkpt lat="59.9867043" lon="17.7266398">
        <ele>18.4023</ele>
        <time>2014-06-27T08:58:22Z</time>
      </trkpt>
      <trkpt lat="59.9866871" lon="17.7266388">
        <ele>17.9218</ele>
        <time>2014-06-27T08:58:23Z</time>
      </trkpt>
      <trkpt lat="59.9866688" lon="17.7266404">
        <ele>17.9218</ele>
        <time>2014-06-27T08:58:24Z</time>
      </trkpt>
      <trkpt lat="59.9866518" lon="17.726638">
        <ele>18.4023</ele>
        <time>2014-06-27T08:58:25Z</time>
      </trkpt>
      <trkpt lat="59.9866358" lon="17.7266373">
        <ele>18.4023</ele>
        <time>2014-06-27T08:58:26Z</time>
      </trkpt>
      <trkpt lat="59.9866219" lon="17.726638">
        <ele>18.8831</ele>
        <time>2014-06-27T08:58:27Z</time>
      </trkpt>
      <trkpt lat="59.9866088" lon="17.726638">
        <ele>18.8831</ele>
        <time>2014-06-27T08:58:28Z</time>
      </trkpt>
      <trkpt lat="59.9865943" lon="17.726637">
        <ele>18.8831</ele>
        <time>2014-06-27T08:58:29Z</time>
      </trkpt>
      <trkpt lat="59.9865791" lon="17.7266367">
        <ele>19.3638</ele>
        <time>2014-06-27T08:58:30Z</time>
      </trkpt>
      <trkpt lat="59.9865646" lon="17.7266352">
        <ele>19.8444</ele>
        <time>2014-06-27T08:58:31Z</time>
      </trkpt>
      <trkpt lat="59.9865482" lon="17.7266393">
        <ele>19.8444</ele>
        <time>2014-06-27T08:58:32Z</time>
      </trkpt>
      <trkpt lat="59.9865323" lon="17.7266435">
        <ele>20.325</ele>
        <time>2014-06-27T08:58:33Z</time>
      </trkpt>
      <trkpt lat="59.9865171" lon="17.7266434">
        <ele>20.325</ele>
        <time>2014-06-27T08:58:34Z</time>
      </trkpt>
      <trkpt lat="59.9864993" lon="17.7266445">
        <ele>20.325</ele>
        <time>2014-06-27T08:58:35Z</time>
      </trkpt>
      <trkpt lat="59.986481" lon="17.7266491">
        <ele>19.8444</ele>
        <time>2014-06-27T08:58:36Z</time>
      </trkpt>
      <trkpt lat="59.9864631" lon="17.72665">
        <ele>19.3638</ele>
        <time>2014-06-27T08:58:37Z</time>
      </trkpt>
      <trkpt lat="59.9864436" lon="17.726651">
        <ele>19.3638</ele>
        <time>2014-06-27T08:58:38Z</time>
      </trkpt>
      <trkpt lat="59.9864254" lon="17.7266495">
        <ele>19.3638</ele>
        <time>2014-06-27T08:58:39Z</time>
      </trkpt>
      <trkpt lat="59.9864095" lon="17.7266468">
        <ele>19.3638</ele>
        <time>2014-06-27T08:58:40Z</time>
      </trkpt>
      <trkpt lat="59.9863913" lon="17.7266479">
        <ele>18.8831</ele>
        <time>2014-06-27T08:58:41Z</time>
      </trkpt>
      <trkpt lat="59.9863699" lon="17.7266517">
        <ele>18.4023</ele>
        <time>2014-06-27T08:58:42Z</time>
      </trkpt>
      <trkpt lat="59.9863507" lon="17.7266512">
        <ele>18.4023</ele>
        <time>2014-06-27T08:58:43Z</time>
      </trkpt>
      <trkpt lat="59.9863338" lon="17.7266497">
        <ele>18.4023</ele>
        <time>2014-06-27T08:58:44Z</time>
      </trkpt>
      <trkpt lat="59.9863168" lon="17.7266434">
        <ele>18.8831</ele>
        <time>2014-06-27T08:58:45Z</time>
      </trkpt>
      <trkpt lat="59.9862989" lon="17.7266388">
        <ele>19.3638</ele>
        <time>2014-06-27T08:58:46Z</time>
      </trkpt>
      <trkpt lat="59.9862857" lon="17.7266326">
        <ele>19.8444</ele>
        <time>2014-06-27T08:58:47Z</time>
      </trkpt>
      <trkpt lat="59.9862706" lon="17.7266321">
        <ele>19.8444</ele>
        <time>2014-06-27T08:58:48Z</time>
      </trkpt>
      <trkpt lat="59.9862576" lon="17.7266294">
        <ele>19.8444</ele>
        <time>2014-06-27T08:58:49Z</time>
      </trkpt>
      <trkpt lat="59.9862403" lon="17.7266268">
        <ele>20.325</ele>
        <time>2014-06-27T08:58:50Z</time>
      </trkpt>
      <trkpt lat="59.9862186" lon="17.7266253">
        <ele>20.325</ele>
        <time>2014-06-27T08:58:51Z</time>
      </trkpt>
      <trkpt lat="59.9861992" lon="17.7266273">
        <ele>20.8057</ele>
        <time>2014-06-27T08:58:52Z</time>
      </trkpt>
      <trkpt lat="59.9861798" lon="17.7266305">
        <ele>20.8057</ele>
        <time>2014-06-27T08:58:53Z</time>
      </trkpt>
      <trkpt lat="59.9861614" lon="17.7266331">
        <ele>21.2864</ele>
        <time>2014-06-27T08:58:54Z</time>
      </trkpt>
      <trkpt lat="59.986145" lon="17.7266364">
        <ele>21.2864</ele>
        <time>2014-06-27T08:58:55Z</time>
      </trkpt>
      <trkpt lat="59.9861317" lon="17.7266366">
        <ele>22.2476</ele>
        <time>2014-06-27T08:58:56Z</time>
      </trkpt>
      <trkpt lat="59.9861166" lon="17.7266367">
        <ele>22.2476</ele>
        <time>2014-06-27T08:58:57Z</time>
      </trkpt>
      <trkpt lat="59.986099" lon="17.7266371">
        <ele>22.7283</ele>
        <time>2014-06-27T08:58:58Z</time>
      </trkpt>
      <trkpt lat="59.9860825" lon="17.7266378">
        <ele>22.7283</ele>
        <time>2014-06-27T08:58:59Z</time>
      </trkpt>
      <trkpt lat="59.986066" lon="17.7266355">
        <ele>22.7283</ele>
        <time>2014-06-27T08:59:00Z</time>
      </trkpt>
      <trkpt lat="59.9860473" lon="17.7266342">
        <ele>22.7283</ele>
        <time>2014-06-27T08:59:01Z</time>
      </trkpt>
      <trkpt lat="59.9860276" lon="17.7266313">
        <ele>23.209</ele>
        <time>2014-06-27T08:59:02Z</time>
      </trkpt>
      <trkpt lat="59.9860089" lon="17.726631">
        <ele>23.209</ele>
        <time>2014-06-27T08:59:03Z</time>
      </trkpt>
      <trkpt lat="59.9859918" lon="17.7266334">
        <ele>23.209</ele>
        <time>2014-06-27T08:59:04Z</time>
      </trkpt>
      <trkpt lat="59.9859728" lon="17.7266372">
        <ele>23.6896</ele>
        <time>2014-06-27T08:59:05Z</time>
      </trkpt>
      <trkpt lat="59.985952" lon="17.7266437">
        <ele>23.209</ele>
        <time>2014-06-27T08:59:06Z</time>
      </trkpt>
      <trkpt lat="59.9859326" lon="17.7266465">
        <ele>22.7283</ele>
        <time>2014-06-27T08:59:07Z</time>
      </trkpt>
      <trkpt lat="59.9859132" lon="17.7266489">
        <ele>22.7283</ele>
        <time>2014-06-27T08:59:08Z</time>
      </trkpt>
      <trkpt lat="59.9858961" lon="17.7266464">
        <ele>22.2476</ele>
        <time>2014-06-27T08:59:09Z</time>
      </trkpt>
      <trkpt lat="59.9858784" lon="17.7266518">
        <ele>22.2476</ele>
        <time>2014-06-27T08:59:10Z</time>
      </trkpt>
      <trkpt lat="59.9858601" lon="17.7266554">
        <ele>22.2476</ele>
        <time>2014-06-27T08:59:11Z</time>
      </trkpt>
      <trkpt lat="59.98584" lon="17.7266614">
        <ele>22.2476</ele>
        <time>2014-06-27T08:59:12Z</time>
      </trkpt>
      <trkpt lat="59.985821" lon="17.7266626">
        <ele>21.767</ele>
        <time>2014-06-27T08:59:13Z</time>
      </trkpt>
      <trkpt lat="59.9858007" lon="17.7266618">
        <ele>21.767</ele>
        <time>2014-06-27T08:59:14Z</time>
      </trkpt>
      <trkpt lat="59.9857831" lon="17.7266544">
        <ele>21.767</ele>
        <time>2014-06-27T08:59:15Z</time>
      </trkpt>
      <trkpt lat="59.9857669" lon="17.7266496">
        <ele>21.767</ele>
        <time>2014-06-27T08:59:16Z</time>
      </trkpt>
      <trkpt lat="59.9857503" lon="17.7266487">
        <ele>21.767</ele>
        <time>2014-06-27T08:59:17Z</time>
      </trkpt>
      <trkpt lat="59.9857318" lon="17.7266456">
        <ele>20.8057</ele>
        <time>2014-06-27T08:59:18Z</time>
      </trkpt>
      <trkpt lat="59.9857152" lon="17.7266442">
        <ele>21.2864</ele>
        <time>2014-06-27T08:59:19Z</time>
      </trkpt>
      <trkpt lat="59.9857002" lon="17.7266459">
        <ele>20.8057</ele>
        <time>2014-06-27T08:59:20Z</time>
      </trkpt>
      <trkpt lat="59.9856829" lon="17.7266513">
        <ele>20.325</ele>
        <time>2014-06-27T08:59:21Z</time>
      </trkpt>
      <trkpt lat="59.9856654" lon="17.7266546">
        <ele>20.325</ele>
        <time>2014-06-27T08:59:22Z</time>
      </trkpt>
      <trkpt lat="59.9856467" lon="17.7266589">
        <ele>20.325</ele>
        <time>2014-06-27T08:59:23Z</time>
      </trkpt>
      <trkpt lat="59.9856293" lon="17.7266646">
        <ele>19.8444</ele>
        <time>2014-06-27T08:59:24Z</time>
      </trkpt>
      <trkpt lat="59.9856122" lon="17.7266641">
        <ele>19.8444</ele>
        <time>2014-06-27T08:59:25Z</time>
      </trkpt>
      <trkpt lat="59.9855944" lon="17.7266651">
        <ele>19.8444</ele>
        <time>2014-06-27T08:59:26Z</time>
      </trkpt>
      <trkpt lat="59.985577" lon="17.7266645">
        <ele>20.325</ele>
        <time>2014-06-27T08:59:27Z</time>
      </trkpt>
      <trkpt lat="59.985561" lon="17.7266605">
        <ele>20.8057</ele>
        <time>2014-06-27T08:59:28Z</time>
      </trkpt>
      <trkpt lat="59.9855452" lon="17.7266578">
        <ele>20.8057</ele>
        <time>2014-06-27T08:59:29Z</time>
      </trkpt>
      <trkpt lat="59.9855308" lon="17.7266569">
        <ele>20.8057</ele>
        <time>2014-06-27T08:59:30Z</time>
      </trkpt>
      <trkpt lat="59.985517" lon="17.7266525">
        <ele>21.2864</ele>
        <time>2014-06-27T08:59:31Z</time>
      </trkpt>
      <trkpt lat="59.9855017" lon="17.7266515">
        <ele>21.2864</ele>
        <time>2014-06-27T08:59:32Z</time>
      </trkpt>
      <trkpt lat="59.9854845" lon="17.7266535">
        <ele>21.767</ele>
        <time>2014-06-27T08:59:33Z</time>
      </trkpt>
      <trkpt lat="59.9854666" lon="17.7266517">
        <ele>22.7283</ele>
        <time>2014-06-27T08:59:34Z</time>
      </trkpt>
      <trkpt lat="59.9854484" lon="17.7266475">
        <ele>23.209</ele>
        <time>2014-06-27T08:59:35Z</time>
      </trkpt>
      <trkpt lat="59.9854298" lon="17.7266464">
        <ele>23.209</ele>
        <time>2014-06-27T08:59:36Z</time>
      </trkpt>
      <trkpt lat="59.9854117" lon="17.726644">
        <ele>23.209</ele>
        <time>2014-06-27T08:59:37Z</time>
      </trkpt>
      <trkpt lat="59.9853951" lon="17.7266372">
        <ele>23.6896</ele>
        <time>2014-06-27T08:59:38Z</time>
      </trkpt>
      <trkpt lat="59.9853785" lon="17.7266328">
        <ele>23.6896</ele>
        <time>2014-06-27T08:59:39Z</time>
      </trkpt>
      <trkpt lat="59.9853625" lon="17.7266283">
        <ele>24.1703</ele>
        <time>2014-06-27T08:59:40Z</time>
      </trkpt>
      <trkpt lat="59.9853437" lon="17.7266227">
        <ele>23.6896</ele>
        <time>2014-06-27T08:59:41Z</time>
      </trkpt>
      <trkpt lat="59.9853226" lon="17.7266193">
        <ele>23.6896</ele>
        <time>2014-06-27T08:59:42Z</time>
      </trkpt>
      <trkpt lat="59.985304" lon="17.7266196">
        <ele>24.1703</ele>
        <time>2014-06-27T08:59:43Z</time>
      </trkpt>
      <trkpt lat="59.9852858" lon="17.7266227">
        <ele>24.1703</ele>
        <time>2014-06-27T08:59:44Z</time>
      </trkpt>
      <trkpt lat="59.9852698" lon="17.7266232">
        <ele>24.651</ele>
        <time>2014-06-27T08:59:45Z</time>
      </trkpt>
      <trkpt lat="59.9852537" lon="17.7266245">
        <ele>25.1317</ele>
        <time>2014-06-27T08:59:46Z</time>
      </trkpt>
      <trkpt lat="59.9852383" lon="17.7266283">
        <ele>25.6123</ele>
        <time>2014-06-27T08:59:47Z</time>
      </trkpt>
      <trkpt lat="59.9852236" lon="17.726629">
        <ele>25.6123</ele>
        <time>2014-06-27T08:59:48Z</time>
      </trkpt>
      <trkpt lat="59.985208" lon="17.7266321">
        <ele>26.0929</ele>
        <time>2014-06-27T08:59:49Z</time>
      </trkpt>
      <trkpt lat="59.9851934" lon="17.7266309">
        <ele>26.5736</ele>
        <time>2014-06-27T08:59:50Z</time>
      </trkpt>
      <trkpt lat="59.9851765" lon="17.7266253">
        <ele>26.0929</ele>
        <time>2014-06-27T08:59:51Z</time>
      </trkpt>
      <trkpt lat="59.98516" lon="17.7266216">
        <ele>26.5736</ele>
        <time>2014-06-27T08:59:52Z</time>
      </trkpt>
      <trkpt lat="59.985143" lon="17.726618">
        <ele>26.5736</ele>
        <time>2014-06-27T08:59:53Z</time>
      </trkpt>
      <trkpt lat="59.9851246" lon="17.7266159">
        <ele>26.5736</ele>
        <time>2014-06-27T08:59:54Z</time>
      </trkpt>
      <trkpt lat="59.9851056" lon="17.7266148">
        <ele>26.5736</ele>
        <time>2014-06-27T08:59:55Z</time>
      </trkpt>
      <trkpt lat="59.9850895" lon="17.7266137">
        <ele>26.5736</ele>
        <time>2014-06-27T08:59:56Z</time>
      </trkpt>
      <trkpt lat="59.9850756" lon="17.7266144">
        <ele>26.5736</ele>
        <time>2014-06-27T08:59:57Z</time>
      </trkpt>
      <trkpt lat="59.9850605" lon="17.7266139">
        <ele>26.5736</ele>
        <time>2014-06-27T08:59:58Z</time>
      </trkpt>
      <trkpt lat="59.9850439" lon="17.7266128">
        <ele>26.5736</ele>
        <time>2014-06-27T08:59:59Z</time>
      </trkpt>
      <trkpt lat="59.9850299" lon="17.7266131">
        <ele>27.0543</ele>
        <time>2014-06-27T09:00:00Z</time>
      </trkpt>
      <trkpt lat="59.985016" lon="17.7266134">
        <ele>27.5349</ele>
        <time>2014-06-27T09:00:01Z</time>
      </trkpt>
      <trkpt lat="59.9850004" lon="17.7266154">
        <ele>27.5349</ele>
        <time>2014-06-27T09:00:02Z</time>
      </trkpt>
      <trkpt lat="59.9849828" lon="17.7266211">
        <ele>27.5349</ele>
        <time>2014-06-27T09:00:03Z</time>
      </trkpt>
      <trkpt lat="59.9849657" lon="17.7266232">
        <ele>28.0155</ele>
        <time>2014-06-27T09:00:04Z</time>
      </trkpt>
      <trkpt lat="59.98495" lon="17.726618">
        <ele>28.0155</ele>
        <time>2014-06-27T09:00:05Z</time>
      </trkpt>
      <trkpt lat="59.9849292" lon="17.7266127">
        <ele>27.5349</ele>
        <time>2014-06-27T09:00:06Z</time>
      </trkpt>
      <trkpt lat="59.9849056" lon="17.7266112">
        <ele>27.5349</ele>
        <time>2014-06-27T09:00:07Z</time>
      </trkpt>
      <trkpt lat="59.9848849" lon="17.7266109">
        <ele>27.0543</ele>
        <time>2014-06-27T09:00:08Z</time>
      </trkpt>
      <trkpt lat="59.9848657" lon="17.7266157">
        <ele>26.5736</ele>
        <time>2014-06-27T09:00:09Z</time>
      </trkpt>
      <trkpt lat="59.9848462" lon="17.7266231">
        <ele>26.5736</ele>
        <time>2014-06-27T09:00:10Z</time>
      </trkpt>
      <trkpt lat="59.9848268" lon="17.7266297">
        <ele>26.5736</ele>
        <time>2014-06-27T09:00:11Z</time>
      </trkpt>
      <trkpt lat="59.9848078" lon="17.7266355">
        <ele>27.0543</ele>
        <time>2014-06-27T09:00:12Z</time>
      </trkpt>
      <trkpt lat="59.984794" lon="17.7266344">
        <ele>27.0543</ele>
        <time>2014-06-27T09:00:13Z</time>
      </trkpt>
      <trkpt lat="59.9847797" lon="17.7266334">
        <ele>27.0543</ele>
        <time>2014-06-27T09:00:14Z</time>
      </trkpt>
      <trkpt lat="59.9847621" lon="17.7266368">
        <ele>27.0543</ele>
        <time>2014-06-27T09:00:15Z</time>
      </trkpt>
      <trkpt lat="59.9847426" lon="17.7266383">
        <ele>27.0543</ele>
        <time>2014-06-27T09:00:16Z</time>
      </trkpt>
      <trkpt lat="59.9847248" lon="17.7266425">
        <ele>26.5736</ele>
        <time>2014-06-27T09:00:17Z</time>
      </trkpt>
      <trkpt lat="59.9847096" lon="17.7266444">
        <ele>26.0929</ele>
        <time>2014-06-27T09:00:18Z</time>
      </trkpt>
      <trkpt lat="59.9846891" lon="17.7266507">
        <ele>26.0929</ele>
        <time>2014-06-27T09:00:19Z</time>
      </trkpt>
      <trkpt lat="59.9846704" lon="17.7266473">
        <ele>26.0929</ele>
        <time>2014-06-27T09:00:20Z</time>
      </trkpt>
      <trkpt lat="59.9846516" lon="17.7266435">
        <ele>25.6123</ele>
        <time>2014-06-27T09:00:21Z</time>
      </trkpt>
      <trkpt lat="59.98463" lon="17.7266406">
        <ele>25.6123</ele>
        <time>2014-06-27T09:00:22Z</time>
      </trkpt>
      <trkpt lat="59.9846107" lon="17.7266398">
        <ele>25.6123</ele>
        <time>2014-06-27T09:00:23Z</time>
      </trkpt>
      <trkpt lat="59.9845969" lon="17.7266406">
        <ele>25.6123</ele>
        <time>2014-06-27T09:00:24Z</time>
      </trkpt>
      <trkpt lat="59.9845798" lon="17.7266449">
        <ele>26.0929</ele>
        <time>2014-06-27T09:00:25Z</time>
      </trkpt>
      <trkpt lat="59.9845641" lon="17.7266447">
        <ele>26.0929</ele>
        <time>2014-06-27T09:00:26Z</time>
      </trkpt>
      <trkpt lat="59.9845379" lon="17.7266354">
        <ele>26.5736</ele>
        <time>2014-06-27T09:00:28Z</time>
      </trkpt>
      <trkpt lat="59.9845221" lon="17.7266364">
        <ele>26.5736</ele>
        <time>2014-06-27T09:00:29Z</time>
      </trkpt>
      <trkpt lat="59.9845069" lon="17.7266351">
        <ele>27.0543</ele>
        <time>2014-06-27T09:00:30Z</time>
      </trkpt>
      <trkpt lat="59.9844901" lon="17.726637">
        <ele>27.5349</ele>
        <time>2014-06-27T09:00:31Z</time>
      </trkpt>
      <trkpt lat="59.9844766" lon="17.7266352">
        <ele>27.5349</ele>
        <time>2014-06-27T09:00:32Z</time>
      </trkpt>
      <trkpt lat="59.984463" lon="17.7266333">
        <ele>27.5349</ele>
        <time>2014-06-27T09:00:33Z</time>
      </trkpt>
      <trkpt lat="59.9844452" lon="17.7266313">
        <ele>27.5349</ele>
        <time>2014-06-27T09:00:34Z</time>
      </trkpt>
      <trkpt lat="59.9844258" lon="17.726632">
        <ele>27.5349</ele>
        <time>2014-06-27T09:00:35Z</time>
      </trkpt>
      <trkpt lat="59.9844104" lon="17.7266295">
        <ele>27.5349</ele>
        <time>2014-06-27T09:00:36Z</time>
      </trkpt>
      <trkpt lat="59.9843933" lon="17.7266269">
        <ele>27.5349</ele>
        <time>2014-06-27T09:00:37Z</time>
      </trkpt>
      <trkpt lat="59.9843736" lon="17.7266263">
        <ele>27.5349</ele>
        <time>2014-06-27T09:00:38Z</time>
      </trkpt>
      <trkpt lat="59.984353" lon="17.726622">
        <ele>27.5349</ele>
        <time>2014-06-27T09:00:39Z</time>
      </trkpt>
      <trkpt lat="59.9843286" lon="17.7266185">
        <ele>26.5736</ele>
        <time>2014-06-27T09:00:40Z</time>
      </trkpt>
      <trkpt lat="59.9843069" lon="17.726615">
        <ele>26.0929</ele>
        <time>2014-06-27T09:00:41Z</time>
      </trkpt>
      <trkpt lat="59.9842909" lon="17.7266148">
        <ele>25.6123</ele>
        <time>2014-06-27T09:00:42Z</time>
      </trkpt>
      <trkpt lat="59.984275" lon="17.7266201">
        <ele>26.0929</ele>
        <time>2014-06-27T09:00:43Z</time>
      </trkpt>
      <trkpt lat="59.9842571" lon="17.7266204">
        <ele>25.6123</ele>
        <time>2014-06-27T09:00:44Z</time>
      </trkpt>
      <trkpt lat="59.9842394" lon="17.7266214">
        <ele>25.6123</ele>
        <time>2014-06-27T09:00:45Z</time>
      </trkpt>
      <trkpt lat="59.9842213" lon="17.7266251">
        <ele>26.0929</ele>
        <time>2014-06-27T09:00:46Z</time>
      </trkpt>
      <trkpt lat="59.9842032" lon="17.7266261">
        <ele>26.0929</ele>
        <time>2014-06-27T09:00:47Z</time>
      </trkpt>
      <trkpt lat="59.9841872" lon="17.7266285">
        <ele>26.5736</ele>
        <time>2014-06-27T09:00:48Z</time>
      </trkpt>
      <trkpt lat="59.9841714" lon="17.7266297">
        <ele>27.0543</ele>
        <time>2014-06-27T09:00:49Z</time>
      </trkpt>
      <trkpt lat="59.9841561" lon="17.7266303">
        <ele>27.5349</ele>
        <time>2014-06-27T09:00:50Z</time>
      </trkpt>
      <trkpt lat="59.98414" lon="17.7266321">
        <ele>27.5349</ele>
        <time>2014-06-27T09:00:51Z</time>
      </trkpt>
      <trkpt lat="59.9841261" lon="17.7266339">
        <ele>27.5349</ele>
        <time>2014-06-27T09:00:52Z</time>
      </trkpt>
      <trkpt lat="59.9841123" lon="17.7266356">
        <ele>27.5349</ele>
        <time>2014-06-27T09:00:53Z</time>
      </trkpt>
      <trkpt lat="59.9840944" lon="17.7266366">
        <ele>27.0543</ele>
        <time>2014-06-27T09:00:54Z</time>
      </trkpt>
      <trkpt lat="59.9840774" lon="17.726636">
        <ele>27.0543</ele>
        <time>2014-06-27T09:00:55Z</time>
      </trkpt>
      <trkpt lat="59.9840611" lon="17.726635">
        <ele>27.0543</ele>
        <time>2014-06-27T09:00:56Z</time>
      </trkpt>
      <trkpt lat="59.9840434" lon="17.7266375">
        <ele>27.0543</ele>
        <time>2014-06-27T09:00:57Z</time>
      </trkpt>
      <trkpt lat="59.9840249" lon="17.7266404">
        <ele>27.5349</ele>
        <time>2014-06-27T09:00:58Z</time>
      </trkpt>
      <trkpt lat="59.9840058" lon="17.7266418">
        <ele>27.5349</ele>
        <time>2014-06-27T09:00:59Z</time>
      </trkpt>
      <trkpt lat="59.9839842" lon="17.7266509">
        <ele>27.5349</ele>
        <time>2014-06-27T09:01:00Z</time>
      </trkpt>
      <trkpt lat="59.9839657" lon="17.7266528">
        <ele>28.0155</ele>
        <time>2014-06-27T09:01:01Z</time>
      </trkpt>
      <trkpt lat="59.9839453" lon="17.7266528">
        <ele>28.0155</ele>
        <time>2014-06-27T09:01:02Z</time>
      </trkpt>
      <trkpt lat="59.9839251" lon="17.7266499">
        <ele>27.5349</ele>
        <time>2014-06-27T09:01:03Z</time>
      </trkpt>
      <trkpt lat="59.9839069" lon="17.7266481">
        <ele>27.5349</ele>
        <time>2014-06-27T09:01:04Z</time>
      </trkpt>
      <trkpt lat="59.983888" lon="17.7266466">
        <ele>27.0543</ele>
        <time>2014-06-27T09:01:05Z</time>
      </trkpt>
      <trkpt lat="59.9838692" lon="17.726645">
        <ele>26.5736</ele>
        <time>2014-06-27T09:01:06Z</time>
      </trkpt>
      <trkpt lat="59.9838529" lon="17.7266444">
        <ele>26.5736</ele>
        <time>2014-06-27T09:01:07Z</time>
      </trkpt>
      <trkpt lat="59.9838359" lon="17.7266442">
        <ele>26.5736</ele>
        <time>2014-06-27T09:01:08Z</time>
      </trkpt>
      <trkpt lat="59.9838178" lon="17.7266439">
        <ele>27.0543</ele>
        <time>2014-06-27T09:01:09Z</time>
      </trkpt>
      <trkpt lat="59.9838002" lon="17.7266413">
        <ele>26.5736</ele>
        <time>2014-06-27T09:01:10Z</time>
      </trkpt>
      <trkpt lat="59.9837826" lon="17.7266367">
        <ele>26.5736</ele>
        <time>2014-06-27T09:01:11Z</time>
      </trkpt>
      <trkpt lat="59.9837638" lon="17.7266334">
        <ele>26.5736</ele>
        <time>2014-06-27T09:01:12Z</time>
      </trkpt>
      <trkpt lat="59.9837462" lon="17.7266325">
        <ele>26.0929</ele>
        <time>2014-06-27T09:01:13Z</time>
      </trkpt>
      <trkpt lat="59.9837297" lon="17.7266341">
        <ele>26.0929</ele>
        <time>2014-06-27T09:01:14Z</time>
      </trkpt>
      <trkpt lat="59.9837106" lon="17.7266342">
        <ele>26.0929</ele>
        <time>2014-06-27T09:01:15Z</time>
      </trkpt>
      <trkpt lat="59.9836915" lon="17.7266334">
        <ele>25.6123</ele>
        <time>2014-06-27T09:01:16Z</time>
      </trkpt>
      <trkpt lat="59.9836729" lon="17.726633">
        <ele>25.1317</ele>
        <time>2014-06-27T09:01:17Z</time>
      </trkpt>
      <trkpt lat="59.9836552" lon="17.726632">
        <ele>25.1317</ele>
        <time>2014-06-27T09:01:18Z</time>
      </trkpt>
      <trkpt lat="59.9836371" lon="17.7266339">
        <ele>24.651</ele>
        <time>2014-06-27T09:01:19Z</time>
      </trkpt>
      <trkpt lat="59.9836178" lon="17.7266366">
        <ele>24.651</ele>
        <time>2014-06-27T09:01:20Z</time>
      </trkpt>
      <trkpt lat="59.9835991" lon="17.726639">
        <ele>24.1703</ele>
        <time>2014-06-27T09:01:21Z</time>
      </trkpt>
      <trkpt lat="59.9835812" lon="17.7266412">
        <ele>24.651</ele>
        <time>2014-06-27T09:01:22Z</time>
      </trkpt>
      <trkpt lat="59.983564" lon="17.7266418">
        <ele>24.651</ele>
        <time>2014-06-27T09:01:23Z</time>
      </trkpt>
      <trkpt lat="59.9835469" lon="17.7266424">
        <ele>24.651</ele>
        <time>2014-06-27T09:01:24Z</time>
      </trkpt>
      <trkpt lat="59.9835309" lon="17.7266428">
        <ele>24.651</ele>
        <time>2014-06-27T09:01:25Z</time>
      </trkpt>
      <trkpt lat="59.9835168" lon="17.7266418">
        <ele>24.651</ele>
        <time>2014-06-27T09:01:26Z</time>
      </trkpt>
      <trkpt lat="59.9834997" lon="17.7266409">
        <ele>24.651</ele>
        <time>2014-06-27T09:01:27Z</time>
      </trkpt>
      <trkpt lat="59.9834812" lon="17.7266396">
        <ele>24.651</ele>
        <time>2014-06-27T09:01:28Z</time>
      </trkpt>
      <trkpt lat="59.9834644" lon="17.7266377">
        <ele>24.651</ele>
        <time>2014-06-27T09:01:29Z</time>
      </trkpt>
      <trkpt lat="59.9834468" lon="17.7266367">
        <ele>24.651</ele>
        <time>2014-06-27T09:01:30Z</time>
      </trkpt>
      <trkpt lat="59.9834293" lon="17.726637">
        <ele>24.651</ele>
        <time>2014-06-27T09:01:31Z</time>
      </trkpt>
      <trkpt lat="59.9834092" lon="17.7266365">
        <ele>24.651</ele>
        <time>2014-06-27T09:01:32Z</time>
      </trkpt>
      <trkpt lat="59.9833885" lon="17.7266347">
        <ele>24.1703</ele>
        <time>2014-06-27T09:01:33Z</time>
      </trkpt>
      <trkpt lat="59.9833713" lon="17.7266361">
        <ele>24.1703</ele>
        <time>2014-06-27T09:01:34Z</time>
      </trkpt>
      <trkpt lat="59.9833552" lon="17.726636">
        <ele>23.6896</ele>
        <time>2014-06-27T09:01:35Z</time>
      </trkpt>
      <trkpt lat="59.9833371" lon="17.7266326">
        <ele>23.6896</ele>
        <time>2014-06-27T09:01:36Z</time>
      </trkpt>
      <trkpt lat="59.9833194" lon="17.7266314">
        <ele>23.6896</ele>
        <time>2014-06-27T09:01:37Z</time>
      </trkpt>
      <trkpt lat="59.9833006" lon="17.7266354">
        <ele>23.6896</ele>
        <time>2014-06-27T09:01:38Z</time>
      </trkpt>
      <trkpt lat="59.98328" lon="17.7266355">
        <ele>23.6896</ele>
        <time>2014-06-27T09:01:39Z</time>
      </trkpt>
      <trkpt lat="59.9832609" lon="17.7266335">
        <ele>23.6896</ele>
        <time>2014-06-27T09:01:40Z</time>
      </trkpt>
      <trkpt lat="59.9832423" lon="17.7266335">
        <ele>23.6896</ele>
        <time>2014-06-27T09:01:41Z</time>
      </trkpt>
      <trkpt lat="59.9832236" lon="17.7266315">
        <ele>23.6896</ele>
        <time>2014-06-27T09:01:42Z</time>
      </trkpt>
      <trkpt lat="59.983205" lon="17.7266289">
        <ele>23.6896</ele>
        <time>2014-06-27T09:01:43Z</time>
      </trkpt>
      <trkpt lat="59.9831847" lon="17.7266329">
        <ele>23.6896</ele>
        <time>2014-06-27T09:01:44Z</time>
      </trkpt>
      <trkpt lat="59.9831652" lon="17.726635">
        <ele>23.6896</ele>
        <time>2014-06-27T09:01:45Z</time>
      </trkpt>
      <trkpt lat="59.9831444" lon="17.7266476">
        <ele>23.6896</ele>
        <time>2014-06-27T09:01:46Z</time>
      </trkpt>
      <trkpt lat="59.9831273" lon="17.7266494">
        <ele>24.1703</ele>
        <time>2014-06-27T09:01:47Z</time>
      </trkpt>
      <trkpt lat="59.9831085" lon="17.7266469">
        <ele>23.6896</ele>
        <time>2014-06-27T09:01:48Z</time>
      </trkpt>
      <trkpt lat="59.9830908" lon="17.7266429">
        <ele>23.6896</ele>
        <time>2014-06-27T09:01:49Z</time>
      </trkpt>
      <trkpt lat="59.9830768" lon="17.7266404">
        <ele>24.1703</ele>
        <time>2014-06-27T09:01:50Z</time>
      </trkpt>
      <trkpt lat="59.9830626" lon="17.7266406">
        <ele>24.1703</ele>
        <time>2014-06-27T09:01:51Z</time>
      </trkpt>
      <trkpt lat="59.9830468" lon="17.7266443">
        <ele>24.651</ele>
        <time>2014-06-27T09:01:52Z</time>
      </trkpt>
      <trkpt lat="59.9830308" lon="17.7266429">
        <ele>24.651</ele>
        <time>2014-06-27T09:01:53Z</time>
      </trkpt>
      <trkpt lat="59.983014" lon="17.726643">
        <ele>24.651</ele>
        <time>2014-06-27T09:01:54Z</time>
      </trkpt>
      <trkpt lat="59.9829992" lon="17.7266387">
        <ele>24.1703</ele>
        <time>2014-06-27T09:01:55Z</time>
      </trkpt>
      <trkpt lat="59.9829852" lon="17.7266333">
        <ele>24.1703</ele>
        <time>2014-06-27T09:01:56Z</time>
      </trkpt>
      <trkpt lat="59.9829677" lon="17.7266341">
        <ele>24.1703</ele>
        <time>2014-06-27T09:01:57Z</time>
      </trkpt>
      <trkpt lat="59.9829501" lon="17.7266309">
        <ele>24.1703</ele>
        <time>2014-06-27T09:01:58Z</time>
      </trkpt>
      <trkpt lat="59.9829354" lon="17.7266263">
        <ele>24.1703</ele>
        <time>2014-06-27T09:01:59Z</time>
      </trkpt>
      <trkpt lat="59.9829183" lon="17.7266264">
        <ele>24.1703</ele>
        <time>2014-06-27T09:02:00Z</time>
      </trkpt>
      <trkpt lat="59.9828988" lon="17.7266283">
        <ele>23.6896</ele>
        <time>2014-06-27T09:02:01Z</time>
      </trkpt>
      <trkpt lat="59.9828785" lon="17.7266315">
        <ele>23.6896</ele>
        <time>2014-06-27T09:02:02Z</time>
      </trkpt>
      <trkpt lat="59.9828604" lon="17.7266342">
        <ele>23.6896</ele>
        <time>2014-06-27T09:02:03Z</time>
      </trkpt>
      <trkpt lat="59.9828429" lon="17.7266339">
        <ele>23.6896</ele>
        <time>2014-06-27T09:02:04Z</time>
      </trkpt>
      <trkpt lat="59.9828266" lon="17.7266339">
        <ele>23.209</ele>
        <time>2014-06-27T09:02:05Z</time>
      </trkpt>
      <trkpt lat="59.9828118" lon="17.7266331">
        <ele>23.6896</ele>
        <time>2014-06-27T09:02:06Z</time>
      </trkpt>
      <trkpt lat="59.982795" lon="17.7266331">
        <ele>23.6896</ele>
        <time>2014-06-27T09:02:07Z</time>
      </trkpt>
      <trkpt lat="59.9827782" lon="17.7266333">
        <ele>23.209</ele>
        <time>2014-06-27T09:02:08Z</time>
      </trkpt>
      <trkpt lat="59.9827621" lon="17.7266361">
        <ele>23.209</ele>
        <time>2014-06-27T09:02:09Z</time>
      </trkpt>
      <trkpt lat="59.982748" lon="17.7266407">
        <ele>22.7283</ele>
        <time>2014-06-27T09:02:10Z</time>
      </trkpt>
      <trkpt lat="59.9827373" lon="17.7266452">
        <ele>22.7283</ele>
        <time>2014-06-27T09:02:11Z</time>
      </trkpt>
      <trkpt lat="59.9827261" lon="17.726653">
        <ele>22.7283</ele>
        <time>2014-06-27T09:02:12Z</time>
      </trkpt>
      <trkpt lat="59.9827127" lon="17.7266677">
        <ele>23.209</ele>
        <time>2014-06-27T09:02:13Z</time>
      </trkpt>
      <trkpt lat="59.9827005" lon="17.7266829">
        <ele>23.6896</ele>
        <time>2014-06-27T09:02:14Z</time>
      </trkpt>
      <trkpt lat="59.9826896" lon="17.7266961">
        <ele>24.1703</ele>
        <time>2014-06-27T09:02:15Z</time>
      </trkpt>
      <trkpt lat="59.9826767" lon="17.7267137">
        <ele>23.6896</ele>
        <time>2014-06-27T09:02:16Z</time>
      </trkpt>
      <trkpt lat="59.9826636" lon="17.726733">
        <ele>24.1703</ele>
        <time>2014-06-27T09:02:17Z</time>
      </trkpt>
      <trkpt lat="59.9826511" lon="17.7267525">
        <ele>24.651</ele>
        <time>2014-06-27T09:02:18Z</time>
      </trkpt>
      <trkpt lat="59.9826388" lon="17.726772">
        <ele>24.651</ele>
        <time>2014-06-27T09:02:19Z</time>
      </trkpt>
      <trkpt lat="59.9826269" lon="17.7267905">
        <ele>25.1317</ele>
        <time>2014-06-27T09:02:20Z</time>
      </trkpt>
      <trkpt lat="59.9826149" lon="17.7268084">
        <ele>25.6123</ele>
        <time>2014-06-27T09:02:21Z</time>
      </trkpt>
      <trkpt lat="59.9826015" lon="17.7268237">
        <ele>26.0929</ele>
        <time>2014-06-27T09:02:22Z</time>
      </trkpt>
      <trkpt lat="59.9825875" lon="17.7268366">
        <ele>26.5736</ele>
        <time>2014-06-27T09:02:23Z</time>
      </trkpt>
      <trkpt lat="59.982573" lon="17.7268483">
        <ele>26.5736</ele>
        <time>2014-06-27T09:02:24Z</time>
      </trkpt>
      <trkpt lat="59.9825573" lon="17.7268611">
        <ele>26.5736</ele>
        <time>2014-06-27T09:02:25Z</time>
      </trkpt>
      <trkpt lat="59.9825418" lon="17.7268742">
        <ele>26.5736</ele>
        <time>2014-06-27T09:02:26Z</time>
      </trkpt>
      <trkpt lat="59.982528" lon="17.7268856">
        <ele>26.5736</ele>
        <time>2014-06-27T09:02:27Z</time>
      </trkpt>
      <trkpt lat="59.9825143" lon="17.7268965">
        <ele>26.5736</ele>
        <time>2014-06-27T09:02:28Z</time>
      </trkpt>
      <trkpt lat="59.9824998" lon="17.7269064">
        <ele>26.0929</ele>
        <time>2014-06-27T09:02:29Z</time>
      </trkpt>
      <trkpt lat="59.9824869" lon="17.7269159">
        <ele>26.5736</ele>
        <time>2014-06-27T09:02:30Z</time>
      </trkpt>
      <trkpt lat="59.9824759" lon="17.7269289">
        <ele>26.5736</ele>
        <time>2014-06-27T09:02:31Z</time>
      </trkpt>
      <trkpt lat="59.9824648" lon="17.7269415">
        <ele>26.5736</ele>
        <time>2014-06-27T09:02:32Z</time>
      </trkpt>
      <trkpt lat="59.9824513" lon="17.7269563">
        <ele>26.5736</ele>
        <time>2014-06-27T09:02:33Z</time>
      </trkpt>
      <trkpt lat="59.9824374" lon="17.7269729">
        <ele>26.5736</ele>
        <time>2014-06-27T09:02:34Z</time>
      </trkpt>
      <trkpt lat="59.9824229" lon="17.726991">
        <ele>26.5736</ele>
        <time>2014-06-27T09:02:35Z</time>
      </trkpt>
      <trkpt lat="59.9824083" lon="17.727008">
        <ele>26.5736</ele>
        <time>2014-06-27T09:02:36Z</time>
      </trkpt>
      <trkpt lat="59.9823965" lon="17.7270283">
        <ele>27.0543</ele>
        <time>2014-06-27T09:02:37Z</time>
      </trkpt>
      <trkpt lat="59.9823875" lon="17.7270519">
        <ele>27.5349</ele>
        <time>2014-06-27T09:02:38Z</time>
      </trkpt>
      <trkpt lat="59.9823777" lon="17.7270778">
        <ele>27.5349</ele>
        <time>2014-06-27T09:02:39Z</time>
      </trkpt>
      <trkpt lat="59.9823693" lon="17.7271034">
        <ele>27.5349</ele>
        <time>2014-06-27T09:02:40Z</time>
      </trkpt>
      <trkpt lat="59.9823609" lon="17.7271324">
        <ele>28.0155</ele>
        <time>2014-06-27T09:02:41Z</time>
      </trkpt>
      <trkpt lat="59.9823496" lon="17.7271608">
        <ele>27.5349</ele>
        <time>2014-06-27T09:02:42Z</time>
      </trkpt>
      <trkpt lat="59.9823395" lon="17.7271864">
        <ele>27.5349</ele>
        <time>2014-06-27T09:02:43Z</time>
      </trkpt>
      <trkpt lat="59.9823312" lon="17.7272152">
        <ele>28.0155</ele>
        <time>2014-06-27T09:02:44Z</time>
      </trkpt>
      <trkpt lat="59.9823212" lon="17.7272458">
        <ele>28.0155</ele>
        <time>2014-06-27T09:02:45Z</time>
      </trkpt>
      <trkpt lat="59.9823126" lon="17.7272762">
        <ele>28.9769</ele>
        <time>2014-06-27T09:02:46Z</time>
      </trkpt>
      <trkpt lat="59.9823037" lon="17.7273059">
        <ele>28.9769</ele>
        <time>2014-06-27T09:02:47Z</time>
      </trkpt>
      <trkpt lat="59.9822947" lon="17.7273309">
        <ele>29.4575</ele>
        <time>2014-06-27T09:02:48Z</time>
      </trkpt>
      <trkpt lat="59.9822856" lon="17.7273575">
        <ele>29.9381</ele>
        <time>2014-06-27T09:02:49Z</time>
      </trkpt>
      <trkpt lat="59.982276" lon="17.7273853">
        <ele>29.9381</ele>
        <time>2014-06-27T09:02:50Z</time>
      </trkpt>
      <trkpt lat="59.9822677" lon="17.72741">
        <ele>30.4188</ele>
        <time>2014-06-27T09:02:51Z</time>
      </trkpt>
      <trkpt lat="59.9822601" lon="17.7274337">
        <ele>30.4188</ele>
        <time>2014-06-27T09:02:52Z</time>
      </trkpt>
      <trkpt lat="59.9822517" lon="17.7274593">
        <ele>30.8995</ele>
        <time>2014-06-27T09:02:53Z</time>
      </trkpt>
      <trkpt lat="59.9822425" lon="17.7274852">
        <ele>30.8995</ele>
        <time>2014-06-27T09:02:54Z</time>
      </trkpt>
      <trkpt lat="59.9822323" lon="17.7275101">
        <ele>31.3801</ele>
        <time>2014-06-27T09:02:55Z</time>
      </trkpt>
      <trkpt lat="59.9822229" lon="17.7275353">
        <ele>31.3801</ele>
        <time>2014-06-27T09:02:56Z</time>
      </trkpt>
      <trkpt lat="59.9822115" lon="17.727559">
        <ele>31.3801</ele>
        <time>2014-06-27T09:02:57Z</time>
      </trkpt>
      <trkpt lat="59.9822001" lon="17.7275828">
        <ele>31.8607</ele>
        <time>2014-06-27T09:02:58Z</time>
      </trkpt>
      <trkpt lat="59.9821874" lon="17.7276033">
        <ele>31.8607</ele>
        <time>2014-06-27T09:02:59Z</time>
      </trkpt>
      <trkpt lat="59.9821735" lon="17.727625">
        <ele>31.3801</ele>
        <time>2014-06-27T09:03:00Z</time>
      </trkpt>
      <trkpt lat="59.982161" lon="17.7276463">
        <ele>31.8607</ele>
        <time>2014-06-27T09:03:01Z</time>
      </trkpt>
      <trkpt lat="59.9821493" lon="17.7276686">
        <ele>31.8607</ele>
        <time>2014-06-27T09:03:02Z</time>
      </trkpt>
      <trkpt lat="59.9821364" lon="17.7276913">
        <ele>31.8607</ele>
        <time>2014-06-27T09:03:03Z</time>
      </trkpt>
      <trkpt lat="59.9821221" lon="17.72771">
        <ele>31.8607</ele>
        <time>2014-06-27T09:03:04Z</time>
      </trkpt>
      <trkpt lat="59.9821068" lon="17.7277271">
        <ele>31.8607</ele>
        <time>2014-06-27T09:03:05Z</time>
      </trkpt>
      <trkpt lat="59.9820933" lon="17.7277435">
        <ele>31.8607</ele>
        <time>2014-06-27T09:03:06Z</time>
      </trkpt>
      <trkpt lat="59.9820804" lon="17.7277631">
        <ele>31.3801</ele>
        <time>2014-06-27T09:03:07Z</time>
      </trkpt>
      <trkpt lat="59.982068" lon="17.7277842">
        <ele>31.3801</ele>
        <time>2014-06-27T09:03:08Z</time>
      </trkpt>
      <trkpt lat="59.982055" lon="17.7278022">
        <ele>30.8995</ele>
        <time>2014-06-27T09:03:09Z</time>
      </trkpt>
      <trkpt lat="59.9820393" lon="17.7278182">
        <ele>30.4188</ele>
        <time>2014-06-27T09:03:10Z</time>
      </trkpt>
      <trkpt lat="59.9820243" lon="17.7278343">
        <ele>30.4188</ele>
        <time>2014-06-27T09:03:11Z</time>
      </trkpt>
      <trkpt lat="59.9820136" lon="17.7278529">
        <ele>30.8995</ele>
        <time>2014-06-27T09:03:12Z</time>
      </trkpt>
      <trkpt lat="59.9820047" lon="17.7278737">
        <ele>30.8995</ele>
        <time>2014-06-27T09:03:13Z</time>
      </trkpt>
      <trkpt lat="59.9819934" lon="17.7278921">
        <ele>30.4188</ele>
        <time>2014-06-27T09:03:14Z</time>
      </trkpt>
      <trkpt lat="59.9819809" lon="17.7279103">
        <ele>30.4188</ele>
        <time>2014-06-27T09:03:15Z</time>
      </trkpt>
      <trkpt lat="59.9819696" lon="17.7279279">
        <ele>30.4188</ele>
        <time>2014-06-27T09:03:16Z</time>
      </trkpt>
      <trkpt lat="59.9819571" lon="17.7279503">
        <ele>30.4188</ele>
        <time>2014-06-27T09:03:17Z</time>
      </trkpt>
      <trkpt lat="59.9819436" lon="17.7279705">
        <ele>30.4188</ele>
        <time>2014-06-27T09:03:18Z</time>
      </trkpt>
      <trkpt lat="59.9819302" lon="17.7279917">
        <ele>30.4188</ele>
        <time>2014-06-27T09:03:19Z</time>
      </trkpt>
      <trkpt lat="59.9819173" lon="17.7280116">
        <ele>30.4188</ele>
        <time>2014-06-27T09:03:20Z</time>
      </trkpt>
      <trkpt lat="59.9819032" lon="17.7280332">
        <ele>30.4188</ele>
        <time>2014-06-27T09:03:21Z</time>
      </trkpt>
      <trkpt lat="59.9818887" lon="17.7280542">
        <ele>29.9381</ele>
        <time>2014-06-27T09:03:22Z</time>
      </trkpt>
      <trkpt lat="59.9818735" lon="17.7280715">
        <ele>29.9381</ele>
        <time>2014-06-27T09:03:23Z</time>
      </trkpt>
      <trkpt lat="59.9818583" lon="17.7280882">
        <ele>29.4575</ele>
        <time>2014-06-27T09:03:24Z</time>
      </trkpt>
      <trkpt lat="59.9818437" lon="17.7281038">
        <ele>28.9769</ele>
        <time>2014-06-27T09:03:25Z</time>
      </trkpt>
      <trkpt lat="59.9818295" lon="17.7281244">
        <ele>29.4575</ele>
        <time>2014-06-27T09:03:26Z</time>
      </trkpt>
      <trkpt lat="59.9818161" lon="17.728141">
        <ele>28.9769</ele>
        <time>2014-06-27T09:03:27Z</time>
      </trkpt>
      <trkpt lat="59.9817994" lon="17.7281544">
        <ele>28.9769</ele>
        <time>2014-06-27T09:03:28Z</time>
      </trkpt>
      <trkpt lat="59.9817847" lon="17.7281636">
        <ele>28.9769</ele>
        <time>2014-06-27T09:03:29Z</time>
      </trkpt>
      <trkpt lat="59.9817689" lon="17.7281782">
        <ele>28.4962</ele>
        <time>2014-06-27T09:03:30Z</time>
      </trkpt>
      <trkpt lat="59.9817535" lon="17.7281905">
        <ele>28.4962</ele>
        <time>2014-06-27T09:03:31Z</time>
      </trkpt>
      <trkpt lat="59.9817381" lon="17.7282006">
        <ele>28.4962</ele>
        <time>2014-06-27T09:03:32Z</time>
      </trkpt>
      <trkpt lat="59.9817217" lon="17.7282109">
        <ele>28.4962</ele>
        <time>2014-06-27T09:03:33Z</time>
      </trkpt>
      <trkpt lat="59.9817067" lon="17.7282217">
        <ele>28.4962</ele>
        <time>2014-06-27T09:03:34Z</time>
      </trkpt>
      <trkpt lat="59.981691" lon="17.728229">
        <ele>28.4962</ele>
        <time>2014-06-27T09:03:35Z</time>
      </trkpt>
      <trkpt lat="59.9816748" lon="17.7282362">
        <ele>28.0155</ele>
        <time>2014-06-27T09:03:36Z</time>
      </trkpt>
      <trkpt lat="59.9816582" lon="17.728243">
        <ele>28.0155</ele>
        <time>2014-06-27T09:03:37Z</time>
      </trkpt>
      <trkpt lat="59.9816416" lon="17.728245">
        <ele>28.0155</ele>
        <time>2014-06-27T09:03:38Z</time>
      </trkpt>
      <trkpt lat="59.9816256" lon="17.7282487">
        <ele>27.5349</ele>
        <time>2014-06-27T09:03:39Z</time>
      </trkpt>
      <trkpt lat="59.9816095" lon="17.7282585">
        <ele>27.5349</ele>
        <time>2014-06-27T09:03:40Z</time>
      </trkpt>
      <trkpt lat="59.9815954" lon="17.7282683">
        <ele>27.0543</ele>
        <time>2014-06-27T09:03:41Z</time>
      </trkpt>
      <trkpt lat="59.9815813" lon="17.7282789">
        <ele>27.0543</ele>
        <time>2014-06-27T09:03:42Z</time>
      </trkpt>
      <trkpt lat="59.9815681" lon="17.7282913">
        <ele>27.0543</ele>
        <time>2014-06-27T09:03:43Z</time>
      </trkpt>
      <trkpt lat="59.9815561" lon="17.7283026">
        <ele>27.0543</ele>
        <time>2014-06-27T09:03:44Z</time>
      </trkpt>
      <trkpt lat="59.981543" lon="17.7283161">
        <ele>27.0543</ele>
        <time>2014-06-27T09:03:45Z</time>
      </trkpt>
      <trkpt lat="59.9815292" lon="17.7283321">
        <ele>27.0543</ele>
        <time>2014-06-27T09:03:46Z</time>
      </trkpt>
      <trkpt lat="59.9815162" lon="17.7283482">
        <ele>27.5349</ele>
        <time>2014-06-27T09:03:47Z</time>
      </trkpt>
      <trkpt lat="59.9815024" lon="17.7283656">
        <ele>27.5349</ele>
        <time>2014-06-27T09:03:48Z</time>
      </trkpt>
      <trkpt lat="59.9814873" lon="17.7283847">
        <ele>27.5349</ele>
        <time>2014-06-27T09:03:49Z</time>
      </trkpt>
      <trkpt lat="59.9814743" lon="17.7284026">
        <ele>27.5349</ele>
        <time>2014-06-27T09:03:50Z</time>
      </trkpt>
      <trkpt lat="59.9814624" lon="17.7284249">
        <ele>27.5349</ele>
        <time>2014-06-27T09:03:51Z</time>
      </trkpt>
      <trkpt lat="59.981451" lon="17.7284471">
        <ele>27.0543</ele>
        <time>2014-06-27T09:03:52Z</time>
      </trkpt>
      <trkpt lat="59.9814407" lon="17.7284678">
        <ele>27.5349</ele>
        <time>2014-06-27T09:03:53Z</time>
      </trkpt>
      <trkpt lat="59.981429" lon="17.7284945">
        <ele>27.0543</ele>
        <time>2014-06-27T09:03:54Z</time>
      </trkpt>
      <trkpt lat="59.9814174" lon="17.7285156">
        <ele>27.0543</ele>
        <time>2014-06-27T09:03:55Z</time>
      </trkpt>
      <trkpt lat="59.981406" lon="17.7285372">
        <ele>26.5736</ele>
        <time>2014-06-27T09:03:56Z</time>
      </trkpt>
      <trkpt lat="59.9813945" lon="17.7285605">
        <ele>27.0543</ele>
        <time>2014-06-27T09:03:57Z</time>
      </trkpt>
      <trkpt lat="59.9813825" lon="17.7285817">
        <ele>27.0543</ele>
        <time>2014-06-27T09:03:58Z</time>
      </trkpt>
      <trkpt lat="59.9813697" lon="17.7286009">
        <ele>27.0543</ele>
        <time>2014-06-27T09:03:59Z</time>
      </trkpt>
      <trkpt lat="59.9813562" lon="17.7286154">
        <ele>27.5349</ele>
        <time>2014-06-27T09:04:00Z</time>
      </trkpt>
      <trkpt lat="59.9813439" lon="17.7286336">
        <ele>28.4962</ele>
        <time>2014-06-27T09:04:01Z</time>
      </trkpt>
      <trkpt lat="59.9813309" lon="17.7286515">
        <ele>29.4575</ele>
        <time>2014-06-27T09:04:02Z</time>
      </trkpt>
      <trkpt lat="59.9813127" lon="17.7286688">
        <ele>28.9769</ele>
        <time>2014-06-27T09:04:03Z</time>
      </trkpt>
      <trkpt lat="59.9812929" lon="17.7286847">
        <ele>28.4962</ele>
        <time>2014-06-27T09:04:04Z</time>
      </trkpt>
      <trkpt lat="59.9812747" lon="17.728695">
        <ele>28.9769</ele>
        <time>2014-06-27T09:04:05Z</time>
      </trkpt>
      <trkpt lat="59.9812605" lon="17.7287014">
        <ele>28.4962</ele>
        <time>2014-06-27T09:04:06Z</time>
      </trkpt>
      <trkpt lat="59.9812459" lon="17.7287087">
        <ele>28.0155</ele>
        <time>2014-06-27T09:04:07Z</time>
      </trkpt>
      <trkpt lat="59.9812315" lon="17.7287175">
        <ele>28.0155</ele>
        <time>2014-06-27T09:04:08Z</time>
      </trkpt>
      <trkpt lat="59.9812158" lon="17.7287316">
        <ele>27.5349</ele>
        <time>2014-06-27T09:04:09Z</time>
      </trkpt>
      <trkpt lat="59.9811997" lon="17.728745">
        <ele>27.5349</ele>
        <time>2014-06-27T09:04:10Z</time>
      </trkpt>
      <trkpt lat="59.9811879" lon="17.7287587">
        <ele>27.5349</ele>
        <time>2014-06-27T09:04:11Z</time>
      </trkpt>
      <trkpt lat="59.9811739" lon="17.7287739">
        <ele>27.5349</ele>
        <time>2014-06-27T09:04:12Z</time>
      </trkpt>
      <trkpt lat="59.9811578" lon="17.7287896">
        <ele>28.0155</ele>
        <time>2014-06-27T09:04:13Z</time>
      </trkpt>
      <trkpt lat="59.9811387" lon="17.7288051">
        <ele>27.5349</ele>
        <time>2014-06-27T09:04:14Z</time>
      </trkpt>
      <trkpt lat="59.9811168" lon="17.7288206">
        <ele>27.0543</ele>
        <time>2014-06-27T09:04:15Z</time>
      </trkpt>
      <trkpt lat="59.9810987" lon="17.7288326">
        <ele>27.0543</ele>
        <time>2014-06-27T09:04:16Z</time>
      </trkpt>
      <trkpt lat="59.9810827" lon="17.7288403">
        <ele>26.5736</ele>
        <time>2014-06-27T09:04:17Z</time>
      </trkpt>
      <trkpt lat="59.9810656" lon="17.7288479">
        <ele>26.5736</ele>
        <time>2014-06-27T09:04:18Z</time>
      </trkpt>
      <trkpt lat="59.9810485" lon="17.7288546">
        <ele>26.5736</ele>
        <time>2014-06-27T09:04:19Z</time>
      </trkpt>
      <trkpt lat="59.9810333" lon="17.7288613">
        <ele>26.0929</ele>
        <time>2014-06-27T09:04:20Z</time>
      </trkpt>
      <trkpt lat="59.9810173" lon="17.7288656">
        <ele>25.6123</ele>
        <time>2014-06-27T09:04:21Z</time>
      </trkpt>
      <trkpt lat="59.9809971" lon="17.7288698">
        <ele>25.1317</ele>
        <time>2014-06-27T09:04:22Z</time>
      </trkpt>
      <trkpt lat="59.9809756" lon="17.7288727">
        <ele>24.651</ele>
        <time>2014-06-27T09:04:23Z</time>
      </trkpt>
      <trkpt lat="59.9809535" lon="17.728872">
        <ele>23.6896</ele>
        <time>2014-06-27T09:04:24Z</time>
      </trkpt>
      <trkpt lat="59.9809331" lon="17.728868">
        <ele>22.7283</ele>
        <time>2014-06-27T09:04:25Z</time>
      </trkpt>
      <trkpt lat="59.9809142" lon="17.7288625">
        <ele>22.2476</ele>
        <time>2014-06-27T09:04:26Z</time>
      </trkpt>
      <trkpt lat="59.9808934" lon="17.7288563">
        <ele>21.767</ele>
        <time>2014-06-27T09:04:27Z</time>
      </trkpt>
      <trkpt lat="59.9808708" lon="17.728846">
        <ele>21.2864</ele>
        <time>2014-06-27T09:04:28Z</time>
      </trkpt>
      <trkpt lat="59.9808527" lon="17.7288278">
        <ele>20.8057</ele>
        <time>2014-06-27T09:04:29Z</time>
      </trkpt>
      <trkpt lat="59.980835" lon="17.72881">
        <ele>20.325</ele>
        <time>2014-06-27T09:04:30Z</time>
      </trkpt>
      <trkpt lat="59.9808173" lon="17.7287891">
        <ele>20.325</ele>
        <time>2014-06-27T09:04:31Z</time>
      </trkpt>
      <trkpt lat="59.9807988" lon="17.7287722">
        <ele>19.8444</ele>
        <time>2014-06-27T09:04:32Z</time>
      </trkpt>
      <trkpt lat="59.9807824" lon="17.7287532">
        <ele>19.3638</ele>
        <time>2014-06-27T09:04:33Z</time>
      </trkpt>
      <trkpt lat="59.9807677" lon="17.7287361">
        <ele>18.8831</ele>
        <time>2014-06-27T09:04:34Z</time>
      </trkpt>
      <trkpt lat="59.9807547" lon="17.7287175">
        <ele>18.8831</ele>
        <time>2014-06-27T09:04:35Z</time>
      </trkpt>
      <trkpt lat="59.9807408" lon="17.7286977">
        <ele>18.8831</ele>
        <time>2014-06-27T09:04:36Z</time>
      </trkpt>
      <trkpt lat="59.9807306" lon="17.7286705">
        <ele>18.8831</ele>
        <time>2014-06-27T09:04:37Z</time>
      </trkpt>
      <trkpt lat="59.9807197" lon="17.7286413">
        <ele>18.4023</ele>
        <time>2014-06-27T09:04:38Z</time>
      </trkpt>
      <trkpt lat="59.9807078" lon="17.7286171">
        <ele>18.8831</ele>
        <time>2014-06-27T09:04:39Z</time>
      </trkpt>
      <trkpt lat="59.9806956" lon="17.7285962">
        <ele>18.8831</ele>
        <time>2014-06-27T09:04:40Z</time>
      </trkpt>
      <trkpt lat="59.9806807" lon="17.7285775">
        <ele>18.8831</ele>
        <time>2014-06-27T09:04:41Z</time>
      </trkpt>
      <trkpt lat="59.9806658" lon="17.7285554">
        <ele>18.8831</ele>
        <time>2014-06-27T09:04:42Z</time>
      </trkpt>
      <trkpt lat="59.9806521" lon="17.7285336">
        <ele>18.8831</ele>
        <time>2014-06-27T09:04:43Z</time>
      </trkpt>
      <trkpt lat="59.9806376" lon="17.7285128">
        <ele>18.8831</ele>
        <time>2014-06-27T09:04:44Z</time>
      </trkpt>
      <trkpt lat="59.9806243" lon="17.7284897">
        <ele>19.3638</ele>
        <time>2014-06-27T09:04:45Z</time>
      </trkpt>
      <trkpt lat="59.9806099" lon="17.7284658">
        <ele>19.3638</ele>
        <time>2014-06-27T09:04:46Z</time>
      </trkpt>
      <trkpt lat="59.9805959" lon="17.7284428">
        <ele>19.3638</ele>
        <time>2014-06-27T09:04:47Z</time>
      </trkpt>
      <trkpt lat="59.9805828" lon="17.7284186">
        <ele>19.3638</ele>
        <time>2014-06-27T09:04:48Z</time>
      </trkpt>
      <trkpt lat="59.9805688" lon="17.7283959">
        <ele>19.3638</ele>
        <time>2014-06-27T09:04:49Z</time>
      </trkpt>
      <trkpt lat="59.9805539" lon="17.7283756">
        <ele>19.8444</ele>
        <time>2014-06-27T09:04:50Z</time>
      </trkpt>
      <trkpt lat="59.9805393" lon="17.7283538">
        <ele>19.3638</ele>
        <time>2014-06-27T09:04:51Z</time>
      </trkpt>
      <trkpt lat="59.9805263" lon="17.72833">
        <ele>19.8444</ele>
        <time>2014-06-27T09:04:52Z</time>
      </trkpt>
      <trkpt lat="59.980514" lon="17.7283061">
        <ele>19.8444</ele>
        <time>2014-06-27T09:04:53Z</time>
      </trkpt>
      <trkpt lat="59.9805015" lon="17.7282833">
        <ele>19.8444</ele>
        <time>2014-06-27T09:04:54Z</time>
      </trkpt>
      <trkpt lat="59.9804889" lon="17.7282632">
        <ele>19.8444</ele>
        <time>2014-06-27T09:04:55Z</time>
      </trkpt>
      <trkpt lat="59.9804772" lon="17.7282414">
        <ele>19.8444</ele>
        <time>2014-06-27T09:04:56Z</time>
      </trkpt>
      <trkpt lat="59.9804646" lon="17.7282223">
        <ele>19.8444</ele>
        <time>2014-06-27T09:04:57Z</time>
      </trkpt>
      <trkpt lat="59.9804518" lon="17.7282021">
        <ele>19.8444</ele>
        <time>2014-06-27T09:04:58Z</time>
      </trkpt>
      <trkpt lat="59.9804392" lon="17.7281814">
        <ele>20.325</ele>
        <time>2014-06-27T09:04:59Z</time>
      </trkpt>
      <trkpt lat="59.980426" lon="17.7281627">
        <ele>20.325</ele>
        <time>2014-06-27T09:05:00Z</time>
      </trkpt>
      <trkpt lat="59.9804124" lon="17.7281442">
        <ele>20.325</ele>
        <time>2014-06-27T09:05:01Z</time>
      </trkpt>
      <trkpt lat="59.9804" lon="17.7281202">
        <ele>20.325</ele>
        <time>2014-06-27T09:05:02Z</time>
      </trkpt>
      <trkpt lat="59.980388" lon="17.7280946">
        <ele>20.325</ele>
        <time>2014-06-27T09:05:03Z</time>
      </trkpt>
      <trkpt lat="59.9803741" lon="17.728073">
        <ele>20.8057</ele>
        <time>2014-06-27T09:05:04Z</time>
      </trkpt>
      <trkpt lat="59.9803606" lon="17.728052">
        <ele>20.8057</ele>
        <time>2014-06-27T09:05:05Z</time>
      </trkpt>
      <trkpt lat="59.9803482" lon="17.7280281">
        <ele>21.2864</ele>
        <time>2014-06-27T09:05:06Z</time>
      </trkpt>
      <trkpt lat="59.9803358" lon="17.7280032">
        <ele>21.2864</ele>
        <time>2014-06-27T09:05:07Z</time>
      </trkpt>
      <trkpt lat="59.9803238" lon="17.7279778">
        <ele>21.2864</ele>
        <time>2014-06-27T09:05:08Z</time>
      </trkpt>
      <trkpt lat="59.9803119" lon="17.7279533">
        <ele>21.2864</ele>
        <time>2014-06-27T09:05:09Z</time>
      </trkpt>
      <trkpt lat="59.9803005" lon="17.7279278">
        <ele>21.2864</ele>
        <time>2014-06-27T09:05:10Z</time>
      </trkpt>
      <trkpt lat="59.9802884" lon="17.7279047">
        <ele>21.2864</ele>
        <time>2014-06-27T09:05:11Z</time>
      </trkpt>
      <trkpt lat="59.9802773" lon="17.7278783">
        <ele>21.2864</ele>
        <time>2014-06-27T09:05:12Z</time>
      </trkpt>
      <trkpt lat="59.9802658" lon="17.7278538">
        <ele>21.2864</ele>
        <time>2014-06-27T09:05:13Z</time>
      </trkpt>
      <trkpt lat="59.9802534" lon="17.7278338">
        <ele>21.767</ele>
        <time>2014-06-27T09:05:14Z</time>
      </trkpt>
      <trkpt lat="59.9802399" lon="17.7278157">
        <ele>21.767</ele>
        <time>2014-06-27T09:05:15Z</time>
      </trkpt>
      <trkpt lat="59.9802263" lon="17.727798">
        <ele>21.767</ele>
        <time>2014-06-27T09:05:16Z</time>
      </trkpt>
      <trkpt lat="59.980214" lon="17.7277771">
        <ele>21.767</ele>
        <time>2014-06-27T09:05:17Z</time>
      </trkpt>
      <trkpt lat="59.9802009" lon="17.7277571">
        <ele>22.2476</ele>
        <time>2014-06-27T09:05:18Z</time>
      </trkpt>
      <trkpt lat="59.9801871" lon="17.727739">
        <ele>22.2476</ele>
        <time>2014-06-27T09:05:19Z</time>
      </trkpt>
      <trkpt lat="59.9801729" lon="17.7277189">
        <ele>22.2476</ele>
        <time>2014-06-27T09:05:20Z</time>
      </trkpt>
      <trkpt lat="59.980157" lon="17.7276987">
        <ele>22.2476</ele>
        <time>2014-06-27T09:05:21Z</time>
      </trkpt>
      <trkpt lat="59.9801402" lon="17.7276819">
        <ele>22.7283</ele>
        <time>2014-06-27T09:05:22Z</time>
      </trkpt>
      <trkpt lat="59.9801261" lon="17.7276629">
        <ele>22.7283</ele>
        <time>2014-06-27T09:05:23Z</time>
      </trkpt>
      <trkpt lat="59.9801149" lon="17.7276401">
        <ele>23.209</ele>
        <time>2014-06-27T09:05:24Z</time>
      </trkpt>
      <trkpt lat="59.9801033" lon="17.7276168">
        <ele>22.7283</ele>
        <time>2014-06-27T09:05:25Z</time>
      </trkpt>
      <trkpt lat="59.9800897" lon="17.727594">
        <ele>23.209</ele>
        <time>2014-06-27T09:05:26Z</time>
      </trkpt>
      <trkpt lat="59.9800758" lon="17.7275709">
        <ele>23.209</ele>
        <time>2014-06-27T09:05:27Z</time>
      </trkpt>
      <trkpt lat="59.9800633" lon="17.727545">
        <ele>23.209</ele>
        <time>2014-06-27T09:05:28Z</time>
      </trkpt>
      <trkpt lat="59.9800504" lon="17.7275207">
        <ele>23.209</ele>
        <time>2014-06-27T09:05:29Z</time>
      </trkpt>
      <trkpt lat="59.9800374" lon="17.727496">
        <ele>23.209</ele>
        <time>2014-06-27T09:05:30Z</time>
      </trkpt>
      <trkpt lat="59.9800269" lon="17.7274665">
        <ele>22.7283</ele>
        <time>2014-06-27T09:05:31Z</time>
      </trkpt>
      <trkpt lat="59.9800156" lon="17.7274411">
        <ele>22.7283</ele>
        <time>2014-06-27T09:05:32Z</time>
      </trkpt>
      <trkpt lat="59.9800032" lon="17.727421">
        <ele>22.7283</ele>
        <time>2014-06-27T09:05:33Z</time>
      </trkpt>
      <trkpt lat="59.9799923" lon="17.7273986">
        <ele>22.7283</ele>
        <time>2014-06-27T09:05:34Z</time>
      </trkpt>
      <trkpt lat="59.9799786" lon="17.7273765">
        <ele>22.2476</ele>
        <time>2014-06-27T09:05:35Z</time>
      </trkpt>
      <trkpt lat="59.9799648" lon="17.7273515">
        <ele>22.2476</ele>
        <time>2014-06-27T09:05:36Z</time>
      </trkpt>
      <trkpt lat="59.9799532" lon="17.7273277">
        <ele>22.2476</ele>
        <time>2014-06-27T09:05:37Z</time>
      </trkpt>
      <trkpt lat="59.9799364" lon="17.727308">
        <ele>22.2476</ele>
        <time>2014-06-27T09:05:38Z</time>
      </trkpt>
      <trkpt lat="59.9799194" lon="17.7272899">
        <ele>22.2476</ele>
        <time>2014-06-27T09:05:39Z</time>
      </trkpt>
      <trkpt lat="59.9799078" lon="17.7272718">
        <ele>22.2476</ele>
        <time>2014-06-27T09:05:40Z</time>
      </trkpt>
      <trkpt lat="59.979896" lon="17.7272488">
        <ele>22.2476</ele>
        <time>2014-06-27T09:05:41Z</time>
      </trkpt>
      <trkpt lat="59.9798845" lon="17.7272268">
        <ele>21.767</ele>
        <time>2014-06-27T09:05:42Z</time>
      </trkpt>
      <trkpt lat="59.9798733" lon="17.7272073">
        <ele>21.767</ele>
        <time>2014-06-27T09:05:43Z</time>
      </trkpt>
      <trkpt lat="59.9798615" lon="17.7271841">
        <ele>21.767</ele>
        <time>2014-06-27T09:05:44Z</time>
      </trkpt>
      <trkpt lat="59.9798473" lon="17.7271609">
        <ele>21.767</ele>
        <time>2014-06-27T09:05:45Z</time>
      </trkpt>
      <trkpt lat="59.9798326" lon="17.7271319">
        <ele>21.767</ele>
        <time>2014-06-27T09:05:46Z</time>
      </trkpt>
      <trkpt lat="59.9798188" lon="17.7271059">
        <ele>21.767</ele>
        <time>2014-06-27T09:05:47Z</time>
      </trkpt>
      <trkpt lat="59.9798059" lon="17.7270785">
        <ele>21.767</ele>
        <time>2014-06-27T09:05:48Z</time>
      </trkpt>
      <trkpt lat="59.9797914" lon="17.7270531">
        <ele>21.767</ele>
        <time>2014-06-27T09:05:49Z</time>
      </trkpt>
      <trkpt lat="59.9797758" lon="17.7270343">
        <ele>21.767</ele>
        <time>2014-06-27T09:05:50Z</time>
      </trkpt>
      <trkpt lat="59.9797633" lon="17.7270117">
        <ele>21.767</ele>
        <time>2014-06-27T09:05:51Z</time>
      </trkpt>
      <trkpt lat="59.9797519" lon="17.7269893">
        <ele>21.767</ele>
        <time>2014-06-27T09:05:52Z</time>
      </trkpt>
      <trkpt lat="59.9797395" lon="17.7269682">
        <ele>21.767</ele>
        <time>2014-06-27T09:05:53Z</time>
      </trkpt>
      <trkpt lat="59.9797266" lon="17.7269452">
        <ele>21.767</ele>
        <time>2014-06-27T09:05:54Z</time>
      </trkpt>
      <trkpt lat="59.979711" lon="17.726919">
        <ele>21.2864</ele>
        <time>2014-06-27T09:05:55Z</time>
      </trkpt>
      <trkpt lat="59.9796975" lon="17.72689">
        <ele>21.2864</ele>
        <time>2014-06-27T09:05:56Z</time>
      </trkpt>
      <trkpt lat="59.979687" lon="17.7268651">
        <ele>21.2864</ele>
        <time>2014-06-27T09:05:57Z</time>
      </trkpt>
      <trkpt lat="59.9796754" lon="17.7268442">
        <ele>21.2864</ele>
        <time>2014-06-27T09:05:58Z</time>
      </trkpt>
      <trkpt lat="59.9796634" lon="17.7268191">
        <ele>20.8057</ele>
        <time>2014-06-27T09:05:59Z</time>
      </trkpt>
      <trkpt lat="59.9796498" lon="17.7267909">
        <ele>20.8057</ele>
        <time>2014-06-27T09:06:00Z</time>
      </trkpt>
      <trkpt lat="59.9796367" lon="17.7267613">
        <ele>20.8057</ele>
        <time>2014-06-27T09:06:01Z</time>
      </trkpt>
      <trkpt lat="59.9796253" lon="17.7267334">
        <ele>20.8057</ele>
        <time>2014-06-27T09:06:02Z</time>
      </trkpt>
      <trkpt lat="59.9796121" lon="17.7267055">
        <ele>20.325</ele>
        <time>2014-06-27T09:06:03Z</time>
      </trkpt>
      <trkpt lat="59.9796001" lon="17.726676">
        <ele>20.325</ele>
        <time>2014-06-27T09:06:04Z</time>
      </trkpt>
      <trkpt lat="59.9795881" lon="17.726648">
        <ele>19.8444</ele>
        <time>2014-06-27T09:06:05Z</time>
      </trkpt>
      <trkpt lat="59.9795758" lon="17.7266186">
        <ele>19.8444</ele>
        <time>2014-06-27T09:06:06Z</time>
      </trkpt>
      <trkpt lat="59.9795647" lon="17.7265877">
        <ele>19.8444</ele>
        <time>2014-06-27T09:06:07Z</time>
      </trkpt>
      <trkpt lat="59.979554" lon="17.7265594">
        <ele>19.8444</ele>
        <time>2014-06-27T09:06:08Z</time>
      </trkpt>
      <trkpt lat="59.979543" lon="17.7265302">
        <ele>19.8444</ele>
        <time>2014-06-27T09:06:09Z</time>
      </trkpt>
      <trkpt lat="59.9795307" lon="17.7265029">
        <ele>19.8444</ele>
        <time>2014-06-27T09:06:10Z</time>
      </trkpt>
      <trkpt lat="59.9795172" lon="17.7264828">
        <ele>20.325</ele>
        <time>2014-06-27T09:06:11Z</time>
      </trkpt>
      <trkpt lat="59.9795028" lon="17.7264657">
        <ele>20.325</ele>
        <time>2014-06-27T09:06:12Z</time>
      </trkpt>
      <trkpt lat="59.9794883" lon="17.7264505">
        <ele>20.325</ele>
        <time>2014-06-27T09:06:13Z</time>
      </trkpt>
      <trkpt lat="59.9794741" lon="17.7264392">
        <ele>20.8057</ele>
        <time>2014-06-27T09:06:14Z</time>
      </trkpt>
      <trkpt lat="59.9794602" lon="17.7264292">
        <ele>20.8057</ele>
        <time>2014-06-27T09:06:15Z</time>
      </trkpt>
      <trkpt lat="59.9794469" lon="17.7264175">
        <ele>20.8057</ele>
        <time>2014-06-27T09:06:16Z</time>
      </trkpt>
      <trkpt lat="59.9794318" lon="17.7264113">
        <ele>20.8057</ele>
        <time>2014-06-27T09:06:17Z</time>
      </trkpt>
      <trkpt lat="59.9794162" lon="17.7264051">
        <ele>20.8057</ele>
        <time>2014-06-27T09:06:18Z</time>
      </trkpt>
      <trkpt lat="59.9793998" lon="17.7264004">
        <ele>21.2864</ele>
        <time>2014-06-27T09:06:19Z</time>
      </trkpt>
      <trkpt lat="59.9793826" lon="17.726399">
        <ele>21.2864</ele>
        <time>2014-06-27T09:06:20Z</time>
      </trkpt>
      <trkpt lat="59.9793658" lon="17.7263946">
        <ele>21.2864</ele>
        <time>2014-06-27T09:06:21Z</time>
      </trkpt>
      <trkpt lat="59.9793487" lon="17.7263885">
        <ele>21.767</ele>
        <time>2014-06-27T09:06:22Z</time>
      </trkpt>
      <trkpt lat="59.9793323" lon="17.7263807">
        <ele>21.767</ele>
        <time>2014-06-27T09:06:23Z</time>
      </trkpt>
      <trkpt lat="59.9793161" lon="17.7263748">
        <ele>21.767</ele>
        <time>2014-06-27T09:06:24Z</time>
      </trkpt>
      <trkpt lat="59.9792996" lon="17.7263683">
        <ele>21.767</ele>
        <time>2014-06-27T09:06:25Z</time>
      </trkpt>
      <trkpt lat="59.9792836" lon="17.7263598">
        <ele>22.2476</ele>
        <time>2014-06-27T09:06:26Z</time>
      </trkpt>
      <trkpt lat="59.9792676" lon="17.7263519">
        <ele>22.2476</ele>
        <time>2014-06-27T09:06:27Z</time>
      </trkpt>
      <trkpt lat="59.9792521" lon="17.7263434">
        <ele>22.2476</ele>
        <time>2014-06-27T09:06:28Z</time>
      </trkpt>
      <trkpt lat="59.979237" lon="17.7263331">
        <ele>22.2476</ele>
        <time>2014-06-27T09:06:29Z</time>
      </trkpt>
      <trkpt lat="59.9792219" lon="17.7263234">
        <ele>22.2476</ele>
        <time>2014-06-27T09:06:30Z</time>
      </trkpt>
      <trkpt lat="59.979207" lon="17.7263143">
        <ele>22.2476</ele>
        <time>2014-06-27T09:06:31Z</time>
      </trkpt>
      <trkpt lat="59.9791924" lon="17.7263042">
        <ele>22.2476</ele>
        <time>2014-06-27T09:06:32Z</time>
      </trkpt>
      <trkpt lat="59.9791778" lon="17.7262931">
        <ele>22.2476</ele>
        <time>2014-06-27T09:06:33Z</time>
      </trkpt>
      <trkpt lat="59.9791626" lon="17.7262818">
        <ele>22.2476</ele>
        <time>2014-06-27T09:06:34Z</time>
      </trkpt>
      <trkpt lat="59.979148" lon="17.7262688">
        <ele>22.2476</ele>
        <time>2014-06-27T09:06:35Z</time>
      </trkpt>
      <trkpt lat="59.979133" lon="17.7262549">
        <ele>22.2476</ele>
        <time>2014-06-27T09:06:36Z</time>
      </trkpt>
      <trkpt lat="59.9791177" lon="17.7262409">
        <ele>22.2476</ele>
        <time>2014-06-27T09:06:37Z</time>
      </trkpt>
      <trkpt lat="59.9791034" lon="17.7262254">
        <ele>22.2476</ele>
        <time>2014-06-27T09:06:38Z</time>
      </trkpt>
      <trkpt lat="59.9790897" lon="17.7262087">
        <ele>22.2476</ele>
        <time>2014-06-27T09:06:39Z</time>
      </trkpt>
      <trkpt lat="59.9790749" lon="17.7261926">
        <ele>22.2476</ele>
        <time>2014-06-27T09:06:40Z</time>
      </trkpt>
      <trkpt lat="59.9790603" lon="17.7261761">
        <ele>22.2476</ele>
        <time>2014-06-27T09:06:41Z</time>
      </trkpt>
      <trkpt lat="59.9790462" lon="17.7261583">
        <ele>22.7283</ele>
        <time>2014-06-27T09:06:42Z</time>
      </trkpt>
      <trkpt lat="59.9790327" lon="17.7261389">
        <ele>22.7283</ele>
        <time>2014-06-27T09:06:43Z</time>
      </trkpt>
      <trkpt lat="59.9790196" lon="17.7261195">
        <ele>22.7283</ele>
        <time>2014-06-27T09:06:44Z</time>
      </trkpt>
      <trkpt lat="59.9790084" lon="17.7260975">
        <ele>22.7283</ele>
        <time>2014-06-27T09:06:45Z</time>
      </trkpt>
      <trkpt lat="59.9789971" lon="17.7260757">
        <ele>22.2476</ele>
        <time>2014-06-27T09:06:46Z</time>
      </trkpt>
      <trkpt lat="59.9789844" lon="17.7260555">
        <ele>21.767</ele>
        <time>2014-06-27T09:06:47Z</time>
      </trkpt>
      <trkpt lat="59.9789699" lon="17.7260385">
        <ele>21.767</ele>
        <time>2014-06-27T09:06:48Z</time>
      </trkpt>
      <trkpt lat="59.9789558" lon="17.7260203">
        <ele>21.767</ele>
        <time>2014-06-27T09:06:49Z</time>
      </trkpt>
      <trkpt lat="59.9789429" lon="17.7260017">
        <ele>21.767</ele>
        <time>2014-06-27T09:06:50Z</time>
      </trkpt>
      <trkpt lat="59.978931" lon="17.7259794">
        <ele>21.2864</ele>
        <time>2014-06-27T09:06:51Z</time>
      </trkpt>
      <trkpt lat="59.97892" lon="17.7259533">
        <ele>21.767</ele>
        <time>2014-06-27T09:06:52Z</time>
      </trkpt>
      <trkpt lat="59.9789096" lon="17.7259296">
        <ele>21.767</ele>
        <time>2014-06-27T09:06:53Z</time>
      </trkpt>
      <trkpt lat="59.9788987" lon="17.7259066">
        <ele>21.767</ele>
        <time>2014-06-27T09:06:54Z</time>
      </trkpt>
      <trkpt lat="59.9788867" lon="17.725885">
        <ele>21.767</ele>
        <time>2014-06-27T09:06:55Z</time>
      </trkpt>
      <trkpt lat="59.9788737" lon="17.7258657">
        <ele>22.2476</ele>
        <time>2014-06-27T09:06:56Z</time>
      </trkpt>
      <trkpt lat="59.9788606" lon="17.7258468">
        <ele>22.2476</ele>
        <time>2014-06-27T09:06:57Z</time>
      </trkpt>
      <trkpt lat="59.978847" lon="17.7258273">
        <ele>22.2476</ele>
        <time>2014-06-27T09:06:58Z</time>
      </trkpt>
      <trkpt lat="59.978831" lon="17.7258115">
        <ele>22.2476</ele>
        <time>2014-06-27T09:06:59Z</time>
      </trkpt>
      <trkpt lat="59.9788164" lon="17.7257979">
        <ele>22.2476</ele>
        <time>2014-06-27T09:07:00Z</time>
      </trkpt>
      <trkpt lat="59.9788028" lon="17.725783">
        <ele>21.767</ele>
        <time>2014-06-27T09:07:01Z</time>
      </trkpt>
      <trkpt lat="59.9787882" lon="17.7257688">
        <ele>21.767</ele>
        <time>2014-06-27T09:07:02Z</time>
      </trkpt>
      <trkpt lat="59.9787723" lon="17.7257581">
        <ele>21.2864</ele>
        <time>2014-06-27T09:07:03Z</time>
      </trkpt>
      <trkpt lat="59.9787563" lon="17.7257491">
        <ele>21.767</ele>
        <time>2014-06-27T09:07:04Z</time>
      </trkpt>
      <trkpt lat="59.9787418" lon="17.7257392">
        <ele>21.2864</ele>
        <time>2014-06-27T09:07:05Z</time>
      </trkpt>
      <trkpt lat="59.9787273" lon="17.7257285">
        <ele>21.2864</ele>
        <time>2014-06-27T09:07:06Z</time>
      </trkpt>
      <trkpt lat="59.9787118" lon="17.7257185">
        <ele>21.2864</ele>
        <time>2014-06-27T09:07:07Z</time>
      </trkpt>
      <trkpt lat="59.9786963" lon="17.7257097">
        <ele>21.2864</ele>
        <time>2014-06-27T09:07:08Z</time>
      </trkpt>
      <trkpt lat="59.9786805" lon="17.7257027">
        <ele>21.2864</ele>
        <time>2014-06-27T09:07:09Z</time>
      </trkpt>
      <trkpt lat="59.9786655" lon="17.7256944">
        <ele>21.2864</ele>
        <time>2014-06-27T09:07:10Z</time>
      </trkpt>
      <trkpt lat="59.9786515" lon="17.7256838">
        <ele>21.2864</ele>
        <time>2014-06-27T09:07:11Z</time>
      </trkpt>
      <trkpt lat="59.9786365" lon="17.7256752">
        <ele>21.2864</ele>
        <time>2014-06-27T09:07:12Z</time>
      </trkpt>
      <trkpt lat="59.9786199" lon="17.7256683">
        <ele>21.2864</ele>
        <time>2014-06-27T09:07:13Z</time>
      </trkpt>
      <trkpt lat="59.9786043" lon="17.7256581">
        <ele>20.8057</ele>
        <time>2014-06-27T09:07:14Z</time>
      </trkpt>
      <trkpt lat="59.9785893" lon="17.7256461">
        <ele>21.2864</ele>
        <time>2014-06-27T09:07:15Z</time>
      </trkpt>
      <trkpt lat="59.9785738" lon="17.7256359">
        <ele>21.2864</ele>
        <time>2014-06-27T09:07:16Z</time>
      </trkpt>
      <trkpt lat="59.9785574" lon="17.7256256">
        <ele>21.2864</ele>
        <time>2014-06-27T09:07:17Z</time>
      </trkpt>
      <trkpt lat="59.9785424" lon="17.7256142">
        <ele>21.2864</ele>
        <time>2014-06-27T09:07:18Z</time>
      </trkpt>
      <trkpt lat="59.9785273" lon="17.7256027">
        <ele>21.2864</ele>
        <time>2014-06-27T09:07:19Z</time>
      </trkpt>
      <trkpt lat="59.9785113" lon="17.7255923">
        <ele>21.2864</ele>
        <time>2014-06-27T09:07:20Z</time>
      </trkpt>
      <trkpt lat="59.9784954" lon="17.725583">
        <ele>21.2864</ele>
        <time>2014-06-27T09:07:21Z</time>
      </trkpt>
      <trkpt lat="59.9784798" lon="17.7255737">
        <ele>21.2864</ele>
        <time>2014-06-27T09:07:22Z</time>
      </trkpt>
      <trkpt lat="59.978465" lon="17.7255626">
        <ele>21.2864</ele>
        <time>2014-06-27T09:07:23Z</time>
      </trkpt>
      <trkpt lat="59.9784498" lon="17.7255525">
        <ele>21.2864</ele>
        <time>2014-06-27T09:07:24Z</time>
      </trkpt>
      <trkpt lat="59.9784324" lon="17.7255415">
        <ele>21.2864</ele>
        <time>2014-06-27T09:07:25Z</time>
      </trkpt>
      <trkpt lat="59.9784154" lon="17.7255277">
        <ele>20.8057</ele>
        <time>2014-06-27T09:07:26Z</time>
      </trkpt>
      <trkpt lat="59.9784009" lon="17.7255192">
        <ele>20.8057</ele>
        <time>2014-06-27T09:07:27Z</time>
      </trkpt>
      <trkpt lat="59.9783881" lon="17.7255103">
        <ele>20.8057</ele>
        <time>2014-06-27T09:07:28Z</time>
      </trkpt>
      <trkpt lat="59.9783741" lon="17.7254929">
        <ele>20.8057</ele>
        <time>2014-06-27T09:07:29Z</time>
      </trkpt>
      <trkpt lat="59.978358" lon="17.7254742">
        <ele>20.8057</ele>
        <time>2014-06-27T09:07:30Z</time>
      </trkpt>
      <trkpt lat="59.9783405" lon="17.7254616">
        <ele>20.8057</ele>
        <time>2014-06-27T09:07:31Z</time>
      </trkpt>
      <trkpt lat="59.978322" lon="17.7254509">
        <ele>20.8057</ele>
        <time>2014-06-27T09:07:32Z</time>
      </trkpt>
      <trkpt lat="59.9783025" lon="17.7254422">
        <ele>20.325</ele>
        <time>2014-06-27T09:07:33Z</time>
      </trkpt>
      <trkpt lat="59.9782849" lon="17.7254312">
        <ele>20.325</ele>
        <time>2014-06-27T09:07:34Z</time>
      </trkpt>
      <trkpt lat="59.9782707" lon="17.7254176">
        <ele>20.325</ele>
        <time>2014-06-27T09:07:35Z</time>
      </trkpt>
      <trkpt lat="59.9782578" lon="17.7254023">
        <ele>20.325</ele>
        <time>2014-06-27T09:07:36Z</time>
      </trkpt>
      <trkpt lat="59.9782444" lon="17.7253899">
        <ele>20.325</ele>
        <time>2014-06-27T09:07:37Z</time>
      </trkpt>
      <trkpt lat="59.9782285" lon="17.7253814">
        <ele>19.8444</ele>
        <time>2014-06-27T09:07:38Z</time>
      </trkpt>
      <trkpt lat="59.9782128" lon="17.7253712">
        <ele>19.8444</ele>
        <time>2014-06-27T09:07:39Z</time>
      </trkpt>
      <trkpt lat="59.9781974" lon="17.7253598">
        <ele>19.8444</ele>
        <time>2014-06-27T09:07:40Z</time>
      </trkpt>
      <trkpt lat="59.9781819" lon="17.7253487">
        <ele>19.3638</ele>
        <time>2014-06-27T09:07:41Z</time>
      </trkpt>
      <trkpt lat="59.9781656" lon="17.7253375">
        <ele>19.3638</ele>
        <time>2014-06-27T09:07:42Z</time>
      </trkpt>
      <trkpt lat="59.9781487" lon="17.7253261">
        <ele>19.3638</ele>
        <time>2014-06-27T09:07:43Z</time>
      </trkpt>
      <trkpt lat="59.9781311" lon="17.7253142">
        <ele>19.3638</ele>
        <time>2014-06-27T09:07:44Z</time>
      </trkpt>
      <trkpt lat="59.978114" lon="17.7252984">
        <ele>18.8831</ele>
        <time>2014-06-27T09:07:45Z</time>
      </trkpt>
      <trkpt lat="59.9780969" lon="17.725284">
        <ele>18.4023</ele>
        <time>2014-06-27T09:07:46Z</time>
      </trkpt>
      <trkpt lat="59.9780812" lon="17.7252738">
        <ele>18.4023</ele>
        <time>2014-06-27T09:07:47Z</time>
      </trkpt>
      <trkpt lat="59.9780653" lon="17.7252674">
        <ele>18.4023</ele>
        <time>2014-06-27T09:07:48Z</time>
      </trkpt>
      <trkpt lat="59.9780499" lon="17.7252613">
        <ele>18.4023</ele>
        <time>2014-06-27T09:07:49Z</time>
      </trkpt>
      <trkpt lat="59.9780346" lon="17.725252">
        <ele>18.8831</ele>
        <time>2014-06-27T09:07:50Z</time>
      </trkpt>
      <trkpt lat="59.9780183" lon="17.7252431">
        <ele>18.8831</ele>
        <time>2014-06-27T09:07:51Z</time>
      </trkpt>
      <trkpt lat="59.9780027" lon="17.725237">
        <ele>18.8831</ele>
        <time>2014-06-27T09:07:52Z</time>
      </trkpt>
      <trkpt lat="59.977987" lon="17.7252323">
        <ele>18.8831</ele>
        <time>2014-06-27T09:07:53Z</time>
      </trkpt>
      <trkpt lat="59.9779694" lon="17.7252262">
        <ele>19.3638</ele>
        <time>2014-06-27T09:07:54Z</time>
      </trkpt>
      <trkpt lat="59.9779516" lon="17.7252219">
        <ele>19.8444</ele>
        <time>2014-06-27T09:07:55Z</time>
      </trkpt>
      <trkpt lat="59.9779342" lon="17.7252168">
        <ele>20.325</ele>
        <time>2014-06-27T09:07:56Z</time>
      </trkpt>
      <trkpt lat="59.9779178" lon="17.7252109">
        <ele>20.325</ele>
        <time>2014-06-27T09:07:57Z</time>
      </trkpt>
      <trkpt lat="59.9779022" lon="17.7252037">
        <ele>20.8057</ele>
        <time>2014-06-27T09:07:58Z</time>
      </trkpt>
      <trkpt lat="59.9778872" lon="17.7251967">
        <ele>20.8057</ele>
        <time>2014-06-27T09:07:59Z</time>
      </trkpt>
      <trkpt lat="59.9778721" lon="17.72519">
        <ele>20.8057</ele>
        <time>2014-06-27T09:08:00Z</time>
      </trkpt>
      <trkpt lat="59.977857" lon="17.7251829">
        <ele>20.8057</ele>
        <time>2014-06-27T09:08:01Z</time>
      </trkpt>
      <trkpt lat="59.9778405" lon="17.7251782">
        <ele>20.8057</ele>
        <time>2014-06-27T09:08:02Z</time>
      </trkpt>
      <trkpt lat="59.9778225" lon="17.7251743">
        <ele>20.8057</ele>
        <time>2014-06-27T09:08:03Z</time>
      </trkpt>
      <trkpt lat="59.9778042" lon="17.7251728">
        <ele>20.8057</ele>
        <time>2014-06-27T09:08:04Z</time>
      </trkpt>
      <trkpt lat="59.9777852" lon="17.7251706">
        <ele>20.8057</ele>
        <time>2014-06-27T09:08:05Z</time>
      </trkpt>
      <trkpt lat="59.9777675" lon="17.7251664">
        <ele>20.8057</ele>
        <time>2014-06-27T09:08:06Z</time>
      </trkpt>
      <trkpt lat="59.977751" lon="17.7251619">
        <ele>20.8057</ele>
        <time>2014-06-27T09:08:07Z</time>
      </trkpt>
      <trkpt lat="59.9777346" lon="17.725158">
        <ele>20.8057</ele>
        <time>2014-06-27T09:08:08Z</time>
      </trkpt>
      <trkpt lat="59.9777182" lon="17.7251539">
        <ele>20.8057</ele>
        <time>2014-06-27T09:08:09Z</time>
      </trkpt>
      <trkpt lat="59.9777011" lon="17.7251494">
        <ele>21.2864</ele>
        <time>2014-06-27T09:08:10Z</time>
      </trkpt>
      <trkpt lat="59.9776834" lon="17.7251442">
        <ele>21.2864</ele>
        <time>2014-06-27T09:08:11Z</time>
      </trkpt>
      <trkpt lat="59.9776659" lon="17.7251373">
        <ele>21.2864</ele>
        <time>2014-06-27T09:08:12Z</time>
      </trkpt>
      <trkpt lat="59.9776479" lon="17.7251299">
        <ele>21.2864</ele>
        <time>2014-06-27T09:08:13Z</time>
      </trkpt>
      <trkpt lat="59.9776287" lon="17.7251242">
        <ele>21.767</ele>
        <time>2014-06-27T09:08:14Z</time>
      </trkpt>
      <trkpt lat="59.9776083" lon="17.7251179">
        <ele>21.2864</ele>
        <time>2014-06-27T09:08:15Z</time>
      </trkpt>
      <trkpt lat="59.9775887" lon="17.7251153">
        <ele>21.2864</ele>
        <time>2014-06-27T09:08:16Z</time>
      </trkpt>
      <trkpt lat="59.9775706" lon="17.7251127">
        <ele>21.2864</ele>
        <time>2014-06-27T09:08:17Z</time>
      </trkpt>
      <trkpt lat="59.9775521" lon="17.725109">
        <ele>21.2864</ele>
        <time>2014-06-27T09:08:18Z</time>
      </trkpt>
      <trkpt lat="59.9775357" lon="17.7251036">
        <ele>21.2864</ele>
        <time>2014-06-27T09:08:19Z</time>
      </trkpt>
      <trkpt lat="59.9775196" lon="17.725096">
        <ele>21.2864</ele>
        <time>2014-06-27T09:08:20Z</time>
      </trkpt>
      <trkpt lat="59.9775012" lon="17.7250899">
        <ele>20.8057</ele>
        <time>2014-06-27T09:08:21Z</time>
      </trkpt>
      <trkpt lat="59.9774831" lon="17.7250842">
        <ele>20.8057</ele>
        <time>2014-06-27T09:08:22Z</time>
      </trkpt>
      <trkpt lat="59.9774665" lon="17.7250815">
        <ele>20.8057</ele>
        <time>2014-06-27T09:08:23Z</time>
      </trkpt>
      <trkpt lat="59.9774445" lon="17.7250778">
        <ele>20.325</ele>
        <time>2014-06-27T09:08:24Z</time>
      </trkpt>
      <trkpt lat="59.9774188" lon="17.7250733">
        <ele>20.325</ele>
        <time>2014-06-27T09:08:25Z</time>
      </trkpt>
      <trkpt lat="59.9773981" lon="17.7250656">
        <ele>19.8444</ele>
        <time>2014-06-27T09:08:26Z</time>
      </trkpt>
      <trkpt lat="59.977382" lon="17.725057">
        <ele>20.325</ele>
        <time>2014-06-27T09:08:27Z</time>
      </trkpt>
      <trkpt lat="59.9773673" lon="17.725049">
        <ele>20.325</ele>
        <time>2014-06-27T09:08:28Z</time>
      </trkpt>
      <trkpt lat="59.9773493" lon="17.7250453">
        <ele>20.325</ele>
        <time>2014-06-27T09:08:29Z</time>
      </trkpt>
      <trkpt lat="59.9773317" lon="17.7250406">
        <ele>20.325</ele>
        <time>2014-06-27T09:08:30Z</time>
      </trkpt>
      <trkpt lat="59.9773137" lon="17.7250345">
        <ele>19.8444</ele>
        <time>2014-06-27T09:08:31Z</time>
      </trkpt>
      <trkpt lat="59.9772935" lon="17.7250308">
        <ele>19.3638</ele>
        <time>2014-06-27T09:08:32Z</time>
      </trkpt>
      <trkpt lat="59.9772742" lon="17.7250252">
        <ele>19.3638</ele>
        <time>2014-06-27T09:08:33Z</time>
      </trkpt>
      <trkpt lat="59.9772546" lon="17.7250199">
        <ele>18.8831</ele>
        <time>2014-06-27T09:08:34Z</time>
      </trkpt>
      <trkpt lat="59.9772358" lon="17.7250161">
        <ele>18.8831</ele>
        <time>2014-06-27T09:08:35Z</time>
      </trkpt>
      <trkpt lat="59.9772189" lon="17.7250141">
        <ele>18.8831</ele>
        <time>2014-06-27T09:08:36Z</time>
      </trkpt>
      <trkpt lat="59.9772005" lon="17.7250106">
        <ele>18.4023</ele>
        <time>2014-06-27T09:08:37Z</time>
      </trkpt>
      <trkpt lat="59.9771806" lon="17.7250106">
        <ele>18.4023</ele>
        <time>2014-06-27T09:08:38Z</time>
      </trkpt>
      <trkpt lat="59.9771624" lon="17.725012">
        <ele>18.4023</ele>
        <time>2014-06-27T09:08:39Z</time>
      </trkpt>
      <trkpt lat="59.9771433" lon="17.7250133">
        <ele>17.9218</ele>
        <time>2014-06-27T09:08:40Z</time>
      </trkpt>
      <trkpt lat="59.9771268" lon="17.725018">
        <ele>17.9218</ele>
        <time>2014-06-27T09:08:41Z</time>
      </trkpt>
      <trkpt lat="59.9771117" lon="17.7250252">
        <ele>17.9218</ele>
        <time>2014-06-27T09:08:42Z</time>
      </trkpt>
      <trkpt lat="59.9770966" lon="17.7250339">
        <ele>18.4023</ele>
        <time>2014-06-27T09:08:43Z</time>
      </trkpt>
      <trkpt lat="59.9770837" lon="17.7250444">
        <ele>18.4023</ele>
        <time>2014-06-27T09:08:44Z</time>
      </trkpt>
      <trkpt lat="59.9770716" lon="17.7250561">
        <ele>18.4023</ele>
        <time>2014-06-27T09:08:45Z</time>
      </trkpt>
      <trkpt lat="59.9770582" lon="17.7250687">
        <ele>18.4023</ele>
        <time>2014-06-27T09:08:46Z</time>
      </trkpt>
      <trkpt lat="59.9770451" lon="17.7250831">
        <ele>18.8831</ele>
        <time>2014-06-27T09:08:47Z</time>
      </trkpt>
      <trkpt lat="59.9770324" lon="17.7250976">
        <ele>18.8831</ele>
        <time>2014-06-27T09:08:48Z</time>
      </trkpt>
      <trkpt lat="59.97702" lon="17.7251127">
        <ele>18.8831</ele>
        <time>2014-06-27T09:08:49Z</time>
      </trkpt>
      <trkpt lat="59.9770079" lon="17.7251282">
        <ele>19.3638</ele>
        <time>2014-06-27T09:08:50Z</time>
      </trkpt>
      <trkpt lat="59.9769956" lon="17.7251432">
        <ele>19.3638</ele>
        <time>2014-06-27T09:08:51Z</time>
      </trkpt>
      <trkpt lat="59.9769815" lon="17.7251592">
        <ele>19.8444</ele>
        <time>2014-06-27T09:08:52Z</time>
      </trkpt>
      <trkpt lat="59.9769675" lon="17.7251749">
        <ele>19.8444</ele>
        <time>2014-06-27T09:08:53Z</time>
      </trkpt>
      <trkpt lat="59.9769536" lon="17.725191">
        <ele>20.325</ele>
        <time>2014-06-27T09:08:54Z</time>
      </trkpt>
      <trkpt lat="59.9769402" lon="17.7252069">
        <ele>20.8057</ele>
        <time>2014-06-27T09:08:55Z</time>
      </trkpt>
      <trkpt lat="59.9769272" lon="17.7252225">
        <ele>20.8057</ele>
        <time>2014-06-27T09:08:56Z</time>
      </trkpt>
      <trkpt lat="59.9769149" lon="17.7252386">
        <ele>21.2864</ele>
        <time>2014-06-27T09:08:57Z</time>
      </trkpt>
      <trkpt lat="59.9769029" lon="17.7252526">
        <ele>21.2864</ele>
        <time>2014-06-27T09:08:58Z</time>
      </trkpt>
      <trkpt lat="59.9768914" lon="17.7252675">
        <ele>21.767</ele>
        <time>2014-06-27T09:08:59Z</time>
      </trkpt>
      <trkpt lat="59.9768801" lon="17.7252844">
        <ele>22.2476</ele>
        <time>2014-06-27T09:09:00Z</time>
      </trkpt>
      <trkpt lat="59.9768686" lon="17.7253005">
        <ele>22.7283</ele>
        <time>2014-06-27T09:09:01Z</time>
      </trkpt>
      <trkpt lat="59.9768559" lon="17.7253161">
        <ele>22.7283</ele>
        <time>2014-06-27T09:09:02Z</time>
      </trkpt>
      <trkpt lat="59.9768428" lon="17.7253319">
        <ele>22.7283</ele>
        <time>2014-06-27T09:09:03Z</time>
      </trkpt>
      <trkpt lat="59.97683" lon="17.7253463">
        <ele>23.209</ele>
        <time>2014-06-27T09:09:04Z</time>
      </trkpt>
      <trkpt lat="59.9768184" lon="17.7253587">
        <ele>23.209</ele>
        <time>2014-06-27T09:09:05Z</time>
      </trkpt>
      <trkpt lat="59.9768066" lon="17.7253726">
        <ele>23.6896</ele>
        <time>2014-06-27T09:09:06Z</time>
      </trkpt>
      <trkpt lat="59.9767954" lon="17.7253847">
        <ele>23.6896</ele>
        <time>2014-06-27T09:09:07Z</time>
      </trkpt>
      <trkpt lat="59.9767822" lon="17.7253971">
        <ele>23.6896</ele>
        <time>2014-06-27T09:09:08Z</time>
      </trkpt>
      <trkpt lat="59.9767672" lon="17.7254109">
        <ele>24.1703</ele>
        <time>2014-06-27T09:09:09Z</time>
      </trkpt>
      <trkpt lat="59.9767537" lon="17.7254235">
        <ele>24.1703</ele>
        <time>2014-06-27T09:09:10Z</time>
      </trkpt>
      <trkpt lat="59.9767412" lon="17.7254365">
        <ele>24.651</ele>
        <time>2014-06-27T09:09:11Z</time>
      </trkpt>
      <trkpt lat="59.9767277" lon="17.7254526">
        <ele>24.651</ele>
        <time>2014-06-27T09:09:12Z</time>
      </trkpt>
      <trkpt lat="59.9767136" lon="17.7254674">
        <ele>24.651</ele>
        <time>2014-06-27T09:09:13Z</time>
      </trkpt>
      <trkpt lat="59.9767003" lon="17.7254803">
        <ele>24.651</ele>
        <time>2014-06-27T09:09:14Z</time>
      </trkpt>
      <trkpt lat="59.9766879" lon="17.7254935">
        <ele>24.651</ele>
        <time>2014-06-27T09:09:15Z</time>
      </trkpt>
      <trkpt lat="59.9766756" lon="17.7255063">
        <ele>24.651</ele>
        <time>2014-06-27T09:09:16Z</time>
      </trkpt>
      <trkpt lat="59.9766642" lon="17.7255187">
        <ele>24.651</ele>
        <time>2014-06-27T09:09:17Z</time>
      </trkpt>
      <trkpt lat="59.9766516" lon="17.7255326">
        <ele>24.651</ele>
        <time>2014-06-27T09:09:18Z</time>
      </trkpt>
      <trkpt lat="59.9766388" lon="17.7255474">
        <ele>24.651</ele>
        <time>2014-06-27T09:09:19Z</time>
      </trkpt>
      <trkpt lat="59.9766272" lon="17.7255613">
        <ele>25.1317</ele>
        <time>2014-06-27T09:09:20Z</time>
      </trkpt>
      <trkpt lat="59.9766155" lon="17.7255743">
        <ele>25.1317</ele>
        <time>2014-06-27T09:09:21Z</time>
      </trkpt>
      <trkpt lat="59.9766031" lon="17.725588">
        <ele>25.1317</ele>
        <time>2014-06-27T09:09:22Z</time>
      </trkpt>
      <trkpt lat="59.9765904" lon="17.7256027">
        <ele>25.1317</ele>
        <time>2014-06-27T09:09:23Z</time>
      </trkpt>
      <trkpt lat="59.976578" lon="17.7256183">
        <ele>25.6123</ele>
        <time>2014-06-27T09:09:24Z</time>
      </trkpt>
      <trkpt lat="59.9765662" lon="17.7256332">
        <ele>25.6123</ele>
        <time>2014-06-27T09:09:25Z</time>
      </trkpt>
      <trkpt lat="59.9765532" lon="17.7256467">
        <ele>25.6123</ele>
        <time>2014-06-27T09:09:26Z</time>
      </trkpt>
      <trkpt lat="59.9765392" lon="17.7256592">
        <ele>25.6123</ele>
        <time>2014-06-27T09:09:27Z</time>
      </trkpt>
      <trkpt lat="59.9765253" lon="17.7256714">
        <ele>25.6123</ele>
        <time>2014-06-27T09:09:28Z</time>
      </trkpt>
      <trkpt lat="59.9765111" lon="17.725685">
        <ele>25.6123</ele>
        <time>2014-06-27T09:09:29Z</time>
      </trkpt>
      <trkpt lat="59.9764963" lon="17.7257002">
        <ele>26.0929</ele>
        <time>2014-06-27T09:09:30Z</time>
      </trkpt>
      <trkpt lat="59.9764824" lon="17.7257155">
        <ele>26.0929</ele>
        <time>2014-06-27T09:09:31Z</time>
      </trkpt>
      <trkpt lat="59.9764696" lon="17.7257297">
        <ele>26.0929</ele>
        <time>2014-06-27T09:09:32Z</time>
      </trkpt>
      <trkpt lat="59.9764567" lon="17.7257434">
        <ele>26.0929</ele>
        <time>2014-06-27T09:09:33Z</time>
      </trkpt>
      <trkpt lat="59.9764434" lon="17.725756">
        <ele>26.0929</ele>
        <time>2014-06-27T09:09:34Z</time>
      </trkpt>
      <trkpt lat="59.9764309" lon="17.7257681">
        <ele>26.0929</ele>
        <time>2014-06-27T09:09:35Z</time>
      </trkpt>
      <trkpt lat="59.9764187" lon="17.725781">
        <ele>26.0929</ele>
        <time>2014-06-27T09:09:36Z</time>
      </trkpt>
      <trkpt lat="59.9764052" lon="17.7257953">
        <ele>26.0929</ele>
        <time>2014-06-27T09:09:37Z</time>
      </trkpt>
      <trkpt lat="59.9763919" lon="17.7258099">
        <ele>26.5736</ele>
        <time>2014-06-27T09:09:38Z</time>
      </trkpt>
      <trkpt lat="59.976379" lon="17.7258244">
        <ele>26.5736</ele>
        <time>2014-06-27T09:09:39Z</time>
      </trkpt>
      <trkpt lat="59.9763652" lon="17.7258393">
        <ele>26.5736</ele>
        <time>2014-06-27T09:09:40Z</time>
      </trkpt>
      <trkpt lat="59.9763513" lon="17.7258543">
        <ele>26.5736</ele>
        <time>2014-06-27T09:09:41Z</time>
      </trkpt>
      <trkpt lat="59.9763383" lon="17.7258691">
        <ele>26.5736</ele>
        <time>2014-06-27T09:09:42Z</time>
      </trkpt>
      <trkpt lat="59.9763249" lon="17.725884">
        <ele>27.0543</ele>
        <time>2014-06-27T09:09:43Z</time>
      </trkpt>
      <trkpt lat="59.9763111" lon="17.7258969">
        <ele>26.5736</ele>
        <time>2014-06-27T09:09:44Z</time>
      </trkpt>
      <trkpt lat="59.9762984" lon="17.7259087">
        <ele>27.0543</ele>
        <time>2014-06-27T09:09:45Z</time>
      </trkpt>
      <trkpt lat="59.9762852" lon="17.7259212">
        <ele>26.5736</ele>
        <time>2014-06-27T09:09:46Z</time>
      </trkpt>
      <trkpt lat="59.9762712" lon="17.7259348">
        <ele>26.5736</ele>
        <time>2014-06-27T09:09:47Z</time>
      </trkpt>
      <trkpt lat="59.9762574" lon="17.7259499">
        <ele>27.0543</ele>
        <time>2014-06-27T09:09:48Z</time>
      </trkpt>
      <trkpt lat="59.9762446" lon="17.7259638">
        <ele>27.0543</ele>
        <time>2014-06-27T09:09:49Z</time>
      </trkpt>
      <trkpt lat="59.9762315" lon="17.7259761">
        <ele>27.0543</ele>
        <time>2014-06-27T09:09:50Z</time>
      </trkpt>
      <trkpt lat="59.9762186" lon="17.7259886">
        <ele>27.0543</ele>
        <time>2014-06-27T09:09:51Z</time>
      </trkpt>
      <trkpt lat="59.9762054" lon="17.7260029">
        <ele>27.5349</ele>
        <time>2014-06-27T09:09:52Z</time>
      </trkpt>
      <trkpt lat="59.976192" lon="17.7260187">
        <ele>27.5349</ele>
        <time>2014-06-27T09:09:53Z</time>
      </trkpt>
      <trkpt lat="59.9761787" lon="17.7260343">
        <ele>27.5349</ele>
        <time>2014-06-27T09:09:54Z</time>
      </trkpt>
      <trkpt lat="59.9761637" lon="17.7260508">
        <ele>28.0155</ele>
        <time>2014-06-27T09:09:55Z</time>
      </trkpt>
      <trkpt lat="59.9761483" lon="17.7260659">
        <ele>28.0155</ele>
        <time>2014-06-27T09:09:56Z</time>
      </trkpt>
      <trkpt lat="59.9761342" lon="17.7260796">
        <ele>28.0155</ele>
        <time>2014-06-27T09:09:57Z</time>
      </trkpt>
      <trkpt lat="59.9761212" lon="17.7260916">
        <ele>28.0155</ele>
        <time>2014-06-27T09:09:58Z</time>
      </trkpt>
      <trkpt lat="59.9761078" lon="17.7261045">
        <ele>28.0155</ele>
        <time>2014-06-27T09:09:59Z</time>
      </trkpt>
      <trkpt lat="59.9760932" lon="17.726119">
        <ele>28.4962</ele>
        <time>2014-06-27T09:10:00Z</time>
      </trkpt>
      <trkpt lat="59.9760801" lon="17.7261314">
        <ele>28.4962</ele>
        <time>2014-06-27T09:10:01Z</time>
      </trkpt>
      <trkpt lat="59.9760658" lon="17.7261445">
        <ele>28.9769</ele>
        <time>2014-06-27T09:10:02Z</time>
      </trkpt>
      <trkpt lat="59.9760518" lon="17.726159">
        <ele>28.9769</ele>
        <time>2014-06-27T09:10:03Z</time>
      </trkpt>
      <trkpt lat="59.9760392" lon="17.7261716">
        <ele>28.9769</ele>
        <time>2014-06-27T09:10:04Z</time>
      </trkpt>
      <trkpt lat="59.9760268" lon="17.7261833">
        <ele>28.9769</ele>
        <time>2014-06-27T09:10:05Z</time>
      </trkpt>
      <trkpt lat="59.9760133" lon="17.7261992">
        <ele>29.4575</ele>
        <time>2014-06-27T09:10:06Z</time>
      </trkpt>
      <trkpt lat="59.9760004" lon="17.7262132">
        <ele>29.4575</ele>
        <time>2014-06-27T09:10:07Z</time>
      </trkpt>
      <trkpt lat="59.9759868" lon="17.7262269">
        <ele>29.4575</ele>
        <time>2014-06-27T09:10:08Z</time>
      </trkpt>
      <trkpt lat="59.9759724" lon="17.7262415">
        <ele>29.4575</ele>
        <time>2014-06-27T09:10:09Z</time>
      </trkpt>
      <trkpt lat="59.9759581" lon="17.7262564">
        <ele>29.4575</ele>
        <time>2014-06-27T09:10:10Z</time>
      </trkpt>
      <trkpt lat="59.9759435" lon="17.7262714">
        <ele>29.4575</ele>
        <time>2014-06-27T09:10:11Z</time>
      </trkpt>
      <trkpt lat="59.975928" lon="17.726286">
        <ele>29.9381</ele>
        <time>2014-06-27T09:10:12Z</time>
      </trkpt>
      <trkpt lat="59.9759138" lon="17.7262998">
        <ele>29.9381</ele>
        <time>2014-06-27T09:10:13Z</time>
      </trkpt>
      <trkpt lat="59.9758995" lon="17.7263122">
        <ele>29.9381</ele>
        <time>2014-06-27T09:10:14Z</time>
      </trkpt>
      <trkpt lat="59.9758858" lon="17.726329">
        <ele>30.4188</ele>
        <time>2014-06-27T09:10:15Z</time>
      </trkpt>
      <trkpt lat="59.9758744" lon="17.7263469">
        <ele>30.4188</ele>
        <time>2014-06-27T09:10:16Z</time>
      </trkpt>
      <trkpt lat="59.9758602" lon="17.7263666">
        <ele>30.4188</ele>
        <time>2014-06-27T09:10:17Z</time>
      </trkpt>
      <trkpt lat="59.9758447" lon="17.726387">
        <ele>30.4188</ele>
        <time>2014-06-27T09:10:18Z</time>
      </trkpt>
      <trkpt lat="59.975828" lon="17.7264051">
        <ele>30.8995</ele>
        <time>2014-06-27T09:10:19Z</time>
      </trkpt>
      <trkpt lat="59.9758103" lon="17.7264209">
        <ele>30.8995</ele>
        <time>2014-06-27T09:10:20Z</time>
      </trkpt>
      <trkpt lat="59.9757942" lon="17.726437">
        <ele>30.8995</ele>
        <time>2014-06-27T09:10:21Z</time>
      </trkpt>
      <trkpt lat="59.9757783" lon="17.7264548">
        <ele>30.8995</ele>
        <time>2014-06-27T09:10:22Z</time>
      </trkpt>
      <trkpt lat="59.9757638" lon="17.7264697">
        <ele>30.8995</ele>
        <time>2014-06-27T09:10:23Z</time>
      </trkpt>
      <trkpt lat="59.9757493" lon="17.7264843">
        <ele>30.8995</ele>
        <time>2014-06-27T09:10:24Z</time>
      </trkpt>
      <trkpt lat="59.9757346" lon="17.726499">
        <ele>30.8995</ele>
        <time>2014-06-27T09:10:25Z</time>
      </trkpt>
      <trkpt lat="59.9757198" lon="17.7265157">
        <ele>31.3801</ele>
        <time>2014-06-27T09:10:26Z</time>
      </trkpt>
      <trkpt lat="59.9757061" lon="17.726531">
        <ele>31.3801</ele>
        <time>2014-06-27T09:10:27Z</time>
      </trkpt>
      <trkpt lat="59.9756927" lon="17.7265451">
        <ele>31.3801</ele>
        <time>2014-06-27T09:10:28Z</time>
      </trkpt>
      <trkpt lat="59.9756789" lon="17.7265579">
        <ele>31.3801</ele>
        <time>2014-06-27T09:10:29Z</time>
      </trkpt>
      <trkpt lat="59.9756643" lon="17.7265723">
        <ele>31.8607</ele>
        <time>2014-06-27T09:10:30Z</time>
      </trkpt>
      <trkpt lat="59.975651" lon="17.7265864">
        <ele>31.3801</ele>
        <time>2014-06-27T09:10:31Z</time>
      </trkpt>
      <trkpt lat="59.9756373" lon="17.7266048">
        <ele>31.8607</ele>
        <time>2014-06-27T09:10:32Z</time>
      </trkpt>
      <trkpt lat="59.9756239" lon="17.7266217">
        <ele>31.8607</ele>
        <time>2014-06-27T09:10:33Z</time>
      </trkpt>
      <trkpt lat="59.975611" lon="17.7266336">
        <ele>31.3801</ele>
        <time>2014-06-27T09:10:34Z</time>
      </trkpt>
      <trkpt lat="59.975598" lon="17.726647">
        <ele>31.3801</ele>
        <time>2014-06-27T09:10:35Z</time>
      </trkpt>
      <trkpt lat="59.9755851" lon="17.7266601">
        <ele>31.3801</ele>
        <time>2014-06-27T09:10:36Z</time>
      </trkpt>
      <trkpt lat="59.9755711" lon="17.726673">
        <ele>31.3801</ele>
        <time>2014-06-27T09:10:37Z</time>
      </trkpt>
      <trkpt lat="59.9755558" lon="17.7266896">
        <ele>31.3801</ele>
        <time>2014-06-27T09:10:38Z</time>
      </trkpt>
      <trkpt lat="59.9755429" lon="17.72671">
        <ele>31.3801</ele>
        <time>2014-06-27T09:10:39Z</time>
      </trkpt>
      <trkpt lat="59.9755325" lon="17.7267266">
        <ele>31.8607</ele>
        <time>2014-06-27T09:10:40Z</time>
      </trkpt>
      <trkpt lat="59.9755194" lon="17.7267424">
        <ele>31.8607</ele>
        <time>2014-06-27T09:10:41Z</time>
      </trkpt>
      <trkpt lat="59.9755066" lon="17.7267571">
        <ele>31.8607</ele>
        <time>2014-06-27T09:10:42Z</time>
      </trkpt>
      <trkpt lat="59.9754934" lon="17.7267744">
        <ele>31.8607</ele>
        <time>2014-06-27T09:10:43Z</time>
      </trkpt>
      <trkpt lat="59.9754807" lon="17.7267915">
        <ele>31.8607</ele>
        <time>2014-06-27T09:10:44Z</time>
      </trkpt>
      <trkpt lat="59.9754686" lon="17.7268077">
        <ele>31.3801</ele>
        <time>2014-06-27T09:10:45Z</time>
      </trkpt>
      <trkpt lat="59.975458" lon="17.7268221">
        <ele>31.3801</ele>
        <time>2014-06-27T09:10:46Z</time>
      </trkpt>
      <trkpt lat="59.9754452" lon="17.7268395">
        <ele>31.3801</ele>
        <time>2014-06-27T09:10:47Z</time>
      </trkpt>
      <trkpt lat="59.975432" lon="17.7268554">
        <ele>30.8995</ele>
        <time>2014-06-27T09:10:48Z</time>
      </trkpt>
      <trkpt lat="59.975417" lon="17.726867">
        <ele>30.8995</ele>
        <time>2014-06-27T09:10:49Z</time>
      </trkpt>
      <trkpt lat="59.9754034" lon="17.7268789">
        <ele>30.4188</ele>
        <time>2014-06-27T09:10:50Z</time>
      </trkpt>
      <trkpt lat="59.9753856" lon="17.7268963">
        <ele>30.4188</ele>
        <time>2014-06-27T09:10:51Z</time>
      </trkpt>
      <trkpt lat="59.9753675" lon="17.7269147">
        <ele>29.9381</ele>
        <time>2014-06-27T09:10:52Z</time>
      </trkpt>
      <trkpt lat="59.97535" lon="17.726933">
        <ele>29.9381</ele>
        <time>2014-06-27T09:10:53Z</time>
      </trkpt>
      <trkpt lat="59.9753344" lon="17.7269467">
        <ele>29.4575</ele>
        <time>2014-06-27T09:10:54Z</time>
      </trkpt>
      <trkpt lat="59.9753197" lon="17.7269568">
        <ele>29.4575</ele>
        <time>2014-06-27T09:10:55Z</time>
      </trkpt>
      <trkpt lat="59.9753052" lon="17.7269698">
        <ele>29.4575</ele>
        <time>2014-06-27T09:10:56Z</time>
      </trkpt>
      <trkpt lat="59.9752882" lon="17.7269866">
        <ele>29.4575</ele>
        <time>2014-06-27T09:10:57Z</time>
      </trkpt>
      <trkpt lat="59.9752742" lon="17.7269993">
        <ele>29.9381</ele>
        <time>2014-06-27T09:10:58Z</time>
      </trkpt>
      <trkpt lat="59.9752587" lon="17.7270154">
        <ele>29.9381</ele>
        <time>2014-06-27T09:10:59Z</time>
      </trkpt>
      <trkpt lat="59.9752433" lon="17.7270297">
        <ele>29.9381</ele>
        <time>2014-06-27T09:11:00Z</time>
      </trkpt>
      <trkpt lat="59.9752291" lon="17.7270391">
        <ele>29.9381</ele>
        <time>2014-06-27T09:11:01Z</time>
      </trkpt>
      <trkpt lat="59.9752161" lon="17.7270462">
        <ele>29.4575</ele>
        <time>2014-06-27T09:11:02Z</time>
      </trkpt>
      <trkpt lat="59.9752016" lon="17.7270568">
        <ele>29.4575</ele>
        <time>2014-06-27T09:11:03Z</time>
      </trkpt>
      <trkpt lat="59.9751831" lon="17.7270707">
        <ele>28.9769</ele>
        <time>2014-06-27T09:11:04Z</time>
      </trkpt>
      <trkpt lat="59.9751655" lon="17.7270843">
        <ele>28.0155</ele>
        <time>2014-06-27T09:11:05Z</time>
      </trkpt>
      <trkpt lat="59.9751487" lon="17.7270964">
        <ele>28.0155</ele>
        <time>2014-06-27T09:11:06Z</time>
      </trkpt>
      <trkpt lat="59.9751335" lon="17.7271132">
        <ele>27.0543</ele>
        <time>2014-06-27T09:11:07Z</time>
      </trkpt>
      <trkpt lat="59.9751212" lon="17.7271324">
        <ele>26.5736</ele>
        <time>2014-06-27T09:11:08Z</time>
      </trkpt>
      <trkpt lat="59.9751083" lon="17.7271493">
        <ele>26.0929</ele>
        <time>2014-06-27T09:11:09Z</time>
      </trkpt>
      <trkpt lat="59.9750924" lon="17.7271609">
        <ele>25.6123</ele>
        <time>2014-06-27T09:11:10Z</time>
      </trkpt>
      <trkpt lat="59.9750747" lon="17.7271719">
        <ele>25.6123</ele>
        <time>2014-06-27T09:11:11Z</time>
      </trkpt>
      <trkpt lat="59.9750537" lon="17.7271832">
        <ele>25.1317</ele>
        <time>2014-06-27T09:11:12Z</time>
      </trkpt>
      <trkpt lat="59.9750324" lon="17.727197">
        <ele>24.651</ele>
        <time>2014-06-27T09:11:13Z</time>
      </trkpt>
      <trkpt lat="59.9750161" lon="17.7272117">
        <ele>24.1703</ele>
        <time>2014-06-27T09:11:14Z</time>
      </trkpt>
      <trkpt lat="59.9749982" lon="17.7272261">
        <ele>22.7283</ele>
        <time>2014-06-27T09:11:15Z</time>
      </trkpt>
      <trkpt lat="59.9749774" lon="17.7272462">
        <ele>22.2476</ele>
        <time>2014-06-27T09:11:16Z</time>
      </trkpt>
      <trkpt lat="59.9749627" lon="17.7272651">
        <ele>22.2476</ele>
        <time>2014-06-27T09:11:17Z</time>
      </trkpt>
      <trkpt lat="59.97495" lon="17.7272794">
        <ele>21.767</ele>
        <time>2014-06-27T09:11:18Z</time>
      </trkpt>
      <trkpt lat="59.974937" lon="17.7272893">
        <ele>22.2476</ele>
        <time>2014-06-27T09:11:19Z</time>
      </trkpt>
      <trkpt lat="59.9749219" lon="17.727307">
        <ele>22.2476</ele>
        <time>2014-06-27T09:11:20Z</time>
      </trkpt>
      <trkpt lat="59.9749101" lon="17.7273244">
        <ele>22.7283</ele>
        <time>2014-06-27T09:11:21Z</time>
      </trkpt>
      <trkpt lat="59.9749018" lon="17.727338">
        <ele>22.7283</ele>
        <time>2014-06-27T09:11:22Z</time>
      </trkpt>
      <trkpt lat="59.9748868" lon="17.7273592">
        <ele>23.209</ele>
        <time>2014-06-27T09:11:23Z</time>
      </trkpt>
      <trkpt lat="59.9748739" lon="17.727376">
        <ele>22.7283</ele>
        <time>2014-06-27T09:11:24Z</time>
      </trkpt>
      <trkpt lat="59.9748536" lon="17.7274023">
        <ele>22.2476</ele>
        <time>2014-06-27T09:11:25Z</time>
      </trkpt>
      <trkpt lat="59.9748372" lon="17.7274147">
        <ele>22.2476</ele>
        <time>2014-06-27T09:11:26Z</time>
      </trkpt>
      <trkpt lat="59.9748244" lon="17.7274218">
        <ele>22.2476</ele>
        <time>2014-06-27T09:11:27Z</time>
      </trkpt>
      <trkpt lat="59.9748148" lon="17.7274276">
        <ele>21.767</ele>
        <time>2014-06-27T09:11:28Z</time>
      </trkpt>
      <trkpt lat="59.9748044" lon="17.7274301">
        <ele>22.2476</ele>
        <time>2014-06-27T09:11:29Z</time>
      </trkpt>
      <trkpt lat="59.9747903" lon="17.7274407">
        <ele>22.2476</ele>
        <time>2014-06-27T09:11:30Z</time>
      </trkpt>
      <trkpt lat="59.974777" lon="17.7274572">
        <ele>21.767</ele>
        <time>2014-06-27T09:11:31Z</time>
      </trkpt>
      <trkpt lat="59.9747615" lon="17.7274727">
        <ele>21.767</ele>
        <time>2014-06-27T09:11:32Z</time>
      </trkpt>
      <trkpt lat="59.9747476" lon="17.727486">
        <ele>22.2476</ele>
        <time>2014-06-27T09:11:33Z</time>
      </trkpt>
      <trkpt lat="59.9747332" lon="17.7275017">
        <ele>22.2476</ele>
        <time>2014-06-27T09:11:34Z</time>
      </trkpt>
      <trkpt lat="59.9747183" lon="17.7275199">
        <ele>22.2476</ele>
        <time>2014-06-27T09:11:35Z</time>
      </trkpt>
      <trkpt lat="59.9747035" lon="17.7275369">
        <ele>22.2476</ele>
        <time>2014-06-27T09:11:36Z</time>
      </trkpt>
      <trkpt lat="59.9746901" lon="17.7275521">
        <ele>22.7283</ele>
        <time>2014-06-27T09:11:37Z</time>
      </trkpt>
      <trkpt lat="59.9746754" lon="17.7275689">
        <ele>23.209</ele>
        <time>2014-06-27T09:11:38Z</time>
      </trkpt>
      <trkpt lat="59.9746589" lon="17.7275929">
        <ele>23.209</ele>
        <time>2014-06-27T09:11:39Z</time>
      </trkpt>
      <trkpt lat="59.9746464" lon="17.7276083">
        <ele>23.209</ele>
        <time>2014-06-27T09:11:40Z</time>
      </trkpt>
      <trkpt lat="59.974635" lon="17.7276198">
        <ele>23.6896</ele>
        <time>2014-06-27T09:11:41Z</time>
      </trkpt>
      <trkpt lat="59.9746217" lon="17.7276326">
        <ele>24.1703</ele>
        <time>2014-06-27T09:11:42Z</time>
      </trkpt>
      <trkpt lat="59.9746043" lon="17.7276486">
        <ele>24.1703</ele>
        <time>2014-06-27T09:11:43Z</time>
      </trkpt>
      <trkpt lat="59.9745872" lon="17.7276675">
        <ele>24.1703</ele>
        <time>2014-06-27T09:11:44Z</time>
      </trkpt>
      <trkpt lat="59.9745724" lon="17.7276885">
        <ele>24.1703</ele>
        <time>2014-06-27T09:11:45Z</time>
      </trkpt>
      <trkpt lat="59.9745595" lon="17.7277137">
        <ele>24.1703</ele>
        <time>2014-06-27T09:11:46Z</time>
      </trkpt>
      <trkpt lat="59.9745431" lon="17.7277535">
        <ele>23.6896</ele>
        <time>2014-06-27T09:11:47Z</time>
      </trkpt>
      <trkpt lat="59.9745328" lon="17.727782">
        <ele>24.1703</ele>
        <time>2014-06-27T09:11:48Z</time>
      </trkpt>
      <trkpt lat="59.9745232" lon="17.7278089">
        <ele>24.651</ele>
        <time>2014-06-27T09:11:49Z</time>
      </trkpt>
      <trkpt lat="59.9745144" lon="17.727839">
        <ele>24.651</ele>
        <time>2014-06-27T09:11:50Z</time>
      </trkpt>
      <trkpt lat="59.9745076" lon="17.7278735">
        <ele>24.651</ele>
        <time>2014-06-27T09:11:51Z</time>
      </trkpt>
      <trkpt lat="59.974504" lon="17.7279093">
        <ele>25.1317</ele>
        <time>2014-06-27T09:11:52Z</time>
      </trkpt>
      <trkpt lat="59.9745004" lon="17.7279434">
        <ele>25.6123</ele>
        <time>2014-06-27T09:11:53Z</time>
      </trkpt>
      <trkpt lat="59.9744963" lon="17.7279788">
        <ele>26.0929</ele>
        <time>2014-06-27T09:11:54Z</time>
      </trkpt>
      <trkpt lat="59.9744961" lon="17.7280266">
        <ele>26.0929</ele>
        <time>2014-06-27T09:11:55Z</time>
      </trkpt>
      <trkpt lat="59.9744983" lon="17.7280788">
        <ele>26.0929</ele>
        <time>2014-06-27T09:11:56Z</time>
      </trkpt>
      <trkpt lat="59.9744974" lon="17.7281289">
        <ele>25.6123</ele>
        <time>2014-06-27T09:11:57Z</time>
      </trkpt>
      <trkpt lat="59.9744921" lon="17.7281719">
        <ele>25.6123</ele>
        <time>2014-06-27T09:11:58Z</time>
      </trkpt>
      <trkpt lat="59.974486" lon="17.7282082">
        <ele>24.651</ele>
        <time>2014-06-27T09:11:59Z</time>
      </trkpt>
      <trkpt lat="59.9744806" lon="17.728244">
        <ele>24.1703</ele>
        <time>2014-06-27T09:12:00Z</time>
      </trkpt>
      <trkpt lat="59.9744764" lon="17.7282762">
        <ele>23.6896</ele>
        <time>2014-06-27T09:12:01Z</time>
      </trkpt>
      <trkpt lat="59.9744742" lon="17.7283093">
        <ele>23.209</ele>
        <time>2014-06-27T09:12:02Z</time>
      </trkpt>
      <trkpt lat="59.9744713" lon="17.7283455">
        <ele>22.7283</ele>
        <time>2014-06-27T09:12:03Z</time>
      </trkpt>
      <trkpt lat="59.9744699" lon="17.7283787">
        <ele>22.2476</ele>
        <time>2014-06-27T09:12:04Z</time>
      </trkpt>
      <trkpt lat="59.9744692" lon="17.7284132">
        <ele>21.767</ele>
        <time>2014-06-27T09:12:05Z</time>
      </trkpt>
      <trkpt lat="59.9744677" lon="17.7284481">
        <ele>21.2864</ele>
        <time>2014-06-27T09:12:06Z</time>
      </trkpt>
      <trkpt lat="59.9744656" lon="17.7284823">
        <ele>20.8057</ele>
        <time>2014-06-27T09:12:07Z</time>
      </trkpt>
      <trkpt lat="59.9744632" lon="17.728519">
        <ele>20.8057</ele>
        <time>2014-06-27T09:12:08Z</time>
      </trkpt>
      <trkpt lat="59.974462" lon="17.7285523">
        <ele>19.8444</ele>
        <time>2014-06-27T09:12:09Z</time>
      </trkpt>
      <trkpt lat="59.9744629" lon="17.7285855">
        <ele>19.8444</ele>
        <time>2014-06-27T09:12:10Z</time>
      </trkpt>
      <trkpt lat="59.9744608" lon="17.7286222">
        <ele>19.3638</ele>
        <time>2014-06-27T09:12:11Z</time>
      </trkpt>
      <trkpt lat="59.9744619" lon="17.7286608">
        <ele>18.4023</ele>
        <time>2014-06-27T09:12:12Z</time>
      </trkpt>
      <trkpt lat="59.9744644" lon="17.7286952">
        <ele>17.9218</ele>
        <time>2014-06-27T09:12:13Z</time>
      </trkpt>
      <trkpt lat="59.974464" lon="17.7287278">
        <ele>17.9218</ele>
        <time>2014-06-27T09:12:14Z</time>
      </trkpt>
      <trkpt lat="59.974461" lon="17.7287599">
        <ele>17.4412</ele>
        <time>2014-06-27T09:12:15Z</time>
      </trkpt>
      <trkpt lat="59.9744587" lon="17.7287921">
        <ele>16.9604</ele>
        <time>2014-06-27T09:12:16Z</time>
      </trkpt>
      <trkpt lat="59.974472" lon="17.7288133">
        <ele>16.9604</ele>
        <time>2014-06-27T09:12:17Z</time>
      </trkpt>
      <trkpt lat="59.9744826" lon="17.728837">
        <ele>16.9604</ele>
        <time>2014-06-27T09:12:18Z</time>
      </trkpt>
      <trkpt lat="59.9744848" lon="17.728868">
        <ele>16.4797</ele>
        <time>2014-06-27T09:12:19Z</time>
      </trkpt>
      <trkpt lat="59.974481" lon="17.7289085">
        <ele>15.0377</ele>
        <time>2014-06-27T09:12:20Z</time>
      </trkpt>
      <trkpt lat="59.9744758" lon="17.7289501">
        <ele>15.0377</ele>
        <time>2014-06-27T09:12:21Z</time>
      </trkpt>
      <trkpt lat="59.9744724" lon="17.7289852">
        <ele>14.557</ele>
        <time>2014-06-27T09:12:22Z</time>
      </trkpt>
      <trkpt lat="59.9744712" lon="17.7290185">
        <ele>14.557</ele>
        <time>2014-06-27T09:12:23Z</time>
      </trkpt>
      <trkpt lat="59.9744661" lon="17.7290494">
        <ele>14.557</ele>
        <time>2014-06-27T09:12:24Z</time>
      </trkpt>
      <trkpt lat="59.9744572" lon="17.7290827">
        <ele>13.5958</ele>
        <time>2014-06-27T09:12:25Z</time>
      </trkpt>
      <trkpt lat="59.9744501" lon="17.7291232">
        <ele>12.6344</ele>
        <time>2014-06-27T09:12:26Z</time>
      </trkpt>
      <trkpt lat="59.9744471" lon="17.7291594">
        <ele>12.1538</ele>
        <time>2014-06-27T09:12:27Z</time>
      </trkpt>
      <trkpt lat="59.9744427" lon="17.7291956">
        <ele>12.1538</ele>
        <time>2014-06-27T09:12:28Z</time>
      </trkpt>
      <trkpt lat="59.9744416" lon="17.7292293">
        <ele>12.1538</ele>
        <time>2014-06-27T09:12:29Z</time>
      </trkpt>
      <trkpt lat="59.9744398" lon="17.729271">
        <ele>11.1925</ele>
        <time>2014-06-27T09:12:30Z</time>
      </trkpt>
      <trkpt lat="59.9744377" lon="17.7293099">
        <ele>12.1538</ele>
        <time>2014-06-27T09:12:31Z</time>
      </trkpt>
      <trkpt lat="59.9744346" lon="17.7293433">
        <ele>11.6732</ele>
        <time>2014-06-27T09:12:32Z</time>
      </trkpt>
      <trkpt lat="59.9744315" lon="17.7293804">
        <ele>12.1538</ele>
        <time>2014-06-27T09:12:33Z</time>
      </trkpt>
      <trkpt lat="59.9744295" lon="17.7294153">
        <ele>11.6732</ele>
        <time>2014-06-27T09:12:34Z</time>
      </trkpt>
      <trkpt lat="59.9744294" lon="17.7294485">
        <ele>12.6344</ele>
        <time>2014-06-27T09:12:35Z</time>
      </trkpt>
      <trkpt lat="59.9744281" lon="17.7294825">
        <ele>12.6344</ele>
        <time>2014-06-27T09:12:36Z</time>
      </trkpt>
      <trkpt lat="59.9744292" lon="17.7295183">
        <ele>13.1151</ele>
        <time>2014-06-27T09:12:37Z</time>
      </trkpt>
      <trkpt lat="59.9744299" lon="17.7295528">
        <ele>13.1151</ele>
        <time>2014-06-27T09:12:38Z</time>
      </trkpt>
      <trkpt lat="59.9744304" lon="17.7295855">
        <ele>13.1151</ele>
        <time>2014-06-27T09:12:39Z</time>
      </trkpt>
      <trkpt lat="59.9744331" lon="17.7296209">
        <ele>13.1151</ele>
        <time>2014-06-27T09:12:40Z</time>
      </trkpt>
      <trkpt lat="59.9744346" lon="17.729656">
        <ele>13.5958</ele>
        <time>2014-06-27T09:12:41Z</time>
      </trkpt>
      <trkpt lat="59.974434" lon="17.7296908">
        <ele>13.5958</ele>
        <time>2014-06-27T09:12:42Z</time>
      </trkpt>
      <trkpt lat="59.9744325" lon="17.7297269">
        <ele>13.5958</ele>
        <time>2014-06-27T09:12:43Z</time>
      </trkpt>
      <trkpt lat="59.9744318" lon="17.7297618">
        <ele>13.5958</ele>
        <time>2014-06-27T09:12:44Z</time>
      </trkpt>
      <trkpt lat="59.9744319" lon="17.7297968">
        <ele>13.5958</ele>
        <time>2014-06-27T09:12:45Z</time>
      </trkpt>
      <trkpt lat="59.974432" lon="17.7298296">
        <ele>13.5958</ele>
        <time>2014-06-27T09:12:46Z</time>
      </trkpt>
      <trkpt lat="59.9744315" lon="17.7298608">
        <ele>13.5958</ele>
        <time>2014-06-27T09:12:47Z</time>
      </trkpt>
      <trkpt lat="59.9744299" lon="17.7298917">
        <ele>14.0764</ele>
        <time>2014-06-27T09:12:48Z</time>
      </trkpt>
      <trkpt lat="59.9744284" lon="17.7299225">
        <ele>14.0764</ele>
        <time>2014-06-27T09:12:49Z</time>
      </trkpt>
      <trkpt lat="59.9744266" lon="17.7299541">
        <ele>14.0764</ele>
        <time>2014-06-27T09:12:50Z</time>
      </trkpt>
      <trkpt lat="59.9744243" lon="17.7299866">
        <ele>13.5958</ele>
        <time>2014-06-27T09:12:51Z</time>
      </trkpt>
      <trkpt lat="59.9744226" lon="17.7300208">
        <ele>13.5958</ele>
        <time>2014-06-27T09:12:52Z</time>
      </trkpt>
      <trkpt lat="59.9744211" lon="17.7300564">
        <ele>13.5958</ele>
        <time>2014-06-27T09:12:53Z</time>
      </trkpt>
      <trkpt lat="59.9744195" lon="17.7300932">
        <ele>13.1151</ele>
        <time>2014-06-27T09:12:54Z</time>
      </trkpt>
      <trkpt lat="59.9744193" lon="17.7301297">
        <ele>14.0764</ele>
        <time>2014-06-27T09:12:55Z</time>
      </trkpt>
      <trkpt lat="59.9744164" lon="17.7301641">
        <ele>13.5958</ele>
        <time>2014-06-27T09:12:56Z</time>
      </trkpt>
      <trkpt lat="59.9744138" lon="17.7301995">
        <ele>14.0764</ele>
        <time>2014-06-27T09:12:57Z</time>
      </trkpt>
      <trkpt lat="59.9744105" lon="17.7302348">
        <ele>14.0764</ele>
        <time>2014-06-27T09:12:58Z</time>
      </trkpt>
      <trkpt lat="59.9744066" lon="17.7302699">
        <ele>14.0764</ele>
        <time>2014-06-27T09:12:59Z</time>
      </trkpt>
      <trkpt lat="59.9744039" lon="17.7303052">
        <ele>13.5958</ele>
        <time>2014-06-27T09:13:00Z</time>
      </trkpt>
      <trkpt lat="59.9743992" lon="17.730342">
        <ele>14.0764</ele>
        <time>2014-06-27T09:13:01Z</time>
      </trkpt>
      <trkpt lat="59.9743943" lon="17.7303802">
        <ele>13.5958</ele>
        <time>2014-06-27T09:13:02Z</time>
      </trkpt>
      <trkpt lat="59.974391" lon="17.7304164">
        <ele>13.5958</ele>
        <time>2014-06-27T09:13:03Z</time>
      </trkpt>
      <trkpt lat="59.9743881" lon="17.7304529">
        <ele>13.1151</ele>
        <time>2014-06-27T09:13:04Z</time>
      </trkpt>
      <trkpt lat="59.9743843" lon="17.7304905">
        <ele>12.6344</ele>
        <time>2014-06-27T09:13:05Z</time>
      </trkpt>
      <trkpt lat="59.9743807" lon="17.7305305">
        <ele>12.1538</ele>
        <time>2014-06-27T09:13:06Z</time>
      </trkpt>
      <trkpt lat="59.9743771" lon="17.7305673">
        <ele>12.1538</ele>
        <time>2014-06-27T09:13:07Z</time>
      </trkpt>
      <trkpt lat="59.9743756" lon="17.7305975">
        <ele>12.1538</ele>
        <time>2014-06-27T09:13:08Z</time>
      </trkpt>
      <trkpt lat="59.9743745" lon="17.7306301">
        <ele>12.1538</ele>
        <time>2014-06-27T09:13:09Z</time>
      </trkpt>
      <trkpt lat="59.9743724" lon="17.7306642">
        <ele>12.6344</ele>
        <time>2014-06-27T09:13:10Z</time>
      </trkpt>
      <trkpt lat="59.9743679" lon="17.730699">
        <ele>12.1538</ele>
        <time>2014-06-27T09:13:11Z</time>
      </trkpt>
      <trkpt lat="59.974364" lon="17.7307342">
        <ele>12.1538</ele>
        <time>2014-06-27T09:13:12Z</time>
      </trkpt>
      <trkpt lat="59.9743605" lon="17.7307693">
        <ele>11.6732</ele>
        <time>2014-06-27T09:13:13Z</time>
      </trkpt>
      <trkpt lat="59.9743584" lon="17.7308056">
        <ele>11.1925</ele>
        <time>2014-06-27T09:13:14Z</time>
      </trkpt>
      <trkpt lat="59.9743629" lon="17.7308463">
        <ele>10.2312</ele>
        <time>2014-06-27T09:13:15Z</time>
      </trkpt>
      <trkpt lat="59.9743604" lon="17.7308833">
        <ele>9.75061</ele>
        <time>2014-06-27T09:13:16Z</time>
      </trkpt>
      <trkpt lat="59.9743558" lon="17.7309165">
        <ele>9.75061</ele>
        <time>2014-06-27T09:13:17Z</time>
      </trkpt>
      <trkpt lat="59.9743547" lon="17.7309484">
        <ele>9.75061</ele>
        <time>2014-06-27T09:13:18Z</time>
      </trkpt>
      <trkpt lat="59.9743543" lon="17.7309796">
        <ele>9.75061</ele>
        <time>2014-06-27T09:13:19Z</time>
      </trkpt>
      <trkpt lat="59.9743518" lon="17.7310127">
        <ele>9.2699</ele>
        <time>2014-06-27T09:13:20Z</time>
      </trkpt>
      <trkpt lat="59.9743492" lon="17.7310509">
        <ele>9.2699</ele>
        <time>2014-06-27T09:13:21Z</time>
      </trkpt>
      <trkpt lat="59.9743507" lon="17.7310887">
        <ele>8.30859</ele>
        <time>2014-06-27T09:13:22Z</time>
      </trkpt>
      <trkpt lat="59.9743527" lon="17.7311217">
        <ele>8.30859</ele>
        <time>2014-06-27T09:13:23Z</time>
      </trkpt>
      <trkpt lat="59.9743528" lon="17.731155">
        <ele>8.78918</ele>
        <time>2014-06-27T09:13:24Z</time>
      </trkpt>
      <trkpt lat="59.9743512" lon="17.73119">
        <ele>8.78918</ele>
        <time>2014-06-27T09:13:25Z</time>
      </trkpt>
      <trkpt lat="59.9743486" lon="17.7312257">
        <ele>9.2699</ele>
        <time>2014-06-27T09:13:26Z</time>
      </trkpt>
      <trkpt lat="59.9743465" lon="17.7312614">
        <ele>9.2699</ele>
        <time>2014-06-27T09:13:27Z</time>
      </trkpt>
      <trkpt lat="59.9743474" lon="17.7312946">
        <ele>9.2699</ele>
        <time>2014-06-27T09:13:28Z</time>
      </trkpt>
      <trkpt lat="59.9743475" lon="17.7313263">
        <ele>9.75061</ele>
        <time>2014-06-27T09:13:29Z</time>
      </trkpt>
      <trkpt lat="59.9743459" lon="17.7313588">
        <ele>9.75061</ele>
        <time>2014-06-27T09:13:30Z</time>
      </trkpt>
      <trkpt lat="59.9743435" lon="17.7313938">
        <ele>9.2699</ele>
        <time>2014-06-27T09:13:31Z</time>
      </trkpt>
      <trkpt lat="59.9743427" lon="17.7314276">
        <ele>9.75061</ele>
        <time>2014-06-27T09:13:32Z</time>
      </trkpt>
      <trkpt lat="59.9743413" lon="17.7314589">
        <ele>9.2699</ele>
        <time>2014-06-27T09:13:33Z</time>
      </trkpt>
      <trkpt lat="59.9743412" lon="17.7314925">
        <ele>8.78918</ele>
        <time>2014-06-27T09:13:34Z</time>
      </trkpt>
      <trkpt lat="59.9743388" lon="17.7315236">
        <ele>8.78918</ele>
        <time>2014-06-27T09:13:35Z</time>
      </trkpt>
      <trkpt lat="59.9743361" lon="17.7315555">
        <ele>8.78918</ele>
        <time>2014-06-27T09:13:36Z</time>
      </trkpt>
      <trkpt lat="59.9743366" lon="17.7315903">
        <ele>8.78918</ele>
        <time>2014-06-27T09:13:37Z</time>
      </trkpt>
      <trkpt lat="59.9743341" lon="17.7316246">
        <ele>8.30859</ele>
        <time>2014-06-27T09:13:38Z</time>
      </trkpt>
      <trkpt lat="59.9743325" lon="17.7316586">
        <ele>7.82788</ele>
        <time>2014-06-27T09:13:39Z</time>
      </trkpt>
      <trkpt lat="59.9743356" lon="17.731691">
        <ele>7.82788</ele>
        <time>2014-06-27T09:13:40Z</time>
      </trkpt>
      <trkpt lat="59.9743375" lon="17.7317212">
        <ele>7.34717</ele>
        <time>2014-06-27T09:13:41Z</time>
      </trkpt>
      <trkpt lat="59.9743393" lon="17.7317537">
        <ele>7.34717</ele>
        <time>2014-06-27T09:13:42Z</time>
      </trkpt>
      <trkpt lat="59.9743388" lon="17.731785">
        <ele>7.34717</ele>
        <time>2014-06-27T09:13:43Z</time>
      </trkpt>
      <trkpt lat="59.9743401" lon="17.7318151">
        <ele>6.86646</ele>
        <time>2014-06-27T09:13:44Z</time>
      </trkpt>
      <trkpt lat="59.9743413" lon="17.7318427">
        <ele>6.86646</ele>
        <time>2014-06-27T09:13:45Z</time>
      </trkpt>
      <trkpt lat="59.9743377" lon="17.7318705">
        <ele>6.86646</ele>
        <time>2014-06-27T09:13:46Z</time>
      </trkpt>
      <trkpt lat="59.9743357" lon="17.7318991">
        <ele>6.86646</ele>
        <time>2014-06-27T09:13:47Z</time>
      </trkpt>
      <trkpt lat="59.9743336" lon="17.7319331">
        <ele>6.38586</ele>
        <time>2014-06-27T09:13:48Z</time>
      </trkpt>
      <trkpt lat="59.9743373" lon="17.7319702">
        <ele>6.38586</ele>
        <time>2014-06-27T09:13:49Z</time>
      </trkpt>
      <trkpt lat="59.9743383" lon="17.7320032">
        <ele>6.38586</ele>
        <time>2014-06-27T09:13:50Z</time>
      </trkpt>
      <trkpt lat="59.9743385" lon="17.7320362">
        <ele>6.38586</ele>
        <time>2014-06-27T09:13:51Z</time>
      </trkpt>
      <trkpt lat="59.9743372" lon="17.7320711">
        <ele>6.38586</ele>
        <time>2014-06-27T09:13:52Z</time>
      </trkpt>
      <trkpt lat="59.974336" lon="17.7321067">
        <ele>6.38586</ele>
        <time>2014-06-27T09:13:53Z</time>
      </trkpt>
      <trkpt lat="59.9743372" lon="17.7321426">
        <ele>5.90527</ele>
        <time>2014-06-27T09:13:54Z</time>
      </trkpt>
      <trkpt lat="59.9743387" lon="17.7321791">
        <ele>5.90527</ele>
        <time>2014-06-27T09:13:55Z</time>
      </trkpt>
      <trkpt lat="59.9743392" lon="17.7322159">
        <ele>5.42456</ele>
        <time>2014-06-27T09:13:56Z</time>
      </trkpt>
      <trkpt lat="59.974338" lon="17.7322498">
        <ele>5.90527</ele>
        <time>2014-06-27T09:13:57Z</time>
      </trkpt>
      <trkpt lat="59.974337" lon="17.73228">
        <ele>5.90527</ele>
        <time>2014-06-27T09:13:58Z</time>
      </trkpt>
      <trkpt lat="59.9743372" lon="17.7323092">
        <ele>6.38586</ele>
        <time>2014-06-27T09:13:59Z</time>
      </trkpt>
      <trkpt lat="59.9743399" lon="17.7323384">
        <ele>6.86646</ele>
        <time>2014-06-27T09:14:00Z</time>
      </trkpt>
      <trkpt lat="59.9743455" lon="17.7323675">
        <ele>7.82788</ele>
        <time>2014-06-27T09:14:01Z</time>
      </trkpt>
      <trkpt lat="59.9743456" lon="17.732397">
        <ele>7.82788</ele>
        <time>2014-06-27T09:14:02Z</time>
      </trkpt>
      <trkpt lat="59.9743439" lon="17.7324296">
        <ele>7.82788</ele>
        <time>2014-06-27T09:14:03Z</time>
      </trkpt>
      <trkpt lat="59.9743396" lon="17.7324612">
        <ele>7.82788</ele>
        <time>2014-06-27T09:14:04Z</time>
      </trkpt>
      <trkpt lat="59.9743349" lon="17.7324938">
        <ele>7.82788</ele>
        <time>2014-06-27T09:14:05Z</time>
      </trkpt>
      <trkpt lat="59.9743304" lon="17.7325263">
        <ele>7.82788</ele>
        <time>2014-06-27T09:14:06Z</time>
      </trkpt>
      <trkpt lat="59.9743251" lon="17.7325592">
        <ele>7.34717</ele>
        <time>2014-06-27T09:14:07Z</time>
      </trkpt>
      <trkpt lat="59.974321" lon="17.7325908">
        <ele>7.34717</ele>
        <time>2014-06-27T09:14:08Z</time>
      </trkpt>
      <trkpt lat="59.974317" lon="17.7326228">
        <ele>6.86646</ele>
        <time>2014-06-27T09:14:09Z</time>
      </trkpt>
      <trkpt lat="59.974314" lon="17.7326553">
        <ele>6.38586</ele>
        <time>2014-06-27T09:14:10Z</time>
      </trkpt>
      <trkpt lat="59.9743128" lon="17.7326874">
        <ele>6.38586</ele>
        <time>2014-06-27T09:14:11Z</time>
      </trkpt>
      <trkpt lat="59.9743102" lon="17.7327179">
        <ele>6.38586</ele>
        <time>2014-06-27T09:14:12Z</time>
      </trkpt>
      <trkpt lat="59.974309" lon="17.7327462">
        <ele>6.86646</ele>
        <time>2014-06-27T09:14:13Z</time>
      </trkpt>
      <trkpt lat="59.9743075" lon="17.7327752">
        <ele>6.86646</ele>
        <time>2014-06-27T09:14:14Z</time>
      </trkpt>
      <trkpt lat="59.9743045" lon="17.7328054">
        <ele>6.86646</ele>
        <time>2014-06-27T09:14:15Z</time>
      </trkpt>
      <trkpt lat="59.9743036" lon="17.7328384">
        <ele>6.38586</ele>
        <time>2014-06-27T09:14:16Z</time>
      </trkpt>
      <trkpt lat="59.9743023" lon="17.7328724">
        <ele>6.86646</ele>
        <time>2014-06-27T09:14:17Z</time>
      </trkpt>
      <trkpt lat="59.9742994" lon="17.7329055">
        <ele>6.38586</ele>
        <time>2014-06-27T09:14:18Z</time>
      </trkpt>
      <trkpt lat="59.9742971" lon="17.7329377">
        <ele>6.38586</ele>
        <time>2014-06-27T09:14:19Z</time>
      </trkpt>
      <trkpt lat="59.9742931" lon="17.7329715">
        <ele>6.38586</ele>
        <time>2014-06-27T09:14:20Z</time>
      </trkpt>
      <trkpt lat="59.97429" lon="17.7330071">
        <ele>6.86646</ele>
        <time>2014-06-27T09:14:21Z</time>
      </trkpt>
      <trkpt lat="59.9742862" lon="17.7330372">
        <ele>6.86646</ele>
        <time>2014-06-27T09:14:22Z</time>
      </trkpt>
      <trkpt lat="59.9742838" lon="17.7330699">
        <ele>6.38586</ele>
        <time>2014-06-27T09:14:23Z</time>
      </trkpt>
      <trkpt lat="59.9742852" lon="17.7331019">
        <ele>7.34717</ele>
        <time>2014-06-27T09:14:24Z</time>
      </trkpt>
      <trkpt lat="59.9742837" lon="17.7331324">
        <ele>6.86646</ele>
        <time>2014-06-27T09:14:25Z</time>
      </trkpt>
      <trkpt lat="59.9742818" lon="17.7331637">
        <ele>6.86646</ele>
        <time>2014-06-27T09:14:26Z</time>
      </trkpt>
      <trkpt lat="59.9742796" lon="17.7331945">
        <ele>6.86646</ele>
        <time>2014-06-27T09:14:27Z</time>
      </trkpt>
      <trkpt lat="59.9742779" lon="17.7332273">
        <ele>7.34717</ele>
        <time>2014-06-27T09:14:28Z</time>
      </trkpt>
      <trkpt lat="59.9742759" lon="17.7332584">
        <ele>7.34717</ele>
        <time>2014-06-27T09:14:29Z</time>
      </trkpt>
      <trkpt lat="59.9742754" lon="17.73329">
        <ele>7.82788</ele>
        <time>2014-06-27T09:14:30Z</time>
      </trkpt>
      <trkpt lat="59.9742754" lon="17.7333222">
        <ele>7.82788</ele>
        <time>2014-06-27T09:14:31Z</time>
      </trkpt>
      <trkpt lat="59.9742736" lon="17.7333537">
        <ele>8.78918</ele>
        <time>2014-06-27T09:14:32Z</time>
      </trkpt>
      <trkpt lat="59.9742699" lon="17.7333862">
        <ele>9.2699</ele>
        <time>2014-06-27T09:14:33Z</time>
      </trkpt>
      <trkpt lat="59.9742641" lon="17.7334226">
        <ele>8.78918</ele>
        <time>2014-06-27T09:14:34Z</time>
      </trkpt>
      <trkpt lat="59.9742579" lon="17.7334621">
        <ele>7.82788</ele>
        <time>2014-06-27T09:14:35Z</time>
      </trkpt>
      <trkpt lat="59.9742528" lon="17.7334968">
        <ele>7.34717</ele>
        <time>2014-06-27T09:14:36Z</time>
      </trkpt>
      <trkpt lat="59.9742501" lon="17.7335314">
        <ele>7.34717</ele>
        <time>2014-06-27T09:14:37Z</time>
      </trkpt>
      <trkpt lat="59.9742484" lon="17.733566">
        <ele>7.34717</ele>
        <time>2014-06-27T09:14:38Z</time>
      </trkpt>
      <trkpt lat="59.9742579" lon="17.7336089">
        <ele>8.78918</ele>
        <time>2014-06-27T09:14:39Z</time>
      </trkpt>
      <trkpt lat="59.974266" lon="17.7336517">
        <ele>9.75061</ele>
        <time>2014-06-27T09:14:40Z</time>
      </trkpt>
      <trkpt lat="59.9742704" lon="17.7336892">
        <ele>10.2312</ele>
        <time>2014-06-27T09:14:41Z</time>
      </trkpt>
      <trkpt lat="59.9742741" lon="17.7337256">
        <ele>11.1925</ele>
        <time>2014-06-27T09:14:42Z</time>
      </trkpt>
      <trkpt lat="59.9742777" lon="17.7337625">
        <ele>11.6732</ele>
        <time>2014-06-27T09:14:43Z</time>
      </trkpt>
      <trkpt lat="59.9742808" lon="17.7337988">
        <ele>12.6344</ele>
        <time>2014-06-27T09:14:44Z</time>
      </trkpt>
      <trkpt lat="59.9742839" lon="17.7338375">
        <ele>13.5958</ele>
        <time>2014-06-27T09:14:45Z</time>
      </trkpt>
      <trkpt lat="59.9742847" lon="17.7338768">
        <ele>14.0764</ele>
        <time>2014-06-27T09:14:46Z</time>
      </trkpt>
      <trkpt lat="59.9742842" lon="17.7339156">
        <ele>15.0377</ele>
        <time>2014-06-27T09:14:47Z</time>
      </trkpt>
      <trkpt lat="59.9742833" lon="17.7339525">
        <ele>15.5184</ele>
        <time>2014-06-27T09:14:48Z</time>
      </trkpt>
      <trkpt lat="59.9742841" lon="17.7339886">
        <ele>15.999</ele>
        <time>2014-06-27T09:14:49Z</time>
      </trkpt>
      <trkpt lat="59.9742854" lon="17.7340228">
        <ele>16.4797</ele>
        <time>2014-06-27T09:14:50Z</time>
      </trkpt>
      <trkpt lat="59.9742868" lon="17.7340561">
        <ele>16.4797</ele>
        <time>2014-06-27T09:14:51Z</time>
      </trkpt>
      <trkpt lat="59.9742886" lon="17.7340901">
        <ele>16.9604</ele>
        <time>2014-06-27T09:14:52Z</time>
      </trkpt>
      <trkpt lat="59.9742895" lon="17.7341245">
        <ele>16.9604</ele>
        <time>2014-06-27T09:14:53Z</time>
      </trkpt>
      <trkpt lat="59.9742901" lon="17.7341586">
        <ele>17.4412</ele>
        <time>2014-06-27T09:14:54Z</time>
      </trkpt>
      <trkpt lat="59.9742907" lon="17.7341918">
        <ele>17.4412</ele>
        <time>2014-06-27T09:14:55Z</time>
      </trkpt>
      <trkpt lat="59.9742907" lon="17.7342265">
        <ele>17.9218</ele>
        <time>2014-06-27T09:14:56Z</time>
      </trkpt>
      <trkpt lat="59.9742912" lon="17.7342608">
        <ele>18.4023</ele>
        <time>2014-06-27T09:14:57Z</time>
      </trkpt>
      <trkpt lat="59.9742902" lon="17.7342968">
        <ele>18.4023</ele>
        <time>2014-06-27T09:14:58Z</time>
      </trkpt>
      <trkpt lat="59.9742905" lon="17.7343338">
        <ele>18.4023</ele>
        <time>2014-06-27T09:14:59Z</time>
      </trkpt>
      <trkpt lat="59.974289" lon="17.7343712">
        <ele>18.4023</ele>
        <time>2014-06-27T09:15:00Z</time>
      </trkpt>
      <trkpt lat="59.9742885" lon="17.7344084">
        <ele>18.4023</ele>
        <time>2014-06-27T09:15:01Z</time>
      </trkpt>
      <trkpt lat="59.9742862" lon="17.734445">
        <ele>18.4023</ele>
        <time>2014-06-27T09:15:02Z</time>
      </trkpt>
      <trkpt lat="59.9742843" lon="17.7344835">
        <ele>17.9218</ele>
        <time>2014-06-27T09:15:03Z</time>
      </trkpt>
      <trkpt lat="59.9742824" lon="17.7345284">
        <ele>17.4412</ele>
        <time>2014-06-27T09:15:04Z</time>
      </trkpt>
      <trkpt lat="59.9742821" lon="17.7345703">
        <ele>16.9604</ele>
        <time>2014-06-27T09:15:05Z</time>
      </trkpt>
      <trkpt lat="59.9742829" lon="17.7346047">
        <ele>16.9604</ele>
        <time>2014-06-27T09:15:06Z</time>
      </trkpt>
      <trkpt lat="59.9742841" lon="17.7346377">
        <ele>16.9604</ele>
        <time>2014-06-27T09:15:07Z</time>
      </trkpt>
      <trkpt lat="59.974286" lon="17.7346695">
        <ele>16.9604</ele>
        <time>2014-06-27T09:15:08Z</time>
      </trkpt>
      <trkpt lat="59.974287" lon="17.7347008">
        <ele>16.9604</ele>
        <time>2014-06-27T09:15:09Z</time>
      </trkpt>
      <trkpt lat="59.9742875" lon="17.7347324">
        <ele>16.9604</ele>
        <time>2014-06-27T09:15:10Z</time>
      </trkpt>
      <trkpt lat="59.9742888" lon="17.7347668">
        <ele>16.9604</ele>
        <time>2014-06-27T09:15:11Z</time>
      </trkpt>
      <trkpt lat="59.9742889" lon="17.7348047">
        <ele>15.999</ele>
        <time>2014-06-27T09:15:12Z</time>
      </trkpt>
      <trkpt lat="59.9742893" lon="17.734842">
        <ele>15.999</ele>
        <time>2014-06-27T09:15:13Z</time>
      </trkpt>
      <trkpt lat="59.9742878" lon="17.7348755">
        <ele>15.5184</ele>
        <time>2014-06-27T09:15:14Z</time>
      </trkpt>
      <trkpt lat="59.9742857" lon="17.734907">
        <ele>15.999</ele>
        <time>2014-06-27T09:15:15Z</time>
      </trkpt>
      <trkpt lat="59.9742869" lon="17.7349393">
        <ele>16.4797</ele>
        <time>2014-06-27T09:15:16Z</time>
      </trkpt>
      <trkpt lat="59.9742911" lon="17.7349754">
        <ele>17.4412</ele>
        <time>2014-06-27T09:15:17Z</time>
      </trkpt>
      <trkpt lat="59.9742947" lon="17.7350111">
        <ele>17.9218</ele>
        <time>2014-06-27T09:15:18Z</time>
      </trkpt>
      <trkpt lat="59.9742994" lon="17.7350429">
        <ele>18.4023</ele>
        <time>2014-06-27T09:15:19Z</time>
      </trkpt>
      <trkpt lat="59.9743044" lon="17.7350746">
        <ele>18.4023</ele>
        <time>2014-06-27T09:15:20Z</time>
      </trkpt>
      <trkpt lat="59.9743085" lon="17.7351051">
        <ele>17.9218</ele>
        <time>2014-06-27T09:15:21Z</time>
      </trkpt>
      <trkpt lat="59.9743126" lon="17.735133">
        <ele>18.8831</ele>
        <time>2014-06-27T09:15:22Z</time>
      </trkpt>
      <trkpt lat="59.9743153" lon="17.7351627">
        <ele>18.8831</ele>
        <time>2014-06-27T09:15:23Z</time>
      </trkpt>
      <trkpt lat="59.9743186" lon="17.7351915">
        <ele>18.8831</ele>
        <time>2014-06-27T09:15:24Z</time>
      </trkpt>
      <trkpt lat="59.9743222" lon="17.7352206">
        <ele>19.3638</ele>
        <time>2014-06-27T09:15:25Z</time>
      </trkpt>
      <trkpt lat="59.9743256" lon="17.7352589">
        <ele>19.3638</ele>
        <time>2014-06-27T09:15:26Z</time>
      </trkpt>
      <trkpt lat="59.9743297" lon="17.7352957">
        <ele>19.8444</ele>
        <time>2014-06-27T09:15:27Z</time>
      </trkpt>
      <trkpt lat="59.9743325" lon="17.7353314">
        <ele>20.325</ele>
        <time>2014-06-27T09:15:28Z</time>
      </trkpt>
      <trkpt lat="59.9743361" lon="17.7353699">
        <ele>20.8057</ele>
        <time>2014-06-27T09:15:29Z</time>
      </trkpt>
      <trkpt lat="59.9743403" lon="17.7354041">
        <ele>20.8057</ele>
        <time>2014-06-27T09:15:30Z</time>
      </trkpt>
      <trkpt lat="59.9743437" lon="17.7354382">
        <ele>21.2864</ele>
        <time>2014-06-27T09:15:31Z</time>
      </trkpt>
      <trkpt lat="59.974347" lon="17.7354847">
        <ele>19.8444</ele>
        <time>2014-06-27T09:15:32Z</time>
      </trkpt>
      <trkpt lat="59.9743538" lon="17.7355227">
        <ele>19.3638</ele>
        <time>2014-06-27T09:15:33Z</time>
      </trkpt>
      <trkpt lat="59.9743589" lon="17.7355552">
        <ele>20.325</ele>
        <time>2014-06-27T09:15:34Z</time>
      </trkpt>
      <trkpt lat="59.9743636" lon="17.7355875">
        <ele>19.3638</ele>
        <time>2014-06-27T09:15:35Z</time>
      </trkpt>
      <trkpt lat="59.9743665" lon="17.7356235">
        <ele>18.4023</ele>
        <time>2014-06-27T09:15:36Z</time>
      </trkpt>
      <trkpt lat="59.9743696" lon="17.7356588">
        <ele>18.4023</ele>
        <time>2014-06-27T09:15:37Z</time>
      </trkpt>
      <trkpt lat="59.9743694" lon="17.7356858">
        <ele>16.9604</ele>
        <time>2014-06-27T09:15:38Z</time>
      </trkpt>
      <trkpt lat="59.9743766" lon="17.7357153">
        <ele>17.9218</ele>
        <time>2014-06-27T09:15:39Z</time>
      </trkpt>
      <trkpt lat="59.974375" lon="17.7357396">
        <ele>17.9218</ele>
        <time>2014-06-27T09:15:40Z</time>
      </trkpt>
      <trkpt lat="59.9743734" lon="17.7357671">
        <ele>17.9218</ele>
        <time>2014-06-27T09:15:41Z</time>
      </trkpt>
      <trkpt lat="59.9743765" lon="17.7357977">
        <ele>17.4412</ele>
        <time>2014-06-27T09:15:42Z</time>
      </trkpt>
      <trkpt lat="59.9743807" lon="17.7358254">
        <ele>17.9218</ele>
        <time>2014-06-27T09:15:43Z</time>
      </trkpt>
      <trkpt lat="59.9743878" lon="17.7358536">
        <ele>18.4023</ele>
        <time>2014-06-27T09:15:44Z</time>
      </trkpt>
      <trkpt lat="59.974395" lon="17.7358816">
        <ele>18.8831</ele>
        <time>2014-06-27T09:15:45Z</time>
      </trkpt>
      <trkpt lat="59.9744043" lon="17.7359111">
        <ele>19.3638</ele>
        <time>2014-06-27T09:15:46Z</time>
      </trkpt>
      <trkpt lat="59.9744122" lon="17.7359422">
        <ele>19.8444</ele>
        <time>2014-06-27T09:15:47Z</time>
      </trkpt>
      <trkpt lat="59.9744206" lon="17.7359742">
        <ele>20.325</ele>
        <time>2014-06-27T09:15:48Z</time>
      </trkpt>
      <trkpt lat="59.9744279" lon="17.7360067">
        <ele>20.325</ele>
        <time>2014-06-27T09:15:49Z</time>
      </trkpt>
      <trkpt lat="59.9744361" lon="17.736041">
        <ele>21.2864</ele>
        <time>2014-06-27T09:15:50Z</time>
      </trkpt>
      <trkpt lat="59.9744455" lon="17.7360748">
        <ele>21.767</ele>
        <time>2014-06-27T09:15:51Z</time>
      </trkpt>
      <trkpt lat="59.9744549" lon="17.7361059">
        <ele>22.2476</ele>
        <time>2014-06-27T09:15:52Z</time>
      </trkpt>
      <trkpt lat="59.9744626" lon="17.7361349">
        <ele>22.2476</ele>
        <time>2014-06-27T09:15:53Z</time>
      </trkpt>
      <trkpt lat="59.9744738" lon="17.7361627">
        <ele>23.209</ele>
        <time>2014-06-27T09:15:54Z</time>
      </trkpt>
      <trkpt lat="59.9744811" lon="17.7361913">
        <ele>23.209</ele>
        <time>2014-06-27T09:15:55Z</time>
      </trkpt>
      <trkpt lat="59.9744905" lon="17.7362227">
        <ele>23.6896</ele>
        <time>2014-06-27T09:15:56Z</time>
      </trkpt>
      <trkpt lat="59.9745019" lon="17.7362515">
        <ele>24.651</ele>
        <time>2014-06-27T09:15:57Z</time>
      </trkpt>
      <trkpt lat="59.9745096" lon="17.7362824">
        <ele>25.1317</ele>
        <time>2014-06-27T09:15:58Z</time>
      </trkpt>
      <trkpt lat="59.9745196" lon="17.7363146">
        <ele>25.6123</ele>
        <time>2014-06-27T09:15:59Z</time>
      </trkpt>
      <trkpt lat="59.9745335" lon="17.7363461">
        <ele>25.6123</ele>
        <time>2014-06-27T09:16:00Z</time>
      </trkpt>
      <trkpt lat="59.9745449" lon="17.7363776">
        <ele>25.1317</ele>
        <time>2014-06-27T09:16:01Z</time>
      </trkpt>
      <trkpt lat="59.9745545" lon="17.7364089">
        <ele>25.6123</ele>
        <time>2014-06-27T09:16:02Z</time>
      </trkpt>
      <trkpt lat="59.9745623" lon="17.7364375">
        <ele>25.1317</ele>
        <time>2014-06-27T09:16:03Z</time>
      </trkpt>
      <trkpt lat="59.9745702" lon="17.7364663">
        <ele>24.651</ele>
        <time>2014-06-27T09:16:04Z</time>
      </trkpt>
      <trkpt lat="59.9745799" lon="17.7364945">
        <ele>24.651</ele>
        <time>2014-06-27T09:16:05Z</time>
      </trkpt>
      <trkpt lat="59.9745909" lon="17.7365222">
        <ele>24.1703</ele>
        <time>2014-06-27T09:16:06Z</time>
      </trkpt>
      <trkpt lat="59.9745998" lon="17.736554">
        <ele>23.6896</ele>
        <time>2014-06-27T09:16:07Z</time>
      </trkpt>
      <trkpt lat="59.9746126" lon="17.7365871">
        <ele>23.6896</ele>
        <time>2014-06-27T09:16:08Z</time>
      </trkpt>
      <trkpt lat="59.9746221" lon="17.7366166">
        <ele>22.7283</ele>
        <time>2014-06-27T09:16:09Z</time>
      </trkpt>
      <trkpt lat="59.9746304" lon="17.7366478">
        <ele>23.209</ele>
        <time>2014-06-27T09:16:10Z</time>
      </trkpt>
      <trkpt lat="59.9746393" lon="17.7366757">
        <ele>23.209</ele>
        <time>2014-06-27T09:16:11Z</time>
      </trkpt>
      <trkpt lat="59.974649" lon="17.7367043">
        <ele>23.209</ele>
        <time>2014-06-27T09:16:12Z</time>
      </trkpt>
      <trkpt lat="59.9746588" lon="17.7367316">
        <ele>23.209</ele>
        <time>2014-06-27T09:16:13Z</time>
      </trkpt>
      <trkpt lat="59.974667" lon="17.7367579">
        <ele>23.6896</ele>
        <time>2014-06-27T09:16:14Z</time>
      </trkpt>
      <trkpt lat="59.9746753" lon="17.7367817">
        <ele>23.6896</ele>
        <time>2014-06-27T09:16:15Z</time>
      </trkpt>
      <trkpt lat="59.9746854" lon="17.7368052">
        <ele>24.1703</ele>
        <time>2014-06-27T09:16:16Z</time>
      </trkpt>
      <trkpt lat="59.9746971" lon="17.7368301">
        <ele>24.1703</ele>
        <time>2014-06-27T09:16:17Z</time>
      </trkpt>
      <trkpt lat="59.9747116" lon="17.7368628">
        <ele>24.1703</ele>
        <time>2014-06-27T09:16:18Z</time>
      </trkpt>
      <trkpt lat="59.974723" lon="17.7368951">
        <ele>24.651</ele>
        <time>2014-06-27T09:16:19Z</time>
      </trkpt>
      <trkpt lat="59.9747376" lon="17.7369248">
        <ele>24.651</ele>
        <time>2014-06-27T09:16:20Z</time>
      </trkpt>
      <trkpt lat="59.9747511" lon="17.7369527">
        <ele>24.651</ele>
        <time>2014-06-27T09:16:21Z</time>
      </trkpt>
      <trkpt lat="59.9747648" lon="17.7369806">
        <ele>25.6123</ele>
        <time>2014-06-27T09:16:22Z</time>
      </trkpt>
      <trkpt lat="59.974776" lon="17.7370045">
        <ele>25.1317</ele>
        <time>2014-06-27T09:16:23Z</time>
      </trkpt>
      <trkpt lat="59.974788" lon="17.73703">
        <ele>25.6123</ele>
        <time>2014-06-27T09:16:24Z</time>
      </trkpt>
      <trkpt lat="59.9748021" lon="17.7370553">
        <ele>25.6123</ele>
        <time>2014-06-27T09:16:25Z</time>
      </trkpt>
      <trkpt lat="59.97482" lon="17.737078">
        <ele>26.0929</ele>
        <time>2014-06-27T09:16:26Z</time>
      </trkpt>
      <trkpt lat="59.9748381" lon="17.7371021">
        <ele>27.0543</ele>
        <time>2014-06-27T09:16:27Z</time>
      </trkpt>
      <trkpt lat="59.9748545" lon="17.7371267">
        <ele>27.0543</ele>
        <time>2014-06-27T09:16:28Z</time>
      </trkpt>
      <trkpt lat="59.9748744" lon="17.7371516">
        <ele>27.0543</ele>
        <time>2014-06-27T09:16:29Z</time>
      </trkpt>
      <trkpt lat="59.9748919" lon="17.7371746">
        <ele>27.0543</ele>
        <time>2014-06-27T09:16:30Z</time>
      </trkpt>
      <trkpt lat="59.9749101" lon="17.7371995">
        <ele>28.0155</ele>
        <time>2014-06-27T09:16:31Z</time>
      </trkpt>
      <trkpt lat="59.9749272" lon="17.7372242">
        <ele>28.4962</ele>
        <time>2014-06-27T09:16:32Z</time>
      </trkpt>
      <trkpt lat="59.9749433" lon="17.7372523">
        <ele>29.9381</ele>
        <time>2014-06-27T09:16:33Z</time>
      </trkpt>
      <trkpt lat="59.9749536" lon="17.7372748">
        <ele>29.9381</ele>
        <time>2014-06-27T09:16:34Z</time>
      </trkpt>
      <trkpt lat="59.9749664" lon="17.7373064">
        <ele>30.8995</ele>
        <time>2014-06-27T09:16:35Z</time>
      </trkpt>
      <trkpt lat="59.9749784" lon="17.7373359">
        <ele>31.8607</ele>
        <time>2014-06-27T09:16:36Z</time>
      </trkpt>
      <trkpt lat="59.9749935" lon="17.7373606">
        <ele>31.8607</ele>
        <time>2014-06-27T09:16:37Z</time>
      </trkpt>
      <trkpt lat="59.9750119" lon="17.73739">
        <ele>32.8223</ele>
        <time>2014-06-27T09:16:38Z</time>
      </trkpt>
      <trkpt lat="59.9750318" lon="17.7374159">
        <ele>33.3029</ele>
        <time>2014-06-27T09:16:39Z</time>
      </trkpt>
      <trkpt lat="59.9750516" lon="17.7374409">
        <ele>33.7834</ele>
        <time>2014-06-27T09:16:40Z</time>
      </trkpt>
      <trkpt lat="59.9750681" lon="17.7374636">
        <ele>34.2642</ele>
        <time>2014-06-27T09:16:41Z</time>
      </trkpt>
      <trkpt lat="59.9750856" lon="17.7374856">
        <ele>34.7449</ele>
        <time>2014-06-27T09:16:42Z</time>
      </trkpt>
      <trkpt lat="59.9751043" lon="17.7375076">
        <ele>35.2255</ele>
        <time>2014-06-27T09:16:43Z</time>
      </trkpt>
      <trkpt lat="59.9751226" lon="17.7375298">
        <ele>35.2255</ele>
        <time>2014-06-27T09:16:44Z</time>
      </trkpt>
      <trkpt lat="59.9751406" lon="17.7375561">
        <ele>35.2255</ele>
        <time>2014-06-27T09:16:45Z</time>
      </trkpt>
      <trkpt lat="59.9751556" lon="17.7375817">
        <ele>35.2255</ele>
        <time>2014-06-27T09:16:46Z</time>
      </trkpt>
      <trkpt lat="59.9751701" lon="17.737607">
        <ele>35.2255</ele>
        <time>2014-06-27T09:16:47Z</time>
      </trkpt>
      <trkpt lat="59.9751853" lon="17.7376299">
        <ele>35.2255</ele>
        <time>2014-06-27T09:16:48Z</time>
      </trkpt>
      <trkpt lat="59.9751997" lon="17.7376483">
        <ele>35.2255</ele>
        <time>2014-06-27T09:16:49Z</time>
      </trkpt>
      <trkpt lat="59.9752126" lon="17.7376664">
        <ele>35.2255</ele>
        <time>2014-06-27T09:16:50Z</time>
      </trkpt>
      <trkpt lat="59.9752287" lon="17.7376862">
        <ele>35.2255</ele>
        <time>2014-06-27T09:16:51Z</time>
      </trkpt>
      <trkpt lat="59.9752445" lon="17.7377069">
        <ele>34.7449</ele>
        <time>2014-06-27T09:16:52Z</time>
      </trkpt>
      <trkpt lat="59.9752595" lon="17.7377268">
        <ele>34.7449</ele>
        <time>2014-06-27T09:16:53Z</time>
      </trkpt>
      <trkpt lat="59.9752772" lon="17.7377458">
        <ele>34.2642</ele>
        <time>2014-06-27T09:16:54Z</time>
      </trkpt>
      <trkpt lat="59.9753002" lon="17.7377695">
        <ele>34.7449</ele>
        <time>2014-06-27T09:16:55Z</time>
      </trkpt>
      <trkpt lat="59.9753177" lon="17.737794">
        <ele>35.2255</ele>
        <time>2014-06-27T09:16:56Z</time>
      </trkpt>
      <trkpt lat="59.9753305" lon="17.7378203">
        <ele>35.2255</ele>
        <time>2014-06-27T09:16:57Z</time>
      </trkpt>
      <trkpt lat="59.9753447" lon="17.7378438">
        <ele>35.2255</ele>
        <time>2014-06-27T09:16:58Z</time>
      </trkpt>
      <trkpt lat="59.9753644" lon="17.7378648">
        <ele>35.2255</ele>
        <time>2014-06-27T09:16:59Z</time>
      </trkpt>
      <trkpt lat="59.9753846" lon="17.7378863">
        <ele>35.2255</ele>
        <time>2014-06-27T09:17:00Z</time>
      </trkpt>
      <trkpt lat="59.9754037" lon="17.737912">
        <ele>35.2255</ele>
        <time>2014-06-27T09:17:01Z</time>
      </trkpt>
      <trkpt lat="59.975421" lon="17.7379438">
        <ele>35.2255</ele>
        <time>2014-06-27T09:17:02Z</time>
      </trkpt>
      <trkpt lat="59.9754348" lon="17.7379774">
        <ele>35.2255</ele>
        <time>2014-06-27T09:17:03Z</time>
      </trkpt>
      <trkpt lat="59.9754463" lon="17.7380083">
        <ele>35.2255</ele>
        <time>2014-06-27T09:17:04Z</time>
      </trkpt>
      <trkpt lat="59.975458" lon="17.7380385">
        <ele>34.7449</ele>
        <time>2014-06-27T09:17:05Z</time>
      </trkpt>
      <trkpt lat="59.9754689" lon="17.7380614">
        <ele>34.7449</ele>
        <time>2014-06-27T09:17:06Z</time>
      </trkpt>
      <trkpt lat="59.9754846" lon="17.7380783">
        <ele>34.2642</ele>
        <time>2014-06-27T09:17:07Z</time>
      </trkpt>
      <trkpt lat="59.9755064" lon="17.7380971">
        <ele>33.7834</ele>
        <time>2014-06-27T09:17:08Z</time>
      </trkpt>
      <trkpt lat="59.9755228" lon="17.7381187">
        <ele>32.8223</ele>
        <time>2014-06-27T09:17:09Z</time>
      </trkpt>
      <trkpt lat="59.9755436" lon="17.738141">
        <ele>32.8223</ele>
        <time>2014-06-27T09:17:10Z</time>
      </trkpt>
      <trkpt lat="59.9755676" lon="17.7381648">
        <ele>32.3416</ele>
        <time>2014-06-27T09:17:11Z</time>
      </trkpt>
      <trkpt lat="59.9755891" lon="17.7381882">
        <ele>31.8607</ele>
        <time>2014-06-27T09:17:12Z</time>
      </trkpt>
      <trkpt lat="59.9756061" lon="17.7382126">
        <ele>31.3801</ele>
        <time>2014-06-27T09:17:13Z</time>
      </trkpt>
      <trkpt lat="59.9756203" lon="17.7382355">
        <ele>30.8995</ele>
        <time>2014-06-27T09:17:14Z</time>
      </trkpt>
      <trkpt lat="59.9756363" lon="17.7382556">
        <ele>30.8995</ele>
        <time>2014-06-27T09:17:15Z</time>
      </trkpt>
      <trkpt lat="59.975653" lon="17.7382753">
        <ele>30.4188</ele>
        <time>2014-06-27T09:17:16Z</time>
      </trkpt>
      <trkpt lat="59.9756717" lon="17.7382955">
        <ele>29.9381</ele>
        <time>2014-06-27T09:17:17Z</time>
      </trkpt>
      <trkpt lat="59.9756944" lon="17.7383172">
        <ele>29.9381</ele>
        <time>2014-06-27T09:17:18Z</time>
      </trkpt>
      <trkpt lat="59.9757187" lon="17.7383412">
        <ele>29.9381</ele>
        <time>2014-06-27T09:17:19Z</time>
      </trkpt>
      <trkpt lat="59.9757425" lon="17.7383649">
        <ele>29.9381</ele>
        <time>2014-06-27T09:17:20Z</time>
      </trkpt>
      <trkpt lat="59.9757653" lon="17.7383913">
        <ele>29.9381</ele>
        <time>2014-06-27T09:17:21Z</time>
      </trkpt>
      <trkpt lat="59.9757855" lon="17.7384193">
        <ele>29.9381</ele>
        <time>2014-06-27T09:17:22Z</time>
      </trkpt>
      <trkpt lat="59.9758037" lon="17.7384466">
        <ele>29.9381</ele>
        <time>2014-06-27T09:17:23Z</time>
      </trkpt>
      <trkpt lat="59.9758222" lon="17.738471">
        <ele>30.4188</ele>
        <time>2014-06-27T09:17:24Z</time>
      </trkpt>
      <trkpt lat="59.975846" lon="17.7384943">
        <ele>30.8995</ele>
        <time>2014-06-27T09:17:25Z</time>
      </trkpt>
      <trkpt lat="59.9758684" lon="17.7385167">
        <ele>31.3801</ele>
        <time>2014-06-27T09:17:26Z</time>
      </trkpt>
      <trkpt lat="59.9758835" lon="17.7385416">
        <ele>30.8995</ele>
        <time>2014-06-27T09:17:27Z</time>
      </trkpt>
      <trkpt lat="59.9758985" lon="17.7385685">
        <ele>31.3801</ele>
        <time>2014-06-27T09:17:28Z</time>
      </trkpt>
      <trkpt lat="59.9759181" lon="17.7385966">
        <ele>31.3801</ele>
        <time>2014-06-27T09:17:29Z</time>
      </trkpt>
      <trkpt lat="59.9759389" lon="17.7386265">
        <ele>31.8607</ele>
        <time>2014-06-27T09:17:30Z</time>
      </trkpt>
      <trkpt lat="59.9759611" lon="17.738654">
        <ele>32.3416</ele>
        <time>2014-06-27T09:17:31Z</time>
      </trkpt>
      <trkpt lat="59.9759803" lon="17.7386778">
        <ele>32.8223</ele>
        <time>2014-06-27T09:17:32Z</time>
      </trkpt>
      <trkpt lat="59.9759995" lon="17.7387047">
        <ele>33.3029</ele>
        <time>2014-06-27T09:17:33Z</time>
      </trkpt>
      <trkpt lat="59.9760057" lon="17.7387237">
        <ele>33.3029</ele>
        <time>2014-06-27T09:17:34Z</time>
      </trkpt>
      <trkpt lat="59.9760138" lon="17.73874">
        <ele>33.7834</ele>
        <time>2014-06-27T09:17:35Z</time>
      </trkpt>
      <trkpt lat="59.9760298" lon="17.738761">
        <ele>33.7834</ele>
        <time>2014-06-27T09:17:36Z</time>
      </trkpt>
      <trkpt lat="59.9760488" lon="17.7387853">
        <ele>34.2642</ele>
        <time>2014-06-27T09:17:37Z</time>
      </trkpt>
      <trkpt lat="59.9760647" lon="17.7388104">
        <ele>34.7449</ele>
        <time>2014-06-27T09:17:38Z</time>
      </trkpt>
      <trkpt lat="59.9760768" lon="17.7388358">
        <ele>34.7449</ele>
        <time>2014-06-27T09:17:39Z</time>
      </trkpt>
      <trkpt lat="59.9760949" lon="17.7388601">
        <ele>35.2255</ele>
        <time>2014-06-27T09:17:40Z</time>
      </trkpt>
      <trkpt lat="59.9761154" lon="17.7388835">
        <ele>35.2255</ele>
        <time>2014-06-27T09:17:41Z</time>
      </trkpt>
      <trkpt lat="59.9761277" lon="17.7389043">
        <ele>34.2642</ele>
        <time>2014-06-27T09:17:42Z</time>
      </trkpt>
      <trkpt lat="59.9761425" lon="17.7389236">
        <ele>33.7834</ele>
        <time>2014-06-27T09:17:43Z</time>
      </trkpt>
      <trkpt lat="59.9761599" lon="17.7389438">
        <ele>33.3029</ele>
        <time>2014-06-27T09:17:44Z</time>
      </trkpt>
      <trkpt lat="59.9761808" lon="17.7389684">
        <ele>33.3029</ele>
        <time>2014-06-27T09:17:45Z</time>
      </trkpt>
      <trkpt lat="59.9761999" lon="17.7389922">
        <ele>33.3029</ele>
        <time>2014-06-27T09:17:46Z</time>
      </trkpt>
      <trkpt lat="59.9762156" lon="17.7390122">
        <ele>32.8223</ele>
        <time>2014-06-27T09:17:47Z</time>
      </trkpt>
      <trkpt lat="59.9762346" lon="17.7390342">
        <ele>32.8223</ele>
        <time>2014-06-27T09:17:48Z</time>
      </trkpt>
      <trkpt lat="59.976247" lon="17.7390599">
        <ele>32.8223</ele>
        <time>2014-06-27T09:17:49Z</time>
      </trkpt>
      <trkpt lat="59.9762591" lon="17.7390824">
        <ele>32.8223</ele>
        <time>2014-06-27T09:17:50Z</time>
      </trkpt>
      <trkpt lat="59.976271" lon="17.7390984">
        <ele>32.3416</ele>
        <time>2014-06-27T09:17:51Z</time>
      </trkpt>
      <trkpt lat="59.9762744" lon="17.7391124">
        <ele>30.8995</ele>
        <time>2014-06-27T09:17:52Z</time>
      </trkpt>
      <trkpt lat="59.9762895" lon="17.7391356">
        <ele>31.8607</ele>
        <time>2014-06-27T09:17:53Z</time>
      </trkpt>
      <trkpt lat="59.9763007" lon="17.7391569">
        <ele>31.8607</ele>
        <time>2014-06-27T09:17:54Z</time>
      </trkpt>
      <trkpt lat="59.9763158" lon="17.7391797">
        <ele>31.8607</ele>
        <time>2014-06-27T09:17:55Z</time>
      </trkpt>
      <trkpt lat="59.97633" lon="17.7392024">
        <ele>31.8607</ele>
        <time>2014-06-27T09:17:56Z</time>
      </trkpt>
      <trkpt lat="59.9763383" lon="17.7392264">
        <ele>31.8607</ele>
        <time>2014-06-27T09:17:57Z</time>
      </trkpt>
      <trkpt lat="59.9763432" lon="17.7392519">
        <ele>31.3801</ele>
        <time>2014-06-27T09:17:58Z</time>
      </trkpt>
      <trkpt lat="59.9763461" lon="17.7392837">
        <ele>32.3416</ele>
        <time>2014-06-27T09:17:59Z</time>
      </trkpt>
      <trkpt lat="59.9763515" lon="17.7393073">
        <ele>31.8607</ele>
        <time>2014-06-27T09:18:00Z</time>
      </trkpt>
      <trkpt lat="59.9763553" lon="17.739329">
        <ele>31.8607</ele>
        <time>2014-06-27T09:18:01Z</time>
      </trkpt>
      <trkpt lat="59.9763595" lon="17.7393512">
        <ele>31.8607</ele>
        <time>2014-06-27T09:18:02Z</time>
      </trkpt>
      <trkpt lat="59.9763643" lon="17.7393761">
        <ele>31.8607</ele>
        <time>2014-06-27T09:18:03Z</time>
      </trkpt>
      <trkpt lat="59.9763666" lon="17.7394016">
        <ele>30.8995</ele>
        <time>2014-06-27T09:18:04Z</time>
      </trkpt>
      <trkpt lat="59.9763482" lon="17.7394139">
        <ele>26.5736</ele>
        <time>2014-06-27T09:18:05Z</time>
      </trkpt>
      <trkpt lat="59.9763398" lon="17.7394316">
        <ele>24.1703</ele>
        <time>2014-06-27T09:18:06Z</time>
      </trkpt>
      <trkpt lat="59.9763373" lon="17.7394522">
        <ele>22.7283</ele>
        <time>2014-06-27T09:18:07Z</time>
      </trkpt>
      <trkpt lat="59.9763397" lon="17.739474">
        <ele>21.2864</ele>
        <time>2014-06-27T09:18:08Z</time>
      </trkpt>
      <trkpt lat="59.9763454" lon="17.7394963">
        <ele>20.8057</ele>
        <time>2014-06-27T09:18:09Z</time>
      </trkpt>
      <trkpt lat="59.9763466" lon="17.7395138">
        <ele>20.325</ele>
        <time>2014-06-27T09:18:10Z</time>
      </trkpt>
      <trkpt lat="59.9763486" lon="17.7395278">
        <ele>19.8444</ele>
        <time>2014-06-27T09:18:11Z</time>
      </trkpt>
      <trkpt lat="59.976359" lon="17.7395463">
        <ele>19.3638</ele>
        <time>2014-06-27T09:18:12Z</time>
      </trkpt>
      <trkpt lat="59.9763707" lon="17.7395647">
        <ele>18.8831</ele>
        <time>2014-06-27T09:18:13Z</time>
      </trkpt>
      <trkpt lat="59.9763816" lon="17.7395848">
        <ele>18.4023</ele>
        <time>2014-06-27T09:18:14Z</time>
      </trkpt>
      <trkpt lat="59.976391" lon="17.7396038">
        <ele>18.4023</ele>
        <time>2014-06-27T09:18:15Z</time>
      </trkpt>
      <trkpt lat="59.9763997" lon="17.7396188">
        <ele>18.4023</ele>
        <time>2014-06-27T09:18:16Z</time>
      </trkpt>
      <trkpt lat="59.9764113" lon="17.7396256">
        <ele>18.4023</ele>
        <time>2014-06-27T09:18:17Z</time>
      </trkpt>
      <trkpt lat="59.9764257" lon="17.7396298">
        <ele>18.4023</ele>
        <time>2014-06-27T09:18:18Z</time>
      </trkpt>
      <trkpt lat="59.9764429" lon="17.7396324">
        <ele>18.4023</ele>
        <time>2014-06-27T09:18:19Z</time>
      </trkpt>
      <trkpt lat="59.9764552" lon="17.7396312">
        <ele>18.4023</ele>
        <time>2014-06-27T09:18:20Z</time>
      </trkpt>
      <trkpt lat="59.9764647" lon="17.7396303">
        <ele>18.4023</ele>
        <time>2014-06-27T09:18:21Z</time>
      </trkpt>
      <trkpt lat="59.9764741" lon="17.7396238">
        <ele>18.4023</ele>
        <time>2014-06-27T09:18:22Z</time>
      </trkpt>
      <trkpt lat="59.9764848" lon="17.7396101">
        <ele>18.8831</ele>
        <time>2014-06-27T09:18:23Z</time>
      </trkpt>
      <trkpt lat="59.9764931" lon="17.739587">
        <ele>18.4023</ele>
        <time>2014-06-27T09:18:24Z</time>
      </trkpt>
      <trkpt lat="59.9765035" lon="17.7395647">
        <ele>18.8831</ele>
        <time>2014-06-27T09:18:25Z</time>
      </trkpt>
      <trkpt lat="59.9765134" lon="17.7395409">
        <ele>18.8831</ele>
        <time>2014-06-27T09:18:26Z</time>
      </trkpt>
      <trkpt lat="59.9765246" lon="17.7395185">
        <ele>18.8831</ele>
        <time>2014-06-27T09:18:27Z</time>
      </trkpt>
      <trkpt lat="59.9765398" lon="17.7395003">
        <ele>19.3638</ele>
        <time>2014-06-27T09:18:28Z</time>
      </trkpt>
      <trkpt lat="59.9765553" lon="17.7394859">
        <ele>19.3638</ele>
        <time>2014-06-27T09:18:29Z</time>
      </trkpt>
      <trkpt lat="59.9765719" lon="17.7394753">
        <ele>19.3638</ele>
        <time>2014-06-27T09:18:30Z</time>
      </trkpt>
      <trkpt lat="59.9765862" lon="17.7394665">
        <ele>19.3638</ele>
        <time>2014-06-27T09:18:31Z</time>
      </trkpt>
      <trkpt lat="59.976601" lon="17.739457">
        <ele>19.3638</ele>
        <time>2014-06-27T09:18:32Z</time>
      </trkpt>
      <trkpt lat="59.9766152" lon="17.7394456">
        <ele>18.8831</ele>
        <time>2014-06-27T09:18:33Z</time>
      </trkpt>
      <trkpt lat="59.9766307" lon="17.7394355">
        <ele>18.8831</ele>
        <time>2014-06-27T09:18:34Z</time>
      </trkpt>
      <trkpt lat="59.9766448" lon="17.7394269">
        <ele>18.8831</ele>
        <time>2014-06-27T09:18:35Z</time>
      </trkpt>
      <trkpt lat="59.9766605" lon="17.7394191">
        <ele>19.3638</ele>
        <time>2014-06-27T09:18:36Z</time>
      </trkpt>
      <trkpt lat="59.976676" lon="17.7394113">
        <ele>19.3638</ele>
        <time>2014-06-27T09:18:37Z</time>
      </trkpt>
      <trkpt lat="59.9766934" lon="17.7394075">
        <ele>20.325</ele>
        <time>2014-06-27T09:18:38Z</time>
      </trkpt>
      <trkpt lat="59.9767067" lon="17.7394019">
        <ele>20.325</ele>
        <time>2014-06-27T09:18:39Z</time>
      </trkpt>
      <trkpt lat="59.9767196" lon="17.7393932">
        <ele>20.8057</ele>
        <time>2014-06-27T09:18:40Z</time>
      </trkpt>
      <trkpt lat="59.9767319" lon="17.7393764">
        <ele>21.2864</ele>
        <time>2014-06-27T09:18:41Z</time>
      </trkpt>
      <trkpt lat="59.9767448" lon="17.7393622">
        <ele>21.767</ele>
        <time>2014-06-27T09:18:42Z</time>
      </trkpt>
      <trkpt lat="59.9767541" lon="17.7393501">
        <ele>21.767</ele>
        <time>2014-06-27T09:18:43Z</time>
      </trkpt>
      <trkpt lat="59.976767" lon="17.7393438">
        <ele>22.2476</ele>
        <time>2014-06-27T09:18:44Z</time>
      </trkpt>
      <trkpt lat="59.9767801" lon="17.7393341">
        <ele>22.7283</ele>
        <time>2014-06-27T09:18:45Z</time>
      </trkpt>
      <trkpt lat="59.9767941" lon="17.7393257">
        <ele>22.7283</ele>
        <time>2014-06-27T09:18:46Z</time>
      </trkpt>
      <trkpt lat="59.9768106" lon="17.7393163">
        <ele>23.209</ele>
        <time>2014-06-27T09:18:47Z</time>
      </trkpt>
      <trkpt lat="59.976826" lon="17.739306">
        <ele>23.209</ele>
        <time>2014-06-27T09:18:48Z</time>
      </trkpt>
      <trkpt lat="59.9768403" lon="17.7392943">
        <ele>23.209</ele>
        <time>2014-06-27T09:18:49Z</time>
      </trkpt>
      <trkpt lat="59.9768541" lon="17.7392849">
        <ele>23.209</ele>
        <time>2014-06-27T09:18:50Z</time>
      </trkpt>
      <trkpt lat="59.9768687" lon="17.7392782">
        <ele>23.6896</ele>
        <time>2014-06-27T09:18:51Z</time>
      </trkpt>
      <trkpt lat="59.9768833" lon="17.7392715">
        <ele>23.6896</ele>
        <time>2014-06-27T09:18:52Z</time>
      </trkpt>
      <trkpt lat="59.9768972" lon="17.7392688">
        <ele>24.1703</ele>
        <time>2014-06-27T09:18:53Z</time>
      </trkpt>
      <trkpt lat="59.9769095" lon="17.7392626">
        <ele>24.651</ele>
        <time>2014-06-27T09:18:54Z</time>
      </trkpt>
      <trkpt lat="59.9769215" lon="17.7392563">
        <ele>24.651</ele>
        <time>2014-06-27T09:18:55Z</time>
      </trkpt>
      <trkpt lat="59.976937" lon="17.7392492">
        <ele>25.1317</ele>
        <time>2014-06-27T09:18:56Z</time>
      </trkpt>
      <trkpt lat="59.9769521" lon="17.7392418">
        <ele>25.6123</ele>
        <time>2014-06-27T09:18:57Z</time>
      </trkpt>
      <trkpt lat="59.9769659" lon="17.7392372">
        <ele>25.6123</ele>
        <time>2014-06-27T09:18:58Z</time>
      </trkpt>
      <trkpt lat="59.9769801" lon="17.7392336">
        <ele>25.6123</ele>
        <time>2014-06-27T09:18:59Z</time>
      </trkpt>
      <trkpt lat="59.9769955" lon="17.7392319">
        <ele>26.0929</ele>
        <time>2014-06-27T09:19:00Z</time>
      </trkpt>
      <trkpt lat="59.977012" lon="17.7392298">
        <ele>26.0929</ele>
        <time>2014-06-27T09:19:01Z</time>
      </trkpt>
      <trkpt lat="59.977028" lon="17.7392301">
        <ele>26.0929</ele>
        <time>2014-06-27T09:19:02Z</time>
      </trkpt>
      <trkpt lat="59.9770429" lon="17.7392248">
        <ele>26.0929</ele>
        <time>2014-06-27T09:19:03Z</time>
      </trkpt>
      <trkpt lat="59.9770573" lon="17.7392196">
        <ele>26.5736</ele>
        <time>2014-06-27T09:19:04Z</time>
      </trkpt>
      <trkpt lat="59.9770695" lon="17.7392139">
        <ele>26.5736</ele>
        <time>2014-06-27T09:19:05Z</time>
      </trkpt>
      <trkpt lat="59.9770811" lon="17.7392056">
        <ele>26.5736</ele>
        <time>2014-06-27T09:19:06Z</time>
      </trkpt>
      <trkpt lat="59.9770918" lon="17.7391956">
        <ele>27.0543</ele>
        <time>2014-06-27T09:19:07Z</time>
      </trkpt>
      <trkpt lat="59.9771049" lon="17.7391832">
        <ele>27.0543</ele>
        <time>2014-06-27T09:19:08Z</time>
      </trkpt>
      <trkpt lat="59.977123" lon="17.7391729">
        <ele>27.0543</ele>
        <time>2014-06-27T09:19:09Z</time>
      </trkpt>
      <trkpt lat="59.9771375" lon="17.7391606">
        <ele>27.0543</ele>
        <time>2014-06-27T09:19:10Z</time>
      </trkpt>
      <trkpt lat="59.9771513" lon="17.7391471">
        <ele>27.5349</ele>
        <time>2014-06-27T09:19:11Z</time>
      </trkpt>
      <trkpt lat="59.9771691" lon="17.7391357">
        <ele>28.0155</ele>
        <time>2014-06-27T09:19:12Z</time>
      </trkpt>
      <trkpt lat="59.9771868" lon="17.7391273">
        <ele>28.0155</ele>
        <time>2014-06-27T09:19:13Z</time>
      </trkpt>
      <trkpt lat="59.9772034" lon="17.7391187">
        <ele>28.4962</ele>
        <time>2014-06-27T09:19:14Z</time>
      </trkpt>
      <trkpt lat="59.97722" lon="17.7391171">
        <ele>28.4962</ele>
        <time>2014-06-27T09:19:15Z</time>
      </trkpt>
      <trkpt lat="59.9772342" lon="17.7391139">
        <ele>28.4962</ele>
        <time>2014-06-27T09:19:16Z</time>
      </trkpt>
      <trkpt lat="59.9772461" lon="17.7391072">
        <ele>28.4962</ele>
        <time>2014-06-27T09:19:17Z</time>
      </trkpt>
      <trkpt lat="59.9772596" lon="17.7390993">
        <ele>28.4962</ele>
        <time>2014-06-27T09:19:18Z</time>
      </trkpt>
      <trkpt lat="59.9772733" lon="17.7390939">
        <ele>28.4962</ele>
        <time>2014-06-27T09:19:19Z</time>
      </trkpt>
      <trkpt lat="59.9772878" lon="17.7390869">
        <ele>28.9769</ele>
        <time>2014-06-27T09:19:20Z</time>
      </trkpt>
      <trkpt lat="59.977305" lon="17.7390777">
        <ele>29.9381</ele>
        <time>2014-06-27T09:19:21Z</time>
      </trkpt>
      <trkpt lat="59.9773215" lon="17.7390569">
        <ele>29.9381</ele>
        <time>2014-06-27T09:19:22Z</time>
      </trkpt>
      <trkpt lat="59.9773401" lon="17.7390435">
        <ele>30.4188</ele>
        <time>2014-06-27T09:19:23Z</time>
      </trkpt>
      <trkpt lat="59.9773566" lon="17.73903">
        <ele>30.4188</ele>
        <time>2014-06-27T09:19:24Z</time>
      </trkpt>
      <trkpt lat="59.9773722" lon="17.7390171">
        <ele>30.4188</ele>
        <time>2014-06-27T09:19:25Z</time>
      </trkpt>
      <trkpt lat="59.9773879" lon="17.7390051">
        <ele>30.4188</ele>
        <time>2014-06-27T09:19:26Z</time>
      </trkpt>
      <trkpt lat="59.9774041" lon="17.7389937">
        <ele>30.4188</ele>
        <time>2014-06-27T09:19:27Z</time>
      </trkpt>
      <trkpt lat="59.9774224" lon="17.7389896">
        <ele>30.8995</ele>
        <time>2014-06-27T09:19:28Z</time>
      </trkpt>
      <trkpt lat="59.9774399" lon="17.7389843">
        <ele>31.8607</ele>
        <time>2014-06-27T09:19:29Z</time>
      </trkpt>
      <trkpt lat="59.9774562" lon="17.7389819">
        <ele>31.8607</ele>
        <time>2014-06-27T09:19:30Z</time>
      </trkpt>
      <trkpt lat="59.9774717" lon="17.7389771">
        <ele>31.8607</ele>
        <time>2014-06-27T09:19:31Z</time>
      </trkpt>
      <trkpt lat="59.9774849" lon="17.7389667">
        <ele>32.3416</ele>
        <time>2014-06-27T09:19:32Z</time>
      </trkpt>
      <trkpt lat="59.9774981" lon="17.7389522">
        <ele>32.3416</ele>
        <time>2014-06-27T09:19:33Z</time>
      </trkpt>
      <trkpt lat="59.9775127" lon="17.7389465">
        <ele>32.3416</ele>
        <time>2014-06-27T09:19:34Z</time>
      </trkpt>
      <trkpt lat="59.9775281" lon="17.7389469">
        <ele>32.3416</ele>
        <time>2014-06-27T09:19:35Z</time>
      </trkpt>
      <trkpt lat="59.9775412" lon="17.7389411">
        <ele>31.8607</ele>
        <time>2014-06-27T09:19:36Z</time>
      </trkpt>
      <trkpt lat="59.9775534" lon="17.7389327">
        <ele>31.3801</ele>
        <time>2014-06-27T09:19:37Z</time>
      </trkpt>
      <trkpt lat="59.9775719" lon="17.7389269">
        <ele>31.3801</ele>
        <time>2014-06-27T09:19:38Z</time>
      </trkpt>
      <trkpt lat="59.9775897" lon="17.7389258">
        <ele>31.3801</ele>
        <time>2014-06-27T09:19:39Z</time>
      </trkpt>
      <trkpt lat="59.9776084" lon="17.7389244">
        <ele>31.3801</ele>
        <time>2014-06-27T09:19:40Z</time>
      </trkpt>
      <trkpt lat="59.9776234" lon="17.7389206">
        <ele>30.8995</ele>
        <time>2014-06-27T09:19:41Z</time>
      </trkpt>
      <trkpt lat="59.9776382" lon="17.7389208">
        <ele>30.8995</ele>
        <time>2014-06-27T09:19:42Z</time>
      </trkpt>
      <trkpt lat="59.9776688" lon="17.7389257">
        <ele>30.8995</ele>
        <time>2014-06-27T09:19:44Z</time>
      </trkpt>
      <trkpt lat="59.977685" lon="17.7389259">
        <ele>30.8995</ele>
        <time>2014-06-27T09:19:45Z</time>
      </trkpt>
      <trkpt lat="59.9777044" lon="17.7389281">
        <ele>30.8995</ele>
        <time>2014-06-27T09:19:46Z</time>
      </trkpt>
      <trkpt lat="59.97773" lon="17.7389343">
        <ele>30.8995</ele>
        <time>2014-06-27T09:19:47Z</time>
      </trkpt>
      <trkpt lat="59.9777618" lon="17.7389418">
        <ele>30.8995</ele>
        <time>2014-06-27T09:19:48Z</time>
      </trkpt>
      <trkpt lat="59.9777913" lon="17.7389507">
        <ele>31.3801</ele>
        <time>2014-06-27T09:19:49Z</time>
      </trkpt>
      <trkpt lat="59.9778136" lon="17.738961">
        <ele>31.3801</ele>
        <time>2014-06-27T09:19:50Z</time>
      </trkpt>
      <trkpt lat="59.9778342" lon="17.7389716">
        <ele>32.3416</ele>
        <time>2014-06-27T09:19:51Z</time>
      </trkpt>
      <trkpt lat="59.9778503" lon="17.7389761">
        <ele>31.8607</ele>
        <time>2014-06-27T09:19:52Z</time>
      </trkpt>
      <trkpt lat="59.9778674" lon="17.7389781">
        <ele>31.8607</ele>
        <time>2014-06-27T09:19:53Z</time>
      </trkpt>
      <trkpt lat="59.9778855" lon="17.7389766">
        <ele>31.8607</ele>
        <time>2014-06-27T09:19:54Z</time>
      </trkpt>
      <trkpt lat="59.9779026" lon="17.7389766">
        <ele>31.8607</ele>
        <time>2014-06-27T09:19:55Z</time>
      </trkpt>
      <trkpt lat="59.977919" lon="17.7389786">
        <ele>31.3801</ele>
        <time>2014-06-27T09:19:56Z</time>
      </trkpt>
      <trkpt lat="59.9779361" lon="17.7389907">
        <ele>31.3801</ele>
        <time>2014-06-27T09:19:57Z</time>
      </trkpt>
      <trkpt lat="59.9779487" lon="17.7390091">
        <ele>31.3801</ele>
        <time>2014-06-27T09:19:58Z</time>
      </trkpt>
      <trkpt lat="59.9779603" lon="17.739028">
        <ele>31.3801</ele>
        <time>2014-06-27T09:19:59Z</time>
      </trkpt>
      <trkpt lat="59.977974" lon="17.7390409">
        <ele>31.3801</ele>
        <time>2014-06-27T09:20:00Z</time>
      </trkpt>
      <trkpt lat="59.9779881" lon="17.7390542">
        <ele>31.3801</ele>
        <time>2014-06-27T09:20:01Z</time>
      </trkpt>
      <trkpt lat="59.9780043" lon="17.7390647">
        <ele>31.8607</ele>
        <time>2014-06-27T09:20:02Z</time>
      </trkpt>
      <trkpt lat="59.9780224" lon="17.7390742">
        <ele>31.8607</ele>
        <time>2014-06-27T09:20:03Z</time>
      </trkpt>
      <trkpt lat="59.9780395" lon="17.7390821">
        <ele>32.3416</ele>
        <time>2014-06-27T09:20:04Z</time>
      </trkpt>
      <trkpt lat="59.9780592" lon="17.7390915">
        <ele>32.3416</ele>
        <time>2014-06-27T09:20:05Z</time>
      </trkpt>
      <trkpt lat="59.9780792" lon="17.7390953">
        <ele>32.3416</ele>
        <time>2014-06-27T09:20:06Z</time>
      </trkpt>
      <trkpt lat="59.9780996" lon="17.7390918">
        <ele>32.3416</ele>
        <time>2014-06-27T09:20:07Z</time>
      </trkpt>
      <trkpt lat="59.9781191" lon="17.7390998">
        <ele>32.8223</ele>
        <time>2014-06-27T09:20:08Z</time>
      </trkpt>
      <trkpt lat="59.9781373" lon="17.7391119">
        <ele>32.8223</ele>
        <time>2014-06-27T09:20:09Z</time>
      </trkpt>
      <trkpt lat="59.9781559" lon="17.7391197">
        <ele>33.3029</ele>
        <time>2014-06-27T09:20:10Z</time>
      </trkpt>
      <trkpt lat="59.9781724" lon="17.739127">
        <ele>33.3029</ele>
        <time>2014-06-27T09:20:11Z</time>
      </trkpt>
      <trkpt lat="59.9781884" lon="17.7391272">
        <ele>32.8223</ele>
        <time>2014-06-27T09:20:12Z</time>
      </trkpt>
      <trkpt lat="59.9782082" lon="17.7391303">
        <ele>33.3029</ele>
        <time>2014-06-27T09:20:13Z</time>
      </trkpt>
      <trkpt lat="59.9782289" lon="17.7391311">
        <ele>33.3029</ele>
        <time>2014-06-27T09:20:14Z</time>
      </trkpt>
      <trkpt lat="59.9782507" lon="17.7391342">
        <ele>34.2642</ele>
        <time>2014-06-27T09:20:15Z</time>
      </trkpt>
      <trkpt lat="59.9782707" lon="17.7391367">
        <ele>34.2642</ele>
        <time>2014-06-27T09:20:16Z</time>
      </trkpt>
      <trkpt lat="59.9782856" lon="17.7391418">
        <ele>33.7834</ele>
        <time>2014-06-27T09:20:17Z</time>
      </trkpt>
      <trkpt lat="59.9783029" lon="17.7391527">
        <ele>34.2642</ele>
        <time>2014-06-27T09:20:18Z</time>
      </trkpt>
      <trkpt lat="59.97833" lon="17.7391606">
        <ele>35.7061</ele>
        <time>2014-06-27T09:20:19Z</time>
      </trkpt>
      <trkpt lat="59.9783545" lon="17.739162">
        <ele>36.1868</ele>
        <time>2014-06-27T09:20:20Z</time>
      </trkpt>
      <trkpt lat="59.978379" lon="17.7391662">
        <ele>36.6675</ele>
        <time>2014-06-27T09:20:21Z</time>
      </trkpt>
      <trkpt lat="59.9783992" lon="17.7391715">
        <ele>36.1868</ele>
        <time>2014-06-27T09:20:22Z</time>
      </trkpt>
      <trkpt lat="59.9784175" lon="17.7391746">
        <ele>37.1481</ele>
        <time>2014-06-27T09:20:23Z</time>
      </trkpt>
      <trkpt lat="59.9784305" lon="17.7391839">
        <ele>37.6287</ele>
        <time>2014-06-27T09:20:24Z</time>
      </trkpt>
      <trkpt lat="59.978446" lon="17.7391962">
        <ele>37.6287</ele>
        <time>2014-06-27T09:20:25Z</time>
      </trkpt>
      <trkpt lat="59.9784677" lon="17.7392067">
        <ele>38.1094</ele>
        <time>2014-06-27T09:20:26Z</time>
      </trkpt>
      <trkpt lat="59.978492" lon="17.7392184">
        <ele>39.0707</ele>
        <time>2014-06-27T09:20:27Z</time>
      </trkpt>
      <trkpt lat="59.9785147" lon="17.739229">
        <ele>39.5513</ele>
        <time>2014-06-27T09:20:28Z</time>
      </trkpt>
      <trkpt lat="59.9785368" lon="17.7392327">
        <ele>40.0321</ele>
        <time>2014-06-27T09:20:29Z</time>
      </trkpt>
      <trkpt lat="59.9785559" lon="17.739232">
        <ele>40.5128</ele>
        <time>2014-06-27T09:20:30Z</time>
      </trkpt>
      <trkpt lat="59.9785731" lon="17.7392404">
        <ele>41.474</ele>
        <time>2014-06-27T09:20:31Z</time>
      </trkpt>
      <trkpt lat="59.9785942" lon="17.7392469">
        <ele>41.9547</ele>
        <time>2014-06-27T09:20:32Z</time>
      </trkpt>
      <trkpt lat="59.9786186" lon="17.7392516">
        <ele>42.4354</ele>
        <time>2014-06-27T09:20:33Z</time>
      </trkpt>
      <trkpt lat="59.9786403" lon="17.7392482">
        <ele>42.4354</ele>
        <time>2014-06-27T09:20:34Z</time>
      </trkpt>
      <trkpt lat="59.9786683" lon="17.7392481">
        <ele>42.916</ele>
        <time>2014-06-27T09:20:35Z</time>
      </trkpt>
      <trkpt lat="59.9786922" lon="17.7392512">
        <ele>42.916</ele>
        <time>2014-06-27T09:20:36Z</time>
      </trkpt>
      <trkpt lat="59.9787133" lon="17.739256">
        <ele>43.8773</ele>
        <time>2014-06-27T09:20:37Z</time>
      </trkpt>
      <trkpt lat="59.9787352" lon="17.7392616">
        <ele>44.358</ele>
        <time>2014-06-27T09:20:38Z</time>
      </trkpt>
      <trkpt lat="59.9787589" lon="17.7392607">
        <ele>45.3192</ele>
        <time>2014-06-27T09:20:39Z</time>
      </trkpt>
      <trkpt lat="59.9787826" lon="17.7392472">
        <ele>45.7999</ele>
        <time>2014-06-27T09:20:40Z</time>
      </trkpt>
      <trkpt lat="59.9788055" lon="17.7392383">
        <ele>46.2806</ele>
        <time>2014-06-27T09:20:41Z</time>
      </trkpt>
      <trkpt lat="59.9788328" lon="17.7392357">
        <ele>45.7999</ele>
        <time>2014-06-27T09:20:42Z</time>
      </trkpt>
      <trkpt lat="59.9788609" lon="17.7392288">
        <ele>46.2806</ele>
        <time>2014-06-27T09:20:43Z</time>
      </trkpt>
      <trkpt lat="59.9788853" lon="17.7392718">
        <ele>48.684</ele>
        <time>2014-06-27T09:20:44Z</time>
      </trkpt>
      <trkpt lat="59.9789002" lon="17.7393298">
        <ele>49.1646</ele>
        <time>2014-06-27T09:20:45Z</time>
      </trkpt>
      <trkpt lat="59.9789258" lon="17.7393393">
        <ele>50.126</ele>
        <time>2014-06-27T09:20:46Z</time>
      </trkpt>
      <trkpt lat="59.9789547" lon="17.7393513">
        <ele>51.5679</ele>
        <time>2014-06-27T09:20:47Z</time>
      </trkpt>
      <trkpt lat="59.9789794" lon="17.7393647">
        <ele>53.0098</ele>
        <time>2014-06-27T09:20:48Z</time>
      </trkpt>
      <trkpt lat="59.9790019" lon="17.7393806">
        <ele>53.9712</ele>
        <time>2014-06-27T09:20:49Z</time>
      </trkpt>
      <trkpt lat="59.9790229" lon="17.7393979">
        <ele>54.4518</ele>
        <time>2014-06-27T09:20:50Z</time>
      </trkpt>
      <trkpt lat="59.9790443" lon="17.7394202">
        <ele>55.4131</ele>
        <time>2014-06-27T09:20:51Z</time>
      </trkpt>
      <trkpt lat="59.9790612" lon="17.7394477">
        <ele>56.3745</ele>
        <time>2014-06-27T09:20:52Z</time>
      </trkpt>
      <trkpt lat="59.9790714" lon="17.7394924">
        <ele>56.8551</ele>
        <time>2014-06-27T09:20:53Z</time>
      </trkpt>
      <trkpt lat="59.9790762" lon="17.7395351">
        <ele>57.3358</ele>
        <time>2014-06-27T09:20:54Z</time>
      </trkpt>
      <trkpt lat="59.9790825" lon="17.7395776">
        <ele>57.8165</ele>
        <time>2014-06-27T09:20:55Z</time>
      </trkpt>
      <trkpt lat="59.979092" lon="17.7396232">
        <ele>58.2971</ele>
        <time>2014-06-27T09:20:56Z</time>
      </trkpt>
      <trkpt lat="59.9790877" lon="17.7396585">
        <ele>57.3358</ele>
        <time>2014-06-27T09:20:57Z</time>
      </trkpt>
      <trkpt lat="59.9790141" lon="17.7396546">
        <ele>45.7999</ele>
        <time>2014-06-27T09:20:58Z</time>
      </trkpt>
      <trkpt lat="59.9790018" lon="17.7396703">
        <ele>46.7612</ele>
        <time>2014-06-27T09:20:59Z</time>
      </trkpt>
      <trkpt lat="59.9789851" lon="17.7396832">
        <ele>47.2418</ele>
        <time>2014-06-27T09:21:00Z</time>
      </trkpt>
      <trkpt lat="59.9789701" lon="17.7396962">
        <ele>47.7225</ele>
        <time>2014-06-27T09:21:01Z</time>
      </trkpt>
      <trkpt lat="59.9789533" lon="17.7397117">
        <ele>48.2034</ele>
        <time>2014-06-27T09:21:02Z</time>
      </trkpt>
      <trkpt lat="59.9789376" lon="17.7397307">
        <ele>48.2034</ele>
        <time>2014-06-27T09:21:03Z</time>
      </trkpt>
      <trkpt lat="59.9789034" lon="17.7397447">
        <ele>44.8386</ele>
        <time>2014-06-27T09:21:04Z</time>
      </trkpt>
    </trkseg>
  </trk>
</gpx>